[[{"header":{"parameterUnit":"m.s-1","parameterCategory":1,"la1":30.6,"la2":28.766,"lo1":-90.7593,"lo2":-88.6598,"dy":0.0162,"dx":0.0183,"nx":116,"ny":114,"refTime":"2023-06-09T12:00:00:Z","depth":0,"parameterNumber":2,"parameterNumberName":"U-component_of_WINDS"},"data":[0.0,0.0,0.0,0.0,0.0,0.0,0.0,0.0,0.0,0.0,0.0,0.0,0.0,0.0,0.0,0.0,0.0,0.0,0.0,0.0,0.0,0.0,0.0,0.0,0.0,0.0,0.0,0.0,0.0,0.0,0.0,0.0,0.0,0.0,0.0,0.0,0.0,0.0,0.0,0.0,0.0,0.0,0.0,0.0,0.0,0.0,0.0,0.0,0.0,0.0,0.0,0.0,0.0,0.0,0.0,0.0,0.0,0.0,0.0,0.0,0.0,0.0,0.0,0.0,0.0,0.0,0.0,0.0,0.0,0.0,0.0,0.0,0.0,0.0,0.0,0.0,0.0,0.0,0.0,0.0,0.0,0.0,0.0,0.0,0.0,0.0,0.0,0.0,0.0,0.0,0.0,0.0,0.0,0.0,0.0,0.0,0.0,0.0,0.0,0.0,0.0,0.0,0.0,0.0,0.0,0.0,0.0,0.0,0.0,0.0,0.0,0.0,0.0,0.0,0.0,0.0,0.0,0.0,0.0,0.0,0.0,0.0,0.0,0.0,0.0,0.0,0.0,0.0,0.0,0.0,0.0,0.0,0.0,0.0,0.0,0.0,0.0,0.0,0.0,0.0,0.0,0.0,0.0,0.0,0.0,0.0,0.0,0.0,0.0,0.0,0.0,0.0,0.0,0.0,0.0,0.0,0.0,0.0,0.0,0.0,0.0,0.0,0.0,0.0,0.0,0.0,0.0,0.0,0.0,0.0,0.0,0.0,0.0,0.0,0.0,0.0,0.0,0.0,0.0,0.0,0.0,0.0,0.0,0.0,0.0,0.0,0.0,0.0,0.0,0.0,0.0,0.0,0.0,0.0,0.0,0.0,0.0,0.0,0.0,0.0,0.0,0.0,0.0,0.0,0.0,0.0,0.0,0.0,0.0,0.0,0.0,0.0,0.0,0.0,0.0,0.0,0.0,0.0,0.0,0.0,0.0,0.0,0.0,0.0,0.0,0.0,0.0,0.0,0.0,0.0,0.0,0.0,0.0,0.0,0.0,0.0,0.0,0.0,0.0,0.0,0.0,0.0,0.0,0.0,0.0,0.0,0.0,0.0,0.0,0.0,0.0,0.0,0.0,0.0,0.0,0.0,0.0,0.0,0.0,0.0,0.0,0.0,0.0,0.0,0.0,0.0,0.0,0.0,0.0,0.0,0.0,0.0,0.0,0.0,0.0,0.0,0.0,0.0,0.0,0.0,0.0,0.0,0.0,0.0,0.0,0.0,0.0,0.0,0.0,0.0,0.0,0.0,0.0,0.0,0.0,0.0,0.0,0.0,0.0,0.0,0.0,0.0,0.0,0.0,0.0,0.0,0.0,0.0,0.0,0.0,0.0,0.0,0.0,0.0,0.0,0.0,0.0,0.0,0.0,0.0,0.0,0.0,0.0,0.0,0.0,0.0,0.0,0.0,0.0,0.0,0.0,0.0,0.0,0.0,0.0,0.0,0.0,0.0,0.0,0.0,0.0,0.0,0.0,0.0,0.0,0.0,0.0,0.0,0.0,0.0,0.0,0.0,0.0,0.0,0.0,0.0,0.0,0.0,0.0,0.0,0.0,0.0,0.0,0.0,0.0,0.0,0.0,0.0,0.0,0.0,0.0,0.0,0.0,0.0,0.0,0.0,0.0,0.0,0.0,0.0,0.0,0.0,0.0,0.0,0.0,0.0,0.0,0.0,0.0,0.0,0.0,0.0,0.0,0.0,0.0,0.0,0.0,0.0,0.0,0.0,0.0,0.0,0.0,0.0,0.0,0.0,0.0,0.0,0.0,0.0,0.0,0.0,0.0,0.0,0.0,0.0,0.0,0.0,0.0,0.0,0.0,0.0,0.0,0.0,0.0,0.0,0.0,0.0,0.0,0.0,0.0,0.0,0.0,0.0,0.0,0.0,0.0,0.0,0.0,0.0,0.0,0.0,0.0,0.0,0.0,0.0,0.0,0.0,0.0,0.0,0.0,0.0,0.0,0.0,0.0,0.0,0.0,0.0,0.0,0.0,0.0,0.0,0.0,0.0,0.0,0.0,0.0,0.0,0.0,0.0,0.0,0.0,0.0,0.0,0.0,0.0,0.0,0.0,0.0,0.0,0.0,0.0,0.0,0.0,0.0,0.0,0.0,0.0,0.0,0.0,0.0,0.0,0.0,0.0,0.0,0.0,0.0,0.0,0.0,0.0,0.0,0.0,0.0,0.0,0.0,0.0,0.0,0.0,0.0,0.0,0.0,0.0,0.0,0.0,0.0,0.0,0.0,0.0,0.0,0.0,0.0,0.0,0.0,0.0,0.0,0.0,0.0,0.0,0.0,0.0,0.0,0.0,0.0,0.0,0.0,0.0,0.0,0.0,0.0,0.0,0.0,0.0,0.0,0.0,0.0,0.0,0.0,0.0,0.0,0.0,0.0,0.0,0.0,0.0,0.0,0.0,0.0,0.0,0.0,0.0,0.0,0.0,0.0,0.0,0.0,0.0,0.0,0.0,0.0,0.0,0.0,0.0,0.0,0.0,0.0,0.0,0.0,0.0,0.0,0.0,0.0,0.0,0.0,0.0,0.0,0.0,0.0,0.0,0.0,0.0,0.0,0.0,0.0,0.0,0.0,0.0,0.0,0.0,0.0,0.0,0.0,0.0,0.0,0.0,0.0,0.0,0.0,0.0,0.0,0.0,0.0,0.0,0.0,0.0,0.0,0.0,0.0,0.0,0.0,0.0,0.0,0.0,0.0,0.0,0.0,0.0,0.0,0.0,0.0,0.0,0.0,0.0,0.0,0.0,0.0,0.0,0.0,0.0,0.0,0.0,0.0,0.0,0.0,0.0,0.0,0.0,0.0,0.0,0.0,0.0,0.0,0.0,0.0,0.0,0.0,0.0,0.0,0.0,0.0,0.0,0.0,0.0,0.0,0.0,0.0,0.0,0.0,0.0,0.0,0.0,0.0,0.0,0.0,0.0,0.0,0.0,0.0,0.0,0.0,0.0,0.0,0.0,0.0,0.0,0.0,0.0,0.0,0.0,0.0,0.0,0.0,0.0,0.0,0.0,0.0,0.0,0.0,0.0,0.0,0.0,0.0,0.0,0.0,0.0,0.0,0.0,0.0,0.0,0.0,0.0,0.0,0.0,0.0,0.0,0.0,0.0,0.0,0.0,0.0,0.0,0.0,0.0,0.0,0.0,0.0,0.0,0.0,0.0,0.0,0.0,0.0,0.0,0.0,0.0,0.0,0.0,0.0,0.0,0.0,0.0,0.0,0.0,0.0,0.0,0.0,0.0,0.0,0.0,0.0,0.0,0.0,0.0,0.0,0.0,0.0,0.0,0.0,0.0,0.0,0.0,0.0,0.0,0.0,0.0,0.0,0.0,0.0,0.0,0.0,0.0,0.0,0.0,0.0,0.0,0.0,0.0,0.0,0.0,0.0,0.0,0.0,0.0,0.0,0.0,0.0,0.0,0.0,0.0,0.0,0.0,0.0,0.0,0.0,0.0,0.0,0.0,0.0,0.0,0.0,0.0,0.0,0.0,0.0,0.0,0.0,0.0,0.0,0.0,0.0,0.0,0.0,0.0,0.0,0.0,0.0,0.0,0.0,0.0,0.0,0.0,0.0,0.0,0.0,0.0,0.0,0.0,0.0,0.0,0.0,0.0,0.0,0.0,0.0,0.0,0.0,0.0,0.0,0.0,0.0,0.0,0.0,0.0,0.0,0.0,0.0,0.0,0.0,0.0,0.0,0.0,0.0,0.0,0.0,0.0,0.0,0.0,0.0,0.0,0.0,0.0,0.0,0.0,0.0,0.0,0.0,0.0,0.0,0.0,0.0,0.0,0.0,0.0,0.0,0.0,0.0,0.0,0.0,0.0,0.0,0.0,0.0,0.0,0.0,0.0,0.0,0.0,0.0,0.0,0.0,0.0,0.0,0.0,0.0,0.0,0.0,0.0,0.0,0.0,0.0,0.0,0.0,0.0,0.0,0.0,0.0,0.0,0.0,0.0,0.0,0.0,0.0,0.0,0.0,0.0,0.0,0.0,0.0,0.0,0.0,0.0,0.0,0.0,0.0,0.0,0.0,0.0,0.0,0.0,0.0,0.0,0.0,0.0,0.0,0.0,0.0,0.0,0.0,0.0,0.0,0.0,0.0,0.0,0.0,0.0,0.0,0.0,0.0,0.0,0.0,0.0,0.0,0.0,0.0,0.0,0.0,0.0,0.0,0.0,0.0,0.0,0.0,0.0,0.0,0.0,0.0,0.0,0.0,0.0,0.0,0.0,0.0,0.0,0.0,0.0,0.0,0.0,0.0,0.0,0.0,0.0,0.0,0.0,0.0,0.0,0.0,0.0,0.0,0.0,0.0,0.0,0.0,0.0,0.0,0.0,0.0,0.0,0.0,0.0,0.0,0.0,0.0,0.0,0.0,0.0,0.0,0.0,0.0,0.0,0.0,0.0,0.0,0.0,0.0,0.0,0.0,0.0,0.0,0.0,0.0,0.0,0.0,0.0,0.0,0.0,0.0,0.0,0.0,0.0,0.0,0.0,0.0,0.0,0.0,0.0,0.0,0.0,0.0,0.0,0.0,0.0,0.0,0.0,0.0,0.0,0.0,0.0,0.0,0.0,0.0,0.0,0.0,0.0,0.0,0.0,0.0,0.0,0.0,0.0,0.0,0.0,0.0,0.0,0.0,0.0,0.0,0.0,0.0,0.0,0.0,0.0,0.0,0.0,0.0,0.0,0.0,0.0,0.0,0.0,0.0,0.0,0.0,0.0,0.0,0.0,0.0,0.0,0.0,0.0,0.0,0.0,0.0,0.0,0.0,0.0,0.0,0.0,0.0,0.0,0.0,0.0,0.0,0.0,0.0,0.0,0.0,0.0,0.0,0.0,0.0,0.0,0.0,0.0,0.0,0.0,0.0,0.0,0.0,0.0,0.0,0.0,0.0,0.0,0.0,0.0,0.0,0.0,0.0,0.0,0.0,0.0,0.0,0.0,0.0,0.0,0.0,0.0,0.0,0.0,0.0,0.0,0.0,0.0,0.0,0.0,0.0,0.0,0.0,0.0,0.0,0.0,0.0,0.0,0.0,0.0,0.0,0.0,0.0,0.0,0.0,0.0,0.0,0.0,0.0,0.0,0.0,0.0,0.0,0.0,0.0,0.0,0.0,0.0,0.0,0.0,0.0,0.0,0.0,0.0,0.0,0.0,0.0,0.0,0.0,0.0,0.0,0.0,0.0,0.0,0.0,0.0,0.0,0.0,0.0,0.0,0.0,0.0,0.0,0.0,0.0,0.0,0.0,0.0,0.0,0.0,0.0,0.0,0.0,0.0,0.0,0.0,0.0,0.0,0.0,0.0,0.0,0.0,0.0,0.0,0.0,0.0,0.0,0.0,0.0,0.0,0.0,0.0,0.0,0.0,0.0,0.0,0.0,0.0,0.0,0.0,0.0,0.0,0.0,0.0,0.0,0.0,0.0,0.0,0.0,0.0,0.0,0.0,0.0,0.0,0.0,0.0,0.0,0.0,0.0,0.0,0.0,0.0,0.0,0.0,0.0,0.0,0.0,0.0,0.0,0.0,0.0,0.0,0.0,0.0,0.0,0.0,0.0,0.0,0.0,0.0,0.0,0.0,0.0,0.0,0.0,0.0,0.0,0.0,0.0,0.0,0.0,0.0,0.0,0.0,0.0,0.0,0.0,0.0,0.0,0.0,0.0,0.0,0.0,0.0,0.0,0.0,0.0,0.0,0.0,0.0,0.0,0.0,0.0,0.0,0.0,0.0,0.0,0.0,0.0,0.0,0.0,0.0,0.0,0.0,0.0,0.0,0.0,0.0,0.0,0.0,0.0,0.0,0.0,0.0,0.0,0.0,0.0,0.0,0.0,0.0,0.0,0.0,0.0,0.0,0.0,0.0,0.0,0.0,0.0,0.0,0.0,0.0,0.0,0.0,0.0,0.0,0.0,0.0,0.0,0.0,0.0,0.0,0.0,0.0,0.0,0.0,0.0,0.0,0.0,0.0,0.0,0.0,0.0,0.0,0.0,0.0,0.0,0.0,0.0,0.0,0.0,0.0,0.0,0.0,0.0,0.0,-6.0996,0.0,0.0,0.0,0.0,0.0,0.0,0.0,0.0,0.0,0.0,0.0,0.0,0.0,0.0,0.0,0.0,0.0,0.0,0.0,0.0,0.0,0.0,0.0,0.0,0.0,0.0,0.0,0.0,0.0,0.0,0.0,0.0,0.0,0.0,0.0,0.0,0.0,0.0,0.0,0.0,0.0,0.0,0.0,0.0,0.0,0.0,0.0,0.0,0.0,0.0,0.0,0.0,0.0,0.0,0.0,0.0,0.0,0.0,0.0,0.0,0.0,0.0,0.0,0.0,0.0,0.0,0.0,0.0,0.0,0.0,0.0,0.0,0.0,0.0,0.0,0.0,0.0,0.0,0.0,0.0,0.0,0.0,0.0,0.0,0.0,0.0,0.0,0.0,0.0,0.0,0.0,0.0,0.0,0.0,0.0,0.0,0.0,0.0,0.0,0.0,0.0,0.0,0.0,0.0,0.0,0.0,0.0,0.0,0.0,0.0,0.0,0.0,0.0,0.0,0.0,0.0,-6.1312,0.0,0.0,0.0,0.0,0.0,0.0,0.0,0.0,0.0,0.0,0.0,0.0,0.0,0.0,0.0,0.0,0.0,0.0,0.0,0.0,0.0,0.0,0.0,0.0,0.0,0.0,0.0,0.0,0.0,0.0,0.0,0.0,0.0,0.0,0.0,0.0,0.0,0.0,0.0,0.0,0.0,0.0,0.0,0.0,0.0,0.0,0.0,0.0,0.0,0.0,0.0,0.0,0.0,0.0,0.0,0.0,0.0,0.0,0.0,0.0,0.0,0.0,0.0,0.0,0.0,0.0,0.0,0.0,0.0,0.0,0.0,0.0,0.0,0.0,0.0,0.0,0.0,0.0,0.0,0.0,0.0,0.0,0.0,0.0,0.0,0.0,0.0,0.0,0.0,0.0,0.0,0.0,0.0,0.0,0.0,0.0,0.0,0.0,0.0,0.0,0.0,0.0,0.0,0.0,0.0,0.0,0.0,0.0,-6.2381,-6.2381,-6.2381,-6.2189,-6.2268,-6.2649,-6.203,-6.211,-6.2537,-6.2156,0.0,0.0,0.0,0.0,0.0,0.0,0.0,0.0,0.0,0.0,0.0,0.0,0.0,0.0,0.0,0.0,0.0,0.0,0.0,0.0,0.0,0.0,0.0,0.0,0.0,0.0,0.0,0.0,0.0,0.0,0.0,0.0,0.0,0.0,0.0,0.0,0.0,0.0,-5.4699,-5.4235,-5.3894,-5.3575,0.0,0.0,0.0,0.0,0.0,0.0,0.0,0.0,0.0,0.0,0.0,0.0,0.0,0.0,0.0,0.0,0.0,0.0,0.0,0.0,0.0,0.0,0.0,0.0,0.0,0.0,0.0,0.0,0.0,0.0,0.0,0.0,0.0,0.0,0.0,0.0,0.0,0.0,0.0,0.0,0.0,0.0,0.0,0.0,-5.5859,-5.6098,0.0,0.0,0.0,0.0,0.0,0.0,0.0,0.0,0.0,0.0,0.0,0.0,0.0,-6.2445,-6.1736,-6.2391,-6.2537,-6.2037,-6.2302,-6.2381,-6.2381,-6.2341,-6.2381,-6.242,-6.2341,0.0,-6.2076,-6.2037,0.0,0.0,0.0,0.0,0.0,0.0,0.0,0.0,0.0,0.0,0.0,0.0,0.0,0.0,0.0,0.0,0.0,0.0,0.0,0.0,0.0,0.0,0.0,0.0,0.0,0.0,0.0,0.0,0.0,0.0,0.0,0.0,0.0,0.0,0.0,0.0,-5.5341,-5.5715,-5.61,-5.5666,-5.5294,-5.4957,-5.462,-5.3922,-5.3041,-5.3584,0.0,0.0,0.0,0.0,0.0,0.0,0.0,0.0,0.0,0.0,0.0,0.0,0.0,0.0,0.0,0.0,0.0,0.0,0.0,0.0,0.0,0.0,0.0,0.0,0.0,0.0,0.0,0.0,0.0,0.0,0.0,0.0,0.0,0.0,0.0,0.0,0.0,0.0,0.0,-5.5858,-5.6667,-5.7514,-5.7759,-5.8239,0.0,0.0,0.0,0.0,0.0,0.0,0.0,0.0,0.0,-6.2576,-6.2464,-6.2347,-6.2104,-6.2381,-6.242,-6.2229,-6.2781,-6.3024,-6.3024,-6.3463,-6.3632,-6.3632,-6.3632,-6.3592,-6.337,-6.2373,-6.2076,-6.2263,0.0,0.0,0.0,0.0,-6.3273,-6.3576,0.0,0.0,0.0,0.0,0.0,0.0,0.0,0.0,0.0,0.0,0.0,0.0,0.0,0.0,0.0,-5.2733,0.0,0.0,0.0,0.0,0.0,0.0,0.0,0.0,0.0,0.0,0.0,0.0,-5.621,-5.6559,-5.7036,-5.6591,-5.6154,-5.57,-5.5229,-5.44,-5.3408,-5.3782,-5.3886,0.0,0.0,0.0,0.0,0.0,0.0,0.0,0.0,0.0,0.0,0.0,0.0,0.0,0.0,0.0,0.0,0.0,0.0,0.0,0.0,0.0,0.0,0.0,0.0,0.0,0.0,0.0,0.0,0.0,0.0,0.0,0.0,0.0,0.0,0.0,0.0,0.0,0.0,-5.6867,-5.7665,-5.8833,-5.9231,-5.9722,0.0,0.0,0.0,0.0,0.0,0.0,-6.2702,-6.2537,-6.2459,-6.2649,-6.2268,-6.229,-6.2685,-6.2685,-6.2787,-6.2956,-6.3531,-6.3802,-6.3802,-6.4343,-6.4613,-6.4613,-6.4613,-6.4613,-6.4512,-6.3202,-6.2882,-6.3153,-6.3035,-6.3153,-6.3426,-6.3426,-6.3767,-6.4205,0.0,0.0,0.0,0.0,0.0,0.0,0.0,0.0,0.0,0.0,0.0,0.0,0.0,0.0,-5.277,-5.3566,-5.4399,-5.4581,0.0,0.0,0.0,0.0,0.0,0.0,0.0,0.0,0.0,-5.5993,-5.6754,-5.6948,-5.6626,-5.6154,-5.5671,-5.5229,-5.4745,-5.4171,-5.3628,-5.469,-5.4793,-5.4371,0.0,0.0,0.0,0.0,0.0,0.0,0.0,0.0,0.0,0.0,0.0,0.0,0.0,0.0,0.0,0.0,0.0,0.0,0.0,0.0,0.0,0.0,0.0,0.0,0.0,0.0,0.0,0.0,0.0,0.0,0.0,0.0,0.0,0.0,0.0,0.0,0.0,0.0,0.0,-5.9674,-5.9742,0.0,0.0,0.0,0.0,-6.2279,-6.2122,-6.2003,-6.2037,-6.2268,-6.2381,-6.242,-6.2381,-6.2719,-6.3463,-6.3463,-6.3802,-6.4478,-6.4546,-6.4546,-6.4546,-6.458,-6.4613,-6.4613,-6.4613,-6.4613,-6.458,-6.4512,-6.4478,-6.4478,-6.4478,-6.4478,-6.4519,-6.4519,-6.4553,-6.4546,0.0,0.0,0.0,0.0,0.0,0.0,0.0,0.0,0.0,0.0,0.0,0.0,0.0,-5.248,-5.3603,-5.4399,-5.5631,-5.6029,-5.5233,0.0,0.0,0.0,0.0,0.0,0.0,0.0,-5.6664,-5.6407,-5.6917,-5.6829,-5.6126,-5.63,-5.5929,-5.5199,-5.5018,-5.4665,-5.4209,-5.461,-5.4695,-5.4709,-5.5623,-5.5804,0.0,0.0,0.0,0.0,0.0,0.0,0.0,0.0,0.0,0.0,0.0,0.0,0.0,0.0,0.0,0.0,0.0,0.0,0.0,0.0,0.0,0.0,0.0,0.0,0.0,0.0,0.0,0.0,0.0,0.0,0.0,0.0,0.0,0.0,0.0,0.0,0.0,-6.0326,-6.1109,0.0,-6.1666,-6.1857,-6.1998,-6.215,-6.2189,-6.2229,-6.2229,-6.2815,-6.3125,-6.3125,-6.3565,-6.3937,-6.4208,-6.4208,-6.4343,-6.4613,-6.5087,-6.529,-6.5324,-6.5797,-6.6034,-6.6034,-6.6034,-6.6034,-6.6034,-6.6034,-6.5459,-6.4613,-6.4613,-6.4613,-6.4613,-6.4613,-6.4884,-6.529,0.0,0.0,0.0,0.0,0.0,0.0,0.0,0.0,0.0,0.0,0.0,0.0,0.0,0.0,0.0,-5.487,-5.6319,-5.6862,-5.6029,0.0,0.0,0.0,0.0,0.0,0.0,-5.6935,-5.7061,-5.6776,-5.6907,-5.6617,-5.5901,-5.6042,-5.5729,-5.4957,-5.4957,-5.4946,-5.4874,-5.4874,-5.4937,-5.5136,-5.5961,-5.6116,-5.5973,0.0,0.0,0.0,0.0,0.0,0.0,0.0,0.0,0.0,0.0,0.0,0.0,0.0,0.0,0.0,0.0,0.0,0.0,0.0,0.0,0.0,0.0,0.0,0.0,0.0,0.0,0.0,0.0,0.0,0.0,0.0,0.0,0.0,0.0,0.0,-6.1172,-6.1098,-6.1998,-6.242,-6.1951,-6.2341,-6.2459,-6.2183,-6.2539,-6.2753,-6.2753,-6.3463,-6.3869,-6.3869,-6.4343,-6.4715,-6.4952,-6.5222,-6.5459,-6.573,-6.6474,-6.6846,-6.6846,-6.7354,-6.759,-6.759,-6.759,-6.759,-6.759,-6.759,-6.6846,-6.5696,-6.5459,-6.5358,-6.5358,-6.5358,-6.5662,-6.6068,0.0,0.0,0.0,0.0,0.0,0.0,0.0,0.0,0.0,0.0,0.0,0.0,0.0,0.0,0.0,0.0,0.0,0.0,-5.6066,0.0,0.0,0.0,0.0,0.0,0.0,0.0,0.0,-5.7163,-5.6812,-5.6355,-5.5872,-5.5408,-5.4926,-5.4494,-5.4529,-5.4943,-5.5598,-5.5635,-5.5669,-5.5736,-5.6658,-5.7129,-5.7251,0.0,0.0,0.0,0.0,0.0,0.0,0.0,0.0,0.0,0.0,0.0,0.0,0.0,0.0,0.0,0.0,0.0,0.0,0.0,0.0,0.0,0.0,0.0,0.0,0.0,0.0,0.0,0.0,0.0,0.0,0.0,0.0,0.0,-6.1231,-6.138,-6.1651,-6.1975,-6.2229,-6.2381,-6.2381,-6.2415,-6.2415,-6.2415,-6.3125,-6.3531,-6.3531,-6.4241,-6.4647,-6.4681,-6.4681,-6.5053,-6.5797,-6.6508,-6.7252,-6.7963,-6.8741,-6.9113,-6.9113,-6.9113,-6.9113,-6.9113,-6.9113,-6.9113,-6.9113,-6.9113,-6.8639,-6.7861,-6.7117,-6.6846,-6.6812,-6.6812,-6.6812,-6.677,0.0,0.0,0.0,0.0,0.0,0.0,0.0,0.0,0.0,0.0,0.0,0.0,0.0,0.0,0.0,0.0,0.0,0.0,0.0,0.0,0.0,0.0,0.0,0.0,0.0,0.0,0.0,0.0,0.0,-5.6182,-5.5408,-5.5259,-5.4926,-5.4529,-5.5081,-5.5426,-5.5669,-5.6805,-5.7288,-5.7288,-5.7528,-5.7419,-5.7163,0.0,0.0,0.0,0.0,0.0,0.0,0.0,0.0,0.0,0.0,0.0,0.0,0.0,0.0,0.0,0.0,0.0,0.0,0.0,0.0,0.0,0.0,0.0,0.0,0.0,0.0,0.0,0.0,0.0,0.0,0.0,0.0,-6.2063,-6.1211,-6.1699,-6.2183,-6.2268,-6.2341,-6.2381,-6.2381,-6.2888,-6.3193,-6.3193,-6.3903,-6.4309,-6.4309,-6.4986,-6.5628,-6.6203,-6.6711,-6.7354,-6.8166,-6.8368,-6.8571,-6.8774,-6.8977,-6.9113,-6.9113,-6.9113,-6.9113,-6.9113,-6.9113,-6.9113,-6.9113,-6.9113,-6.8977,-6.8707,-6.7895,-6.7286,-6.6812,-6.6812,-6.6812,-6.677,0.0,0.0,0.0,0.0,0.0,0.0,0.0,0.0,0.0,0.0,0.0,0.0,0.0,0.0,0.0,0.0,0.0,0.0,0.0,0.0,0.0,0.0,0.0,0.0,0.0,0.0,0.0,0.0,0.0,0.0,-5.5786,-5.5408,-5.5048,-5.4842,-5.5383,-5.5805,-5.6184,-5.7391,-5.8081,-5.8357,-5.8357,-5.8217,-5.8002,-5.8303,-5.8159,-5.7739,-5.7615,-5.7475,-5.7346,-5.6924,0.0,0.0,0.0,0.0,0.0,0.0,0.0,0.0,0.0,0.0,0.0,0.0,0.0,0.0,0.0,0.0,0.0,0.0,0.0,0.0,0.0,0.0,0.0,0.0,-6.2387,-6.2363,-6.1689,-6.2032,-6.2381,-6.2381,-6.2381,-6.2516,-6.2821,-6.326,-6.3632,-6.3937,-6.4647,-6.5053,-6.5053,-6.6034,-6.6812,-6.7252,-6.7996,-6.8639,-6.9113,-6.9417,-6.9553,-6.9553,-6.9891,-7.0026,-7.0026,-7.0026,-7.0026,-7.0026,-7.0026,-7.0026,-7.0026,-7.0026,-6.9857,0.0,0.0,0.0,0.0,0.0,-6.776,-6.7726,0.0,0.0,0.0,0.0,0.0,0.0,0.0,0.0,0.0,0.0,0.0,0.0,0.0,0.0,0.0,0.0,0.0,0.0,0.0,0.0,0.0,0.0,0.0,0.0,0.0,0.0,0.0,0.0,0.0,0.0,0.0,-5.5642,-5.5229,-5.5294,-5.5611,-5.6182,-5.6938,-5.7701,-5.8392,-5.9012,-5.9012,-5.9115,-5.9216,-5.8558,-5.838,-5.8372,-5.7746,-5.7503,-5.7468,-5.7431,0.0,0.0,0.0,0.0,0.0,0.0,0.0,0.0,0.0,0.0,0.0,0.0,0.0,0.0,0.0,0.0,0.0,0.0,0.0,0.0,0.0,0.0,0.0,0.0,-6.2537,-6.2381,-6.2381,-6.2448,-6.2482,-6.2415,-6.2448,-6.2787,-6.3463,-6.3666,-6.4038,-6.4681,-6.5392,-6.5865,-6.5933,0.0,0.0,0.0,0.0,-6.9248,-6.935,-7.006,-7.0432,-7.0432,-7.121,-7.1548,-7.1548,-7.1481,-7.1447,-7.1447,-7.1345,-7.1312,-7.1312,-7.1312,-7.0906,-7.0273,-6.9417,-6.9113,-6.9113,-6.9113,-6.9113,-6.9055,0.0,0.0,0.0,0.0,0.0,0.0,0.0,0.0,0.0,0.0,0.0,0.0,0.0,0.0,0.0,0.0,0.0,0.0,0.0,0.0,0.0,0.0,0.0,0.0,0.0,0.0,0.0,0.0,0.0,0.0,0.0,0.0,-5.5408,-5.5799,-5.6359,-5.6861,-5.7422,-5.8387,-5.8875,-5.9012,-5.9012,-5.9012,-5.9047,-5.8909,-5.8874,-5.8873,-5.8735,-5.8666,-5.8597,-5.8175,-5.8416,-5.8831,-5.8337,0.0,0.0,0.0,0.0,0.0,0.0,0.0,0.0,0.0,0.0,0.0,0.0,0.0,0.0,0.0,0.0,0.0,0.0,0.0,0.0,-6.2731,-6.2537,-6.2381,-6.2381,-6.2922,-6.3057,-6.2448,-6.2922,-6.3362,-6.3497,-6.458,-6.5324,-6.5459,-6.617,-6.6846,-6.7421,-6.7726,-6.847,-6.9722,-6.9891,-7.0263,-7.0872,-7.1616,-7.1954,-7.1988,0.0,0.0,-7.3037,-7.2462,-7.2191,-7.2157,-7.1582,-7.1312,-7.1312,-7.1312,-7.13,-7.1172,-6.9708,-6.9113,-6.9113,-6.9113,-6.9113,-6.9079,0.0,0.0,0.0,0.0,0.0,0.0,0.0,0.0,0.0,0.0,0.0,0.0,0.0,0.0,0.0,0.0,0.0,0.0,0.0,0.0,0.0,0.0,0.0,0.0,0.0,0.0,0.0,0.0,0.0,0.0,0.0,0.0,0.0,-5.5914,-5.653,-5.6902,-5.7233,-5.8458,-5.9149,-5.9385,-5.9115,-5.9183,-5.9385,-5.9115,-5.9012,-5.9012,-5.9012,-5.9012,-5.8944,-5.87,-5.8872,-5.9149,-5.9285,-5.9872,-6.0495,0.0,0.0,0.0,0.0,0.0,0.0,0.0,0.0,0.0,0.0,0.0,0.0,0.0,0.0,-6.2967,0.0,0.0,-6.2808,-6.2727,-6.2537,-6.2555,-6.3046,-6.3419,-6.3481,-6.299,-6.3599,-6.4208,-6.458,-6.5256,-6.5831,-6.6203,-6.6948,-6.7523,-6.7895,-6.8639,-6.9383,-7.0161,-7.0906,-7.1481,-7.1853,-7.2563,-7.2935,-7.2935,-7.3308,-7.3477,-7.3477,-7.3105,-7.2935,-7.2935,-7.2563,-7.2474,-7.261,-7.2745,-7.2642,-7.2287,-7.1406,-7.0808,-7.0338,-7.0503,-7.0459,-7.0347,0.0,0.0,0.0,0.0,0.0,0.0,0.0,0.0,0.0,0.0,0.0,0.0,0.0,0.0,0.0,0.0,0.0,0.0,0.0,0.0,0.0,0.0,0.0,0.0,0.0,0.0,0.0,0.0,0.0,0.0,0.0,0.0,0.0,-5.6057,-5.6687,-5.6969,-5.7006,-5.8426,-5.9318,-5.9746,-5.9351,-5.945,-5.9876,-5.945,-5.9216,-5.9149,-5.9047,-5.9081,-5.9149,-5.9047,-5.9116,-5.9357,-6.0013,-6.0497,-6.0774,-6.0702,-6.1362,0.0,0.0,0.0,0.0,0.0,0.0,0.0,0.0,0.0,-6.2703,-6.2703,-6.3076,-6.334,-6.3302,-6.3,-6.2799,-6.2935,-6.278,-6.3012,-6.3956,-6.4234,-6.4257,-6.4057,-6.46,-6.5176,-6.5711,-6.605,-6.6414,-6.6981,-6.7734,-6.8242,-6.8335,-6.9606,-7.0419,-7.0601,-7.183,-7.2507,-7.2597,-7.3341,-7.3713,-7.3713,-7.3849,-7.3916,-7.3916,-7.3828,-7.3806,-7.3806,-7.3683,-7.3787,-7.3969,-7.4229,-7.3943,-7.3406,-7.3406,-7.2898,-7.2185,-7.2044,-7.1854,-7.1664,0.0,0.0,0.0,0.0,0.0,0.0,0.0,0.0,0.0,0.0,0.0,0.0,0.0,0.0,0.0,0.0,0.0,0.0,0.0,0.0,0.0,0.0,0.0,0.0,0.0,0.0,0.0,0.0,0.0,0.0,0.0,0.0,0.0,0.0,-5.7143,-5.7412,-5.7485,-5.8559,-5.9318,-5.9779,-5.9714,-6.0005,-6.041,-6.0348,-6.0065,-5.9648,-5.9183,-5.9318,-5.9615,-5.9183,-5.9461,-6.0082,-6.0185,-6.1152,-6.2052,-6.1016,0.0,-6.2579,-6.1215,-6.1222,-6.1709,-6.2258,-6.2358,-6.253,0.0,0.0,-6.3462,-6.3462,-6.3531,-6.3526,-6.334,-6.3114,-6.3167,-6.3815,-6.3796,-6.399,-6.4976,-6.5733,-6.6103,-6.6063,-6.6131,-6.6119,-6.5984,-6.7207,-6.7938,-6.776,-6.8685,-6.9431,-6.9935,-7.0488,-7.1246,-7.2124,-7.2474,-7.2926,-7.3341,-7.4119,-7.4492,-7.4492,-7.5134,-7.5439,-7.5439,-7.4996,-7.4818,-7.483,-7.4412,-7.4229,-7.4274,-7.4319,-7.434,-7.4415,-7.4415,-7.4381,-7.4096,-7.2585,-7.1985,-7.1942,0.0,0.0,0.0,0.0,0.0,0.0,0.0,0.0,0.0,0.0,0.0,0.0,0.0,0.0,0.0,0.0,0.0,0.0,0.0,0.0,0.0,0.0,0.0,0.0,0.0,0.0,0.0,0.0,0.0,0.0,0.0,0.0,0.0,0.0,0.0,-5.7902,-5.8008,-5.9303,-6.016,-6.063,-6.0036,-6.029,-6.0903,-6.0321,-6.0352,-6.06,-5.9972,-5.9876,0.0,0.0,-5.9838,-6.0531,-6.0773,-6.136,-6.1985,-6.2023,-6.251,0.0,-6.2753,-6.2439,0.0,0.0,-6.3117,-6.322,-6.3531,-6.36,-6.36,-6.36,-6.3526,-6.3452,-6.3452,-6.357,-6.3756,0.0,-6.4469,-6.501,-6.5999,-6.6376,-6.6793,-6.7324,-6.7811,-6.7924,-6.7523,-6.8103,-6.8607,-6.8965,-6.98,-7.0379,-7.0633,-7.1625,-7.2287,-7.2587,-7.3697,-7.423,-7.4153,-7.5179,-7.5646,-7.5459,-7.5952,-7.6135,-7.6135,-7.5968,-7.5878,-7.5844,-7.5812,-7.5766,-7.5766,-7.5901,-7.5795,-7.5461,-7.5461,-7.5185,-7.4703,-7.3963,-7.3591,-7.3538,0.0,0.0,0.0,0.0,0.0,0.0,0.0,0.0,0.0,0.0,0.0,0.0,0.0,0.0,0.0,0.0,0.0,0.0,0.0,0.0,0.0,0.0,0.0,0.0,0.0,0.0,0.0,0.0,0.0,0.0,0.0,0.0,0.0,0.0,0.0,-5.8107,-5.8302,-5.9618,-6.0629,-6.1263,-6.0508,-6.0722,-6.1408,-6.0691,-6.0843,-6.1379,-6.0605,-6.0352,0.0,0.0,-6.0173,-6.0838,-6.1155,-6.1641,-6.2162,-6.2683,-6.2927,-6.3206,-6.3864,0.0,0.0,-6.3535,-6.36,-6.36,-6.36,-6.36,-6.36,-6.36,-6.3661,-6.3724,-6.3873,-6.4267,0.0,-6.5023,-6.5421,-6.6034,-6.6951,-6.7089,-6.7409,-6.8325,-6.8946,-6.9307,-6.9399,-6.9343,-6.9541,-7.008,-7.0875,-7.1345,-7.1507,-7.2629,-7.3328,-7.3424,-7.4787,-7.5378,-7.5119,-7.6036,-7.6402,-7.6216,-7.6402,-7.6495,-7.6495,-7.6587,-7.6633,-7.6725,-7.6828,-7.6918,-7.6918,-7.7133,-7.6913,-7.643,-7.643,-7.6041,-7.5524,-7.5524,-7.516,-7.4728,0.0,0.0,0.0,0.0,0.0,0.0,0.0,0.0,0.0,0.0,0.0,0.0,0.0,0.0,0.0,0.0,0.0,0.0,0.0,0.0,0.0,0.0,0.0,0.0,0.0,0.0,0.0,0.0,0.0,0.0,0.0,0.0,0.0,0.0,0.0,0.0,-5.8237,-5.9016,-6.0101,-6.1321,-6.1292,-6.1551,-6.1978,-6.195,-6.195,-6.184,-6.0691,0.0,0.0,0.0,-6.0469,-6.1035,-6.1167,-6.2152,0.0,-6.2569,-6.2817,0.0,0.0,0.0,-6.382,-6.3637,-6.36,-6.36,-6.36,-6.36,-6.36,-6.36,-6.4152,-6.4669,-6.4669,-6.5172,-6.5852,-6.6768,-6.675,-6.6986,-6.794,-6.8049,-6.8359,-6.9153,-6.9296,-6.9842,0.0,-7.1255,-7.1037,-7.0858,-7.1756,-7.2476,-7.2976,-7.3516,-7.4247,-7.5276,-7.556,-7.5937,-7.6461,-7.6495,-7.6495,-7.6495,-7.6495,-7.6495,-7.6495,-7.6691,-7.6918,-7.7178,-7.7178,-7.7178,-7.7178,-7.7178,-7.7223,-7.7189,-7.7189,-7.7154,-7.7154,-7.7154,-7.6179,-7.4903,0.0,0.0,0.0,0.0,0.0,0.0,0.0,0.0,0.0,0.0,0.0,0.0,0.0,0.0,0.0,0.0,0.0,0.0,0.0,0.0,0.0,0.0,0.0,0.0,0.0,0.0,0.0,0.0,0.0,0.0,0.0,0.0,0.0,0.0,0.0,0.0,0.0,-5.9977,-6.0888,-6.1756,-6.1437,-6.1579,-6.195,-6.1636,-6.1756,-6.1923,0.0,0.0,0.0,0.0,0.0,0.0,-6.186,0.0,0.0,-6.2957,-6.3552,-6.4218,0.0,0.0,-6.382,-6.3637,-6.36,-6.36,-6.36,-6.36,-6.3738,-6.422,-6.4531,-6.4841,-6.5393,-6.6079,-6.6626,-6.6945,-6.7354,-6.7729,-6.8049,-6.8566,-6.898,-6.9296,-7.0153,0.0,0.0,0.0,0.0,-7.2046,-7.2854,-7.337,-7.3559,-7.4688,-7.5436,-7.5605,-7.63,-7.6633,-7.6495,-7.6816,-7.6907,-7.6691,-7.6907,-7.6953,-7.6953,-7.7009,-7.7099,-7.7223,-7.7223,-7.7223,-7.7223,-7.7223,-7.7223,-7.7223,-7.7223,-7.7223,-7.7223,-7.7223,-7.6834,-7.642,0.0,0.0,0.0,0.0,0.0,0.0,0.0,0.0,0.0,0.0,0.0,0.0,0.0,0.0,0.0,0.0,0.0,0.0,0.0,0.0,0.0,0.0,0.0,0.0,0.0,0.0,0.0,0.0,0.0,0.0,0.0,0.0,0.0,0.0,0.0,0.0,0.0,0.0,-6.0846,-6.158,-6.1556,-6.1756,-6.195,-6.1636,-6.1756,0.0,0.0,0.0,0.0,0.0,0.0,0.0,0.0,-6.2682,-6.3084,-6.3757,-6.4182,-6.4358,0.0,-6.3892,-6.3747,-6.3637,-6.36,-6.36,-6.36,-6.3807,-6.4117,-6.46,-6.5152,-6.5669,-6.6186,-6.6876,-6.7394,-6.7394,-6.7773,-6.8187,-6.8463,-6.8946,-6.9497,-7.0015,-7.0912,0.0,0.0,0.0,0.0,-7.3058,-7.3498,-7.4016,-7.4602,-7.5568,-7.6134,-7.6242,-7.6858,-7.7043,-7.6771,-7.7043,-7.7099,-7.6964,-7.7133,-7.7223,-7.7223,-7.7223,-7.7223,-7.7223,-7.7223,-7.7223,-7.7223,-7.7223,-7.7223,-7.7223,-7.7223,-7.7223,-7.7223,-7.7223,-7.7223,-7.7223,0.0,0.0,0.0,0.0,0.0,0.0,0.0,0.0,0.0,0.0,0.0,0.0,0.0,0.0,0.0,0.0,0.0,0.0,0.0,0.0,0.0,0.0,0.0,0.0,0.0,0.0,0.0,0.0,0.0,0.0,0.0,0.0,0.0,0.0,0.0,0.0,0.0,0.0,0.0,0.0,-6.1616,-6.1942,-6.1942,-6.1978,0.0,0.0,0.0,0.0,0.0,0.0,0.0,0.0,0.0,0.0,-6.4155,-6.4933,-6.4568,-6.3929,-6.4074,-6.3858,-6.36,-6.36,-6.36,-6.36,-6.3634,-6.4186,-6.4703,-6.4807,-6.5979,-6.7014,0.0,0.0,-6.8083,-6.8083,-6.8083,-6.8359,-6.9193,-6.9325,-6.9877,0.0,0.0,0.0,0.0,0.0,0.0,-7.3878,0.0,-7.4568,-7.6051,-7.6154,-7.6499,-7.7189,-7.7223,-7.7223,-7.7223,-7.7223,-7.7223,-7.7223,-7.7223,-7.7223,-7.7223,-7.7223,-7.7223,-7.7223,-7.7223,-7.7223,-7.7223,-7.7223,-7.7223,-7.7223,-7.7223,-7.7223,-7.7223,-7.7223,-7.7223,-7.7223,0.0,0.0,0.0,0.0,0.0,0.0,0.0,0.0,0.0,0.0,0.0,0.0,0.0,0.0,0.0,0.0,0.0,0.0,0.0,0.0,0.0,0.0,0.0,0.0,0.0,0.0,0.0,0.0,0.0,0.0,0.0,0.0,0.0,0.0,0.0,0.0,0.0,0.0,0.0,0.0,0.0,-6.1109,-6.1172,0.0,0.0,0.0,0.0,0.0,0.0,0.0,0.0,0.0,0.0,0.0,-6.4459,-6.4288,0.0,-6.4002,-6.3785,-6.3673,-6.36,-6.36,-6.36,-6.3738,-6.4289,-6.4565,-6.5014,-6.6186,-6.6738,-6.7152,0.0,0.0,0.0,-6.8083,-6.8083,0.0,-6.9193,-6.9739,0.0,0.0,0.0,-7.2671,-7.3429,-7.3671,0.0,0.0,-7.5533,-7.5706,-7.6085,-7.6637,-7.7016,-7.7178,-7.7223,-7.7223,-7.7223,-7.7223,-7.7223,-7.7223,-7.7223,-7.7223,-7.7223,-7.7223,-7.7223,-7.7223,-7.7223,-7.7223,-7.7223,-7.7223,-7.7223,-7.7223,-7.7223,-7.7223,-7.7223,-7.7223,-7.7223,-7.7223,0.0,0.0,0.0,0.0,0.0,0.0,0.0,0.0,0.0,0.0,0.0,0.0,0.0,0.0,0.0,0.0,0.0,0.0,0.0,0.0,0.0,0.0,0.0,0.0,0.0,0.0,0.0,0.0,0.0,0.0,0.0,0.0,0.0,0.0,0.0,0.0,0.0,0.0,0.0,0.0,0.0,0.0,0.0,0.0,0.0,0.0,0.0,0.0,0.0,0.0,0.0,-6.4016,-6.3728,-6.4079,-6.4498,-6.4074,0.0,-6.3858,-6.3673,-6.36,-6.36,-6.36,-6.3841,-6.4186,-6.46,-6.5221,-6.5945,-6.6807,-6.7256,0.0,0.0,0.0,0.0,0.0,0.0,0.0,-6.9601,-7.0118,-7.0774,0.0,-7.2437,0.0,-7.3705,-7.4085,-7.4809,0.0,-7.612,-7.6258,-7.6568,-7.7016,-7.7223,-7.7223,-7.7223,-7.7223,-7.7223,-7.7223,-7.7223,-7.7223,-7.7223,-7.7223,-7.7223,-7.7223,-7.7223,-7.7223,0.0,-7.7223,-7.7223,-7.7223,-7.7223,-7.7223,-7.7223,-7.7223,-7.7223,-7.7223,-7.7223,-7.7223,0.0,0.0,0.0,0.0,0.0,0.0,0.0,0.0,0.0,0.0,0.0,0.0,0.0,0.0,0.0,0.0,0.0,0.0,0.0,0.0,0.0,0.0,0.0,0.0,0.0,0.0,0.0,0.0,0.0,0.0,0.0,0.0,0.0,0.0,0.0,0.0,0.0,0.0,0.0,0.0,0.0,0.0,0.0,0.0,0.0,0.0,0.0,0.0,0.0,0.0,-6.3251,-6.3896,-6.4008,-6.4146,-6.4252,-6.4075,-6.3821,-6.36,-6.36,-6.36,-6.36,-6.36,-6.4152,-6.4738,-6.4916,-6.6021,-6.713,-6.7234,0.0,0.0,-6.8123,0.0,-6.8123,-6.8083,0.0,-6.8635,-7.0153,-7.0394,-7.0946,-7.254,-7.2713,-7.3015,-7.3843,-7.4533,-7.5248,-7.6189,-7.6258,-7.6533,-7.7189,-7.7223,-7.7223,-7.7223,-7.7223,-7.7223,-7.7223,-7.7223,-7.7223,-7.7223,-7.7223,-7.7223,-7.7223,-7.7223,-7.7223,-7.7223,-7.7223,-7.7223,-7.7223,-7.7223,-7.7223,-7.7223,-7.7223,-7.7223,-7.7223,-7.7223,-7.7223,-7.7223,0.0,0.0,0.0,0.0,0.0,0.0,0.0,0.0,0.0,0.0,-5.2116,-5.2622,0.0,0.0,0.0,0.0,0.0,0.0,0.0,0.0,0.0,0.0,0.0,0.0,0.0,0.0,0.0,0.0,0.0,0.0,0.0,0.0,0.0,0.0,0.0,0.0,0.0,0.0,0.0,0.0,0.0,0.0,0.0,0.0,0.0,0.0,0.0,0.0,0.0,0.0,-6.37,-6.4218,-6.3823,-6.3712,-6.3712,-6.371,-6.3673,-6.36,-6.36,-6.36,-6.36,-6.36,-6.4152,-6.4988,-6.5947,-6.689,0.0,0.0,0.0,-6.8743,-6.8397,-6.8358,0.0,-6.8123,0.0,0.0,0.0,0.0,-7.0946,0.0,0.0,0.0,0.0,0.0,0.0,0.0,0.0,-7.7085,-7.7178,-7.7223,-7.7223,-7.7223,-7.7223,-7.7223,-7.7223,-7.7223,-7.7223,-7.7223,-7.7223,-7.7223,-7.7223,-7.7223,-7.7223,-7.7223,-7.7223,0.0,-7.7223,-7.7223,-7.7223,-7.7223,-7.7223,-7.7223,-7.7223,-7.7223,-7.7223,-7.7223,0.0,0.0,0.0,0.0,0.0,0.0,0.0,-5.0116,-5.0413,-5.1305,-5.1677,-5.2082,-5.2799,-5.3259,0.0,0.0,0.0,0.0,0.0,0.0,0.0,0.0,0.0,0.0,0.0,0.0,0.0,0.0,0.0,0.0,0.0,0.0,0.0,0.0,0.0,0.0,0.0,0.0,0.0,0.0,0.0,0.0,0.0,0.0,0.0,0.0,0.0,0.0,0.0,0.0,-6.397,-6.4636,-6.4498,-6.4074,-6.3639,-6.393,-6.3821,-6.36,-6.36,-6.36,-6.3669,-6.4083,-6.4738,-6.561,-6.6786,0.0,0.0,0.0,0.0,-6.9083,-6.8781,0.0,0.0,0.0,0.0,0.0,0.0,0.0,0.0,0.0,0.0,0.0,0.0,0.0,0.0,0.0,0.0,-7.7223,-7.7223,-7.7223,-7.7223,-7.7223,-7.7223,-7.7223,-7.7223,-7.7223,-7.7223,-7.7223,-7.7223,-7.7223,-7.7223,-7.7223,-7.7223,-7.7223,-7.7223,-7.7223,-7.7223,-7.7223,-7.7223,-7.7223,-7.7223,-7.7223,-7.7223,-7.7223,-7.7223,-7.7223,0.0,0.0,0.0,0.0,0.0,0.0,0.0,-4.9447,-4.9893,-5.1231,-5.1565,-5.1844,-5.2303,-5.308,-5.3481,0.0,0.0,0.0,0.0,0.0,0.0,0.0,0.0,0.0,0.0,0.0,0.0,0.0,0.0,0.0,0.0,0.0,0.0,0.0,0.0,0.0,0.0,0.0,0.0,0.0,0.0,0.0,0.0,0.0,0.0,0.0,0.0,0.0,0.0,0.0,-6.4088,-6.4798,-6.5273,-6.474,-6.3966,-6.4393,-6.4111,-6.3747,-6.3749,-6.371,-6.3772,-6.4531,-6.529,-6.6236,-6.7454,-6.8299,0.0,0.0,0.0,-6.9416,-6.9194,0.0,0.0,0.0,0.0,0.0,0.0,0.0,0.0,0.0,0.0,0.0,0.0,0.0,0.0,0.0,0.0,0.0,-7.7223,-7.7223,-7.7223,-7.7223,-7.7223,-7.7223,-7.7223,-7.7223,-7.7223,-7.7223,-7.7223,-7.7223,-7.7223,-7.7223,-7.7223,-7.7223,-7.7223,-7.7223,-7.7223,-7.7223,-7.7223,-7.7223,-7.7223,-7.7223,-7.7223,-7.7223,-7.7223,-7.7223,0.0,0.0,0.0,0.0,0.0,0.0,0.0,-5.1156,-5.1231,-5.1379,-5.2048,-5.2531,-5.2587,-5.3273,-5.3756,0.0,0.0,0.0,0.0,0.0,0.0,0.0,0.0,0.0,0.0,0.0,0.0,0.0,0.0,0.0,0.0,0.0,0.0,0.0,0.0,0.0,0.0,0.0,0.0,0.0,0.0,0.0,0.0,0.0,0.0,0.0,0.0,0.0,0.0,0.0,0.0,-6.4424,-6.5775,-6.5539,-6.4773,-6.4841,0.0,0.0,-6.4252,-6.3966,-6.3772,-6.4531,-6.529,-6.6277,-6.7824,0.0,0.0,0.0,-7.0132,-7.0026,-6.9598,-6.9561,0.0,0.0,0.0,0.0,0.0,0.0,0.0,0.0,0.0,0.0,0.0,0.0,0.0,0.0,0.0,0.0,-7.7223,-7.7223,-7.7223,-7.7223,-7.7223,-7.7223,-7.7223,-7.7223,-7.7223,-7.7223,-7.7223,-7.7223,-7.7223,-7.7223,-7.7223,-7.7223,-7.7223,-7.7223,0.0,-7.7223,-7.7223,-7.7223,-7.7223,-7.7223,-7.7223,-7.7223,-7.7223,-7.7223,0.0,0.0,0.0,0.0,0.0,0.0,-5.1342,-5.1416,-5.1565,-5.2048,-5.2419,-5.2791,-5.3274,-5.3608,-5.3794,0.0,0.0,0.0,0.0,0.0,0.0,0.0,0.0,0.0,0.0,0.0,0.0,0.0,0.0,0.0,0.0,0.0,0.0,0.0,0.0,0.0,0.0,0.0,0.0,0.0,0.0,0.0,0.0,0.0,0.0,0.0,0.0,0.0,0.0,0.0,0.0,0.0,-6.5712,-6.58,0.0,0.0,-6.4773,-6.4217,-6.474,-6.4601,-6.4502,-6.5634,-6.651,-6.7422,-6.86,0.0,0.0,-7.0306,-7.0375,-7.0272,-7.0026,-7.0452,-7.0878,0.0,0.0,0.0,0.0,0.0,0.0,0.0,0.0,0.0,0.0,0.0,0.0,0.0,0.0,0.0,-7.7223,-7.7223,-7.7223,-7.7223,-7.7223,-7.7223,-7.7223,-7.7223,-7.7223,-7.7223,-7.7223,-7.7223,-7.7223,-7.7223,-7.7223,-7.7223,-7.7223,-7.7223,0.0,-7.7223,-7.7223,-7.7223,-7.7223,-7.7223,-7.7223,-7.7223,-7.7223,-7.7223,0.0,0.0,0.0,0.0,0.0,-5.1916,-5.214,-5.2177,-5.2345,-5.2902,-5.294,-5.3162,-5.3757,-5.3794,-5.3794,-5.3794,0.0,0.0,0.0,0.0,0.0,0.0,0.0,0.0,0.0,0.0,-5.6249,-5.6355,-5.7084,0.0,0.0,0.0,0.0,0.0,0.0,0.0,0.0,0.0,0.0,0.0,0.0,0.0,0.0,0.0,0.0,0.0,0.0,0.0,0.0,0.0,0.0,0.0,0.0,0.0,0.0,0.0,-6.5209,-6.4671,-6.5278,-6.5301,-6.5433,-6.6453,-6.7368,-6.8284,0.0,0.0,0.0,-7.0445,-7.0514,-7.048,-7.0306,-7.1087,-7.1693,0.0,0.0,0.0,0.0,0.0,0.0,0.0,0.0,0.0,0.0,0.0,0.0,0.0,0.0,0.0,-7.7223,-7.7223,-7.7223,-7.7223,-7.7223,-7.7223,-7.7223,-7.7223,-7.7223,-7.7223,-7.7223,-7.7223,-7.7223,-7.7223,-7.7223,-7.7223,-7.7223,-7.7223,0.0,-7.7223,-7.7223,-7.7223,-7.7223,-7.7223,-7.7223,-7.7223,-7.7223,-7.7223,0.0,0.0,0.0,0.0,0.0,0.0,-5.3851,-5.3982,-5.3944,-5.3794,-5.3794,-5.3794,-5.3794,-5.3794,-5.3794,-5.3794,0.0,0.0,0.0,0.0,0.0,0.0,0.0,0.0,0.0,0.0,-5.6539,-5.7188,-5.7338,-5.7313,-5.7188,0.0,0.0,0.0,0.0,0.0,0.0,0.0,0.0,0.0,0.0,0.0,0.0,0.0,0.0,0.0,0.0,0.0,0.0,0.0,0.0,0.0,0.0,0.0,0.0,0.0,-6.5927,-6.5539,-6.5891,-6.6174,-6.6421,-6.667,-6.755,-6.8575,0.0,0.0,0.0,-7.0445,-7.0514,-7.0514,-7.0514,-7.1156,-7.1942,-7.2655,0.0,0.0,0.0,0.0,0.0,0.0,0.0,0.0,0.0,0.0,0.0,0.0,0.0,0.0,-7.7223,-7.7223,-7.7223,-7.7223,-7.7223,-7.7223,-7.7223,-7.7223,-7.7223,-7.7223,-7.7223,-7.7223,-7.7223,-7.7223,-7.7223,-7.7223,-7.7223,-7.7223,0.0,-7.7223,-7.7223,-7.7223,-7.7223,-7.7223,-7.7223,-7.7223,-7.7223,-7.7223,0.0,0.0,0.0,0.0,0.0,0.0,0.0,-5.4055,-5.4055,-5.3944,-5.3944,-5.3907,-5.3794,-5.3794,-5.3794,-5.3794,0.0,0.0,0.0,0.0,0.0,0.0,0.0,0.0,0.0,0.0,-5.6418,-5.6355,-5.7158,-5.7412,-5.7188,-5.7188,-5.7188,0.0,0.0,0.0,0.0,0.0,0.0,0.0,0.0,0.0,0.0,0.0,0.0,0.0,0.0,0.0,0.0,0.0,0.0,0.0,0.0,0.0,0.0,0.0,0.0,0.0,-6.6702,-6.6894,-6.7024,-6.8011,-6.8964,-6.9672,-6.9706,0.0,-7.0514,-7.0514,-7.0514,-7.0514,-7.0514,-7.1585,-7.2548,-7.2938,-7.4154,0.0,0.0,0.0,0.0,0.0,0.0,0.0,0.0,0.0,0.0,0.0,0.0,0.0,-7.7223,-7.7223,-7.7223,-7.7223,-7.7223,-7.7223,-7.7223,-7.7223,-7.7223,-7.7223,-7.7223,-7.7223,-7.7223,-7.7223,-7.7223,-7.7223,-7.7223,-7.7223,-7.7223,-7.7223,-7.7223,-7.7223,-7.7223,-7.7223,-7.7223,-7.7223,-7.7223,-7.7223,0.0,0.0,0.0,0.0,0.0,0.0,0.0,-5.4127,-5.4073,-5.4,-5.3963,-5.3907,-5.3794,-5.3793,-5.3774,-5.3774,0.0,0.0,0.0,0.0,0.0,0.0,0.0,0.0,0.0,-5.6716,-5.6877,-5.6576,-5.7207,-5.7437,-5.7264,-5.7264,-5.7239,-5.7188,-5.7239,0.0,0.0,0.0,0.0,0.0,0.0,0.0,-6.0892,0.0,0.0,0.0,0.0,0.0,0.0,0.0,0.0,0.0,0.0,0.0,0.0,0.0,-6.599,0.0,0.0,-6.7615,-6.7864,-6.8781,-6.9737,0.0,0.0,0.0,-7.065,-7.0548,-7.0514,-7.0514,-7.0514,-7.1763,-7.2833,-7.2939,-7.4439,0.0,0.0,0.0,0.0,0.0,0.0,0.0,0.0,0.0,0.0,0.0,0.0,0.0,-7.7223,-7.7223,-7.7223,-7.7223,-7.7223,-7.7223,-7.7223,-7.7223,-7.7223,-7.7223,-7.7223,-7.7223,-7.7223,-7.7223,-7.7223,-7.7223,-7.7223,-7.7223,0.0,-7.7223,-7.7223,-7.7223,-7.7223,-7.7223,-7.7223,-7.7223,-7.7223,-7.7223,0.0,0.0,0.0,0.0,0.0,0.0,0.0,-5.42,-5.4073,-5.4,-5.3907,-5.3794,-5.3775,-5.3809,-5.3768,-5.3768,0.0,0.0,0.0,0.0,0.0,0.0,0.0,0.0,-5.7774,-5.7715,-5.7607,-5.7583,-5.7461,-5.7388,-5.7388,-5.7388,-5.7313,-5.7188,-5.7338,-5.735,-5.7333,-5.8094,-5.8456,-5.8709,-6.0194,-6.0846,0.0,0.0,0.0,0.0,0.0,0.0,0.0,0.0,0.0,0.0,0.0,0.0,0.0,0.0,0.0,0.0,0.0,0.0,0.0,0.0,0.0,0.0,0.0,0.0,0.0,-7.0514,-7.0514,-7.0514,-7.0514,-7.1763,-7.2798,-7.2833,-7.4475,0.0,0.0,0.0,0.0,0.0,0.0,0.0,0.0,0.0,0.0,0.0,0.0,0.0,-7.7223,-7.7223,-7.7223,-7.7223,-7.7223,-7.7223,-7.7223,-7.7223,-7.7223,-7.7223,-7.7223,-7.7223,-7.7223,-7.7223,-7.7223,0.0,-7.7223,-7.7223,-7.7223,-7.7223,-7.7223,-7.7223,-7.7223,-7.7223,-7.7223,-7.7223,-7.7223,-7.7223,0.0,0.0,0.0,0.0,0.0,0.0,0.0,0.0,0.0,0.0,-5.3963,-5.3888,-5.3716,-5.4269,-5.46,0.0,0.0,0.0,0.0,0.0,0.0,0.0,0.0,0.0,-5.781,-5.7881,-5.781,-5.7583,-5.7559,-5.7486,-5.7388,-5.7388,-5.7313,-5.7188,-5.7338,-5.7676,-5.813,-5.8311,-5.9108,-6.0267,-6.0665,-6.1172,0.0,0.0,0.0,0.0,-6.1756,-6.1644,0.0,0.0,0.0,0.0,0.0,0.0,0.0,0.0,-6.6884,-6.7564,-6.8394,0.0,-6.8744,-6.9872,-7.0371,-7.0548,0.0,0.0,0.0,0.0,0.0,0.0,0.0,-7.1763,0.0,0.0,0.0,0.0,0.0,0.0,0.0,0.0,0.0,0.0,0.0,0.0,0.0,0.0,0.0,-7.7223,-7.7223,-7.7223,-7.7223,-7.7223,-7.7223,-7.7223,-7.7223,-7.7223,-7.7223,-7.7223,-7.7223,-7.7223,-7.7223,-7.7223,-7.7223,-7.7223,-7.7223,-7.7223,-7.7223,-7.7223,-7.7223,-7.7223,-7.7223,-7.7223,-7.7223,-7.7223,-7.7223,-7.7223,0.0,0.0,0.0,0.0,0.0,0.0,0.0,0.0,0.0,0.0,0.0,0.0,0.0,0.0,0.0,0.0,0.0,0.0,0.0,0.0,0.0,0.0,0.0,-5.7973,-5.7904,-5.7904,-5.7857,-5.7679,-5.7559,-5.7486,-5.7486,-5.7412,-5.7363,-5.7289,-5.7289,-5.7735,-5.842,-5.8782,-5.9687,-6.0846,-6.1181,0.0,0.0,0.0,0.0,0.0,-6.1784,-6.1952,0.0,-6.35,-6.4207,-6.4806,0.0,0.0,0.0,0.0,-6.718,-6.7975,-6.8713,-6.893,-6.9212,-7.0364,-7.0582,-7.0514,0.0,0.0,0.0,0.0,0.0,0.0,0.0,0.0,0.0,0.0,0.0,0.0,0.0,0.0,0.0,0.0,0.0,0.0,0.0,0.0,0.0,0.0,0.0,-7.7223,-7.7223,-7.7223,-7.7223,-7.7223,-7.7223,-7.7223,-7.7223,-7.7223,-7.7223,-7.7223,-7.7223,-7.7223,-7.7223,-7.7223,-7.7223,-7.7223,-7.7223,-7.7223,-7.7223,-7.7223,-7.7223,-7.7223,-7.7223,-7.7223,-7.7223,-7.7223,-7.7223,-7.7223,0.0,0.0,0.0,0.0,0.0,0.0,0.0,0.0,0.0,0.0,0.0,0.0,0.0,0.0,0.0,0.0,0.0,0.0,0.0,0.0,0.0,0.0,0.0,-5.7997,-5.7997,-5.7881,-5.7834,-5.7834,-5.7559,-5.7486,-5.7583,-5.7461,-5.7485,-5.7569,-5.759,-5.8047,-5.8818,-5.9506,-6.0267,-6.1064,-6.1725,0.0,0.0,0.0,0.0,0.0,0.0,0.0,0.0,-6.3876,-6.4721,-6.5561,-6.6325,0.0,0.0,0.0,0.0,0.0,-6.8956,-6.9497,-7.0025,-7.0642,-7.065,-7.0548,0.0,0.0,0.0,0.0,0.0,0.0,0.0,0.0,0.0,0.0,0.0,0.0,0.0,0.0,0.0,0.0,0.0,0.0,0.0,0.0,0.0,0.0,0.0,-7.7223,-7.7223,-7.7223,-7.7223,-7.7223,-7.7223,-7.7223,-7.7223,-7.7223,-7.7223,-7.7223,-7.7223,-7.7223,-7.7223,-7.7223,-7.7223,-7.7223,0.0,0.0,-7.7223,-7.7223,-7.7223,-7.7223,-7.7223,-7.7223,-7.7223,-7.7223,-7.7223,-7.7223,0.0,0.0,0.0,0.0,0.0,0.0,0.0,0.0,0.0,0.0,0.0,0.0,0.0,0.0,0.0,0.0,0.0,0.0,0.0,0.0,0.0,-5.7997,-5.7997,-5.7997,-5.7997,-5.7881,-5.7857,-5.7973,-5.7679,-5.7559,-5.7583,-5.7559,-5.785,-5.8442,-5.9132,-5.9782,-6.0448,-6.0557,-6.1073,-6.1833,-6.1942,0.0,0.0,0.0,0.0,0.0,0.0,0.0,0.0,-6.4845,-6.5424,-6.5707,-6.6503,0.0,0.0,0.0,0.0,0.0,-6.9942,-7.0613,-7.1002,-7.0817,-7.0788,-7.0684,0.0,0.0,0.0,0.0,0.0,0.0,0.0,0.0,0.0,0.0,0.0,0.0,0.0,0.0,0.0,0.0,0.0,0.0,0.0,0.0,0.0,0.0,0.0,-7.7223,-7.7223,-7.7223,-7.7223,-7.7223,-7.7223,-7.7223,-7.7223,-7.7223,-7.7223,-7.7223,-7.7223,-7.7223,-7.7223,-7.7223,-7.7223,-7.7223,0.0,-7.7223,-7.7223,-7.7223,-7.7223,-7.7223,-7.7223,-7.7223,-7.7223,-7.7223,-7.7223,-7.7223,0.0,0.0,0.0,0.0,0.0,0.0,0.0,0.0,0.0,0.0,0.0,0.0,0.0,0.0,0.0,0.0,0.0,0.0,0.0,0.0,0.0,-5.7997,-5.7997,-5.7973,-5.7904,-5.7904,-5.7881,-5.7786,-5.7655,-5.7667,-5.7715,-5.8081,-5.8553,-5.9149,-5.9538,-6.0102,-6.081,-6.081,-6.1254,-6.1978,0.0,0.0,0.0,0.0,0.0,0.0,0.0,0.0,0.0,0.0,-6.5822,-6.6132,-6.6529,0.0,0.0,0.0,0.0,0.0,-7.0185,-7.0888,-7.1372,-7.115,-7.1018,-7.0883,-7.0783,0.0,0.0,0.0,0.0,0.0,0.0,0.0,0.0,0.0,0.0,0.0,0.0,0.0,0.0,0.0,0.0,0.0,0.0,0.0,0.0,0.0,0.0,0.0,-7.7223,-7.7223,-7.7223,-7.7223,-7.7223,-7.7223,-7.7223,-7.7223,-7.7223,-7.7223,-7.7223,-7.7223,-7.7223,-7.7223,-7.7223,-7.7223,0.0,-7.7223,-7.7223,-7.7223,-7.7223,-7.7223,-7.7223,-7.7223,-7.7223,-7.7223,-7.7223,-7.7223,0.0,0.0,0.0,0.0,0.0,0.0,0.0,0.0,0.0,0.0,0.0,0.0,0.0,0.0,0.0,0.0,0.0,0.0,0.0,0.0,-5.7997,-5.7997,-5.7997,-5.795,-5.7857,-5.7927,-5.7857,-5.7631,-5.7631,-5.7764,-5.8055,-5.8896,-5.9521,-5.9905,-6.0112,-6.0547,-6.1073,-6.1073,-6.1435,-6.2014,0.0,0.0,0.0,0.0,0.0,0.0,0.0,0.0,0.0,0.0,0.0,0.0,0.0,0.0,0.0,-6.7764,-6.8578,-6.9424,-7.0372,-7.106,-7.1463,-7.1372,0.0,-7.1045,-7.1012,0.0,0.0,0.0,0.0,0.0,0.0,0.0,0.0,0.0,0.0,0.0,0.0,0.0,0.0,0.0,0.0,0.0,0.0,0.0,0.0,0.0,0.0,0.0,-7.7169,-7.7342,-7.7411,-7.7411,-7.7411,-7.75,-7.7676,-7.7676,-7.75,-7.7223,-7.7223,-7.7223,-7.7223,-7.7223,-7.7223,-7.7223,-7.7223,-7.7223,-7.7223,-7.7223,-7.7223,-7.7223,-7.7223,-7.7223,-7.7223,-7.7223,-7.7223,-7.7223,0.0,0.0,0.0,0.0,0.0,0.0,0.0,0.0,0.0,0.0,0.0,0.0,0.0,0.0,0.0,0.0,0.0,0.0,0.0,0.0,-5.7997,-5.7997,-5.7997,-5.7997,-5.7997,-5.7881,-5.781,-5.781,-5.781,-5.8104,-5.875,-6.0191,-6.0824,-6.0738,-6.1633,-6.1969,-6.1906,-6.1906,-6.1942,-6.205,-6.2802,0.0,0.0,0.0,0.0,0.0,0.0,0.0,0.0,0.0,0.0,0.0,0.0,0.0,-6.6867,-6.8573,-6.914,-6.9533,-7.1024,-7.1458,-7.1494,-7.1463,-7.1372,0.0,-7.1045,0.0,0.0,0.0,0.0,0.0,0.0,0.0,0.0,0.0,0.0,0.0,0.0,0.0,0.0,0.0,0.0,0.0,0.0,0.0,0.0,0.0,0.0,0.0,-7.6992,-7.7732,-7.8116,-7.8116,-7.8116,-7.8413,-7.9074,-7.9074,-7.8455,-7.7223,-7.7223,-7.7223,-7.7223,-7.7223,-7.7223,-7.7223,-7.7223,-7.7223,-7.7223,-7.7223,-7.7223,-7.7223,-7.7223,-7.7223,-7.7223,-7.7223,-7.7223,-7.7223,0.0,0.0,0.0,0.0,0.0,0.0,0.0,0.0,0.0,0.0,0.0,0.0,0.0,0.0,0.0,0.0,0.0,0.0,0.0,-5.7997,-5.7997,-5.7997,-5.8474,-5.8767,-5.8767,-5.8721,-5.887,-5.9274,-5.9274,-5.9565,-6.0036,-6.0705,-6.1197,-6.1571,-6.1915,-6.2033,-6.2014,-6.2549,-6.2766,-6.2802,-6.3599,-6.3925,0.0,0.0,0.0,0.0,0.0,0.0,0.0,0.0,-6.6668,-6.6512,0.0,0.0,-6.6837,-6.8517,-6.9115,-6.9569,-7.1096,-7.1494,-7.1494,-7.1494,0.0,0.0,0.0,0.0,0.0,0.0,0.0,0.0,0.0,0.0,0.0,0.0,0.0,0.0,0.0,0.0,0.0,0.0,0.0,0.0,0.0,0.0,0.0,0.0,0.0,0.0,-7.6886,-7.7168,-7.7309,-7.7309,-7.7309,-7.743,-7.7744,-7.7744,-7.743,-7.6976,-7.7999,-7.8455,-7.8455,-7.8455,-7.8202,-7.785,-7.785,-7.785,-7.7807,-7.7367,-7.7456,-7.7807,-7.7323,-7.7223,-7.7223,-7.7223,-7.7223,-7.7223,0.0,0.0,0.0,0.0,0.0,0.0,0.0,0.0,0.0,0.0,0.0,0.0,0.0,0.0,0.0,0.0,0.0,0.0,-5.7997,-5.7997,-5.8107,-5.8364,-5.8891,-5.9417,-5.987,-5.9907,-5.9944,-6.0139,-6.0295,-6.0555,-6.0864,-6.1171,-6.1579,-6.1978,-6.1978,-6.2123,-6.2404,-6.2947,-6.3345,-6.3635,-6.4432,-6.4758,0.0,0.0,0.0,0.0,0.0,0.0,0.0,0.0,0.0,0.0,0.0,0.0,0.0,0.0,-6.9115,-6.9569,-7.1096,-7.1494,-7.1494,0.0,0.0,0.0,0.0,0.0,0.0,0.0,0.0,0.0,0.0,0.0,0.0,0.0,0.0,0.0,0.0,0.0,0.0,0.0,0.0,0.0,0.0,0.0,0.0,0.0,0.0,0.0,0.0,-7.6953,-7.7095,-7.7095,-7.7095,-7.7172,-7.7435,-7.7435,-7.7435,-7.7435,-7.8505,-7.8846,-7.8452,-7.87,-7.8564,-7.8146,-7.8434,-7.8539,-7.8497,-7.7988,-7.8074,-7.8497,-7.7988,-7.7815,-7.7815,-7.7815,-7.7815,-7.7815,0.0,0.0,0.0,0.0,0.0,0.0,0.0,0.0,0.0,0.0,0.0,0.0,0.0,0.0,0.0,0.0,0.0,0.0,-5.7997,-5.8033,-5.84,-5.9184,-5.9221,-5.9907,-6.1396,-6.1407,-6.0955,-6.0026,-6.0544,-6.0864,-6.1032,-6.1697,-6.1978,-6.2014,-6.2014,-6.2476,-6.32,-6.32,-6.3671,-6.4468,-6.5301,-6.5591,-6.57,0.0,0.0,0.0,0.0,0.0,0.0,0.0,-6.6668,0.0,0.0,0.0,0.0,0.0,-6.9207,-6.9569,-7.1096,-7.1494,0.0,0.0,0.0,0.0,0.0,0.0,0.0,0.0,0.0,0.0,0.0,0.0,0.0,0.0,0.0,0.0,0.0,0.0,0.0,0.0,0.0,0.0,0.0,0.0,0.0,0.0,0.0,0.0,0.0,-7.7233,-7.7698,-7.7698,-7.7698,-7.7991,-7.8666,-7.8666,-7.8666,-7.8666,-7.8666,-7.8027,-7.6859,-7.7638,-7.7992,-7.8027,-7.8842,-7.92,-7.92,-7.92,-7.916,-7.916,-7.916,-7.916,-7.916,-7.916,-7.916,-7.916,0.0,0.0,0.0,0.0,0.0,0.0,0.0,0.0,0.0,0.0,0.0,0.0,0.0,0.0,0.0,0.0,0.0,0.0,-5.8841,-5.9391,-5.9795,-6.0052,-6.0506,-6.0945,-6.1396,-6.1777,-6.1818,-6.1547,-6.1722,-6.1751,-6.1734,-6.1897,-6.2295,-6.2838,-6.2838,-6.3273,-6.407,-6.4649,-6.5011,-6.5301,-6.6134,-6.646,-6.646,0.0,0.0,0.0,0.0,0.0,0.0,0.0,0.0,0.0,0.0,0.0,0.0,-6.8887,-6.9605,-7.0263,-7.1241,0.0,0.0,0.0,0.0,0.0,0.0,0.0,0.0,0.0,0.0,0.0,0.0,0.0,0.0,0.0,0.0,0.0,0.0,0.0,0.0,0.0,0.0,0.0,0.0,0.0,0.0,0.0,0.0,0.0,0.0,-7.6615,-7.6724,-7.6724,-7.6724,-7.6793,-7.7,-7.7,-7.7,-7.7,-7.7,-7.7407,-7.8135,-7.8351,-7.824,-7.7794,-7.8044,-7.8151,-7.8151,-7.8151,-7.7883,-7.7492,-7.7492,-7.7492,-7.7492,-7.7492,-7.7492,-7.7492,0.0,0.0,0.0,0.0,0.0,0.0,0.0,0.0,0.0,0.0,0.0,0.0,0.0,0.0,0.0,0.0,0.0,0.0,0.0,-6.0126,-6.0542,-6.0762,-6.1239,-6.1567,-6.177,-6.2364,-6.2667,-6.2613,-6.2613,-6.2558,-6.2476,-6.2802,-6.32,-6.3671,-6.3671,-6.4106,-6.4903,-6.5374,-6.5772,-6.6134,-6.6605,-6.6786,-6.6786,0.0,0.0,0.0,0.0,0.0,0.0,0.0,0.0,0.0,0.0,0.0,0.0,-6.8959,-6.9787,-7.0553,-7.1313,0.0,0.0,0.0,0.0,0.0,0.0,0.0,0.0,0.0,0.0,0.0,0.0,0.0,0.0,0.0,0.0,0.0,0.0,0.0,0.0,0.0,0.0,0.0,0.0,0.0,0.0,0.0,0.0,0.0,0.0,-7.6275,-7.6275,-7.6275,-7.6275,-7.6275,-7.6275,-7.6275,-7.6275,-7.6275,-7.6275,-7.6818,-7.776,-7.8086,-7.7986,-7.7631,-7.7955,-7.8099,-7.8099,-7.8099,-7.7881,-7.7549,-7.7549,-7.7549,-7.7549,-7.7549,-7.7549,-7.7549,0.0,0.0,0.0,0.0,0.0,0.0,0.0,0.0,0.0,0.0,0.0,0.0,0.0,0.0,0.0,0.0,0.0,0.0,0.0,0.0,-6.0958,-6.164,-6.1789,-6.2105,-6.2615,-6.3184,-6.3448,-6.3365,-6.3337,-6.3309,-6.3309,-6.407,-6.4432,-6.4504,-6.4504,-6.4939,-6.57,-6.57,-6.6134,-6.6786,-6.6786,-6.6786,-6.6786,-6.6786,0.0,0.0,0.0,0.0,0.0,0.0,0.0,0.0,0.0,0.0,0.0,-6.9098,-6.9895,-7.0625,0.0,0.0,0.0,0.0,0.0,0.0,0.0,0.0,0.0,0.0,0.0,0.0,0.0,0.0,0.0,0.0,0.0,0.0,0.0,0.0,0.0,0.0,0.0,0.0,0.0,0.0,0.0,0.0,0.0,0.0,0.0,-7.6275,-7.6275,-7.6275,-7.6275,-7.6275,-7.6275,-7.6275,-7.6275,-7.6275,-7.6275,-7.6275,-7.6311,-7.7072,-7.7398,-7.7434,-7.8159,-7.8484,-7.8484,-7.8484,-7.8484,-7.8484,-7.8484,-7.8484,-7.8484,-7.8484,-7.8484,-7.8484,0.0,0.0,0.0,0.0,0.0,0.0,0.0,0.0,0.0,0.0,0.0,0.0,0.0,0.0,0.0,0.0,0.0,0.0,0.0,0.0,-6.2633,-6.3477,-6.3894,-6.4164,-6.4293,-6.4229,-6.4246,-6.4439,-6.4255,-6.4142,-6.4142,-6.4323,-6.4722,-6.5337,-6.5337,-6.5772,-6.6533,-6.6533,-6.6641,-6.6786,-6.6786,-6.6786,-6.6786,-6.6786,-6.7184,0.0,0.0,0.0,0.0,0.0,0.0,0.0,-6.8488,-6.9213,-6.9901,-7.0082,-7.0661,0.0,0.0,0.0,0.0,0.0,0.0,0.0,0.0,0.0,0.0,0.0,0.0,0.0,0.0,0.0,0.0,0.0,0.0,0.0,0.0,0.0,0.0,0.0,0.0,0.0,0.0,0.0,0.0,0.0,0.0,0.0,-7.6275,-7.6275,-7.6275,-7.6275,-7.6275,-7.6275,-7.6275,-7.6275,-7.6275,-7.6275,-7.6275,-7.6275,-7.6311,-7.6456,-7.6565,-7.6565,-7.6746,-7.6818,-7.6818,-7.6818,-7.6818,-7.6818,-7.6818,-7.6818,-7.6818,-7.6818,-7.6818,-7.6818,0.0,0.0,0.0,0.0,0.0,0.0,0.0,0.0,0.0,0.0,0.0,0.0,0.0,0.0,0.0,0.0,0.0,0.0,0.0,0.0,-6.3796,-6.464,-6.4782,-6.4803,-6.4803,-6.5039,-6.5165,-6.5165,-6.548,-6.5423,-6.4975,-6.5374,-6.5772,-6.617,-6.617,-6.6424,-6.6786,-6.6786,-6.6786,-6.6822,-6.7221,-6.7366,-6.7438,-6.78,-6.8199,-6.8561,-6.8561,0.0,0.0,0.0,0.0,0.0,0.0,0.0,-7.0372,-7.0372,-7.0915,-7.1494,0.0,0.0,0.0,0.0,0.0,0.0,0.0,0.0,0.0,0.0,0.0,0.0,0.0,0.0,0.0,0.0,0.0,0.0,0.0,0.0,0.0,0.0,0.0,0.0,0.0,0.0,0.0,0.0,0.0,-7.6275,-7.6275,-7.6275,-7.6275,-7.6275,-7.6275,-7.6275,-7.6275,-7.6275,-7.6275,-7.6275,-7.6275,-7.6275,-7.6275,-7.6275,-7.6275,-7.6275,-7.6275,-7.6275,-7.6275,-7.6275,-7.6275,-7.6275,-7.6275,-7.6275,-7.6275,-7.6275,-7.6275,-7.6275,0.0,0.0,0.0,0.0,0.0,0.0,0.0,0.0,0.0,0.0,0.0,0.0,0.0,0.0,0.0,0.0,0.0,0.0,0.0,0.0,0.0,-6.5406,-6.5304,-6.5268,-6.5241,-6.5842,-6.6058,-6.5895,-6.6606,0.0,0.0,0.0,-6.6786,-6.6786,-6.6786,-6.6786,-6.6822,-6.6967,-6.7003,-6.7076,-6.7873,-6.8199,-6.8271,-6.8923,-6.9316,-6.9424,-6.9424,-6.9424,-6.9461,-6.9569,0.0,0.0,0.0,0.0,-7.0589,-7.0589,-7.1024,-7.1494,0.0,0.0,0.0,0.0,0.0,0.0,0.0,0.0,0.0,0.0,0.0,0.0,0.0,0.0,0.0,0.0,0.0,0.0,0.0,0.0,0.0,0.0,0.0,0.0,0.0,0.0,0.0,0.0,0.0,-7.6275,-7.6275,-7.6275,-7.6275,-7.6275,-7.6275,-7.6275,-7.6275,-7.6275,-7.6275,-7.6275,-7.6275,-7.6275,-7.6275,-7.6275,-7.6275,-7.6275,-7.6275,-7.6275,-7.6275,-7.6275,-7.6275,-7.6275,-7.6275,-7.6275,-7.6275,-7.6275,-7.6275,-7.6275,0.0,0.0,0.0,0.0,0.0,0.0,0.0,0.0,0.0,0.0,0.0,0.0,0.0,0.0,0.0,0.0,0.0,0.0,0.0,0.0,0.0,-6.5916,-6.6692,-6.7058,-6.6882,-6.685,-6.6923,-6.7008,0.0,0.0,0.0,0.0,0.0,-6.6786,0.0,0.0,-6.6858,0.0,0.0,-6.7909,-6.8706,-6.9062,-6.9062,-6.9171,-6.9642,-7.0258,-7.0258,-7.0258,-7.0335,-7.0987,-7.077,0.0,0.0,0.0,-7.135,-7.135,-7.1422,0.0,0.0,0.0,0.0,0.0,0.0,0.0,0.0,0.0,0.0,0.0,0.0,0.0,0.0,0.0,0.0,0.0,0.0,0.0,0.0,0.0,0.0,0.0,0.0,0.0,0.0,0.0,0.0,0.0,-7.6275,-7.6275,-7.6275,-7.6275,-7.6275,-7.6275,-7.6275,-7.6275,-7.6275,-7.6275,-7.6275,-7.6275,-7.6275,-7.6275,-7.6275,-7.6275,-7.6275,-7.6275,-7.6275,-7.6275,-7.6275,-7.6275,-7.6275,-7.6275,-7.6275,-7.6275,-7.6275,-7.6275,-7.6275,-7.6275,0.0,0.0,0.0,0.0,0.0,0.0,0.0,0.0,0.0,0.0,0.0,0.0,0.0,0.0,0.0,0.0,0.0,0.0,0.0,0.0,0.0,-6.6948,-6.7314,-6.7414,-6.721,-6.7238,-6.719,-6.699,0.0,0.0,0.0,-6.7257,-6.7474,0.0,0.0,0.0,0.0,0.0,0.0,0.0,0.0,-6.9895,-6.9932,-7.0335,-7.0698,-7.1024,-7.1024,-7.1024,-7.106,-7.1386,-7.1277,-7.106,-7.1386,0.0,0.0,0.0,-7.1494,0.0,0.0,0.0,0.0,0.0,0.0,0.0,0.0,0.0,0.0,0.0,0.0,0.0,0.0,0.0,0.0,0.0,0.0,0.0,0.0,0.0,0.0,0.0,0.0,0.0,0.0,0.0,0.0,0.0,-7.6275,-7.6275,-7.6275,-7.6275,-7.6275,-7.6275,-7.6275,-7.6275,-7.6275,-7.6275,-7.6275,-7.6275,-7.6275,-7.6275,-7.6275,-7.6275,-7.6275,-7.6275,-7.6275,-7.6275,-7.6275,-7.6275,-7.6275,-7.6275,-7.6275,-7.6275,-7.6275,-7.6275,-7.6275,-7.6275,0.0,0.0,0.0,0.0,0.0,0.0,0.0,0.0,0.0,0.0,0.0,0.0,0.0,0.0,0.0,0.0,0.0,0.0,0.0,0.0,0.0,-6.7633,-6.7579,-6.7442,-6.721,-6.7359,-6.7247,0.0,0.0,0.0,-6.7112,-6.7945,-6.8416,0.0,-6.8416,0.0,0.0,0.0,0.0,0.0,0.0,-7.0661,-7.0734,-7.1277,-7.1494,-7.1494,-7.1494,-7.1494,-7.1494,-7.1494,-7.1494,-7.1494,-7.1494,-7.1494,0.0,0.0,0.0,0.0,0.0,0.0,0.0,0.0,0.0,0.0,0.0,0.0,0.0,0.0,0.0,0.0,0.0,0.0,0.0,0.0,0.0,0.0,0.0,0.0,0.0,0.0,0.0,0.0,0.0,0.0,0.0,0.0,-7.6275,-7.6275,-7.6275,-7.6275,-7.6275,-7.6275,-7.6275,-7.6275,-7.6275,-7.6275,-7.6275,-7.6275,-7.6275,-7.6275,-7.6275,-7.6275,-7.6275,-7.6275,-7.6275,-7.6275,-7.6275,-7.6275,-7.6275,-7.6275,-7.6275,-7.6275,-7.6275,-7.6275,-7.6275,-7.6275,0.0,0.0,0.0,0.0,0.0,0.0,0.0,0.0,0.0,0.0,0.0,0.0,-6.5301,-6.5301,-6.5301,-6.5301,-6.5999,0.0,0.0,0.0,0.0,-6.7534,-6.7633,0.0,-6.721,-6.721,0.0,0.0,0.0,0.0,-6.7981,-6.8742,-6.9569,-7.0227,-6.9497,-6.9171,-6.9243,0.0,0.0,0.0,0.0,0.0,0.0,-7.1494,-7.1494,-7.1494,-7.1494,-7.1494,-7.1494,-7.1494,-7.1494,-7.1494,-7.1494,-7.1494,-7.1494,0.0,0.0,0.0,0.0,0.0,0.0,0.0,0.0,0.0,0.0,0.0,0.0,0.0,0.0,0.0,0.0,0.0,0.0,0.0,0.0,0.0,0.0,0.0,0.0,0.0,0.0,0.0,0.0,0.0,0.0,0.0,-7.6275,-7.6275,-7.6275,-7.6275,-7.6275,-7.6275,-7.6275,-7.6275,-7.6275,-7.6275,-7.6275,-7.6275,-7.6275,-7.6275,-7.6275,-7.6275,-7.6275,-7.6275,-7.6275,-7.6275,-7.6275,-7.6275,-7.6275,-7.6275,-7.6275,-7.6275,-7.6275,-7.6275,-7.6275,-7.6275,0.0,0.0,0.0,0.0,0.0,0.0,0.0,0.0,0.0,0.0,0.0,0.0,0.0,-6.6843,-6.6843,-6.6843,-6.71,0.0,0.0,0.0,0.0,-6.7767,-6.7714,-6.7826,-6.8081,-6.8229,0.0,0.0,0.0,-6.9004,-6.8778,-6.9575,-7.0149,-7.0403,-7.0113,-7.0227,-7.0698,-7.0987,0.0,0.0,0.0,0.0,0.0,0.0,0.0,0.0,0.0,0.0,-7.1494,-7.1494,-7.1494,-7.1494,-7.1494,-7.1494,-7.1494,-7.1494,-7.1494,0.0,0.0,0.0,0.0,0.0,0.0,0.0,0.0,0.0,0.0,0.0,0.0,0.0,0.0,0.0,0.0,0.0,0.0,0.0,0.0,0.0,0.0,0.0,0.0,0.0,0.0,0.0,0.0,0.0,0.0,-7.6275,-7.6275,-7.6275,-7.6275,-7.6275,-7.6275,-7.6275,-7.6275,-7.6275,-7.6275,-7.6275,-7.6275,-7.6275,-7.6275,-7.6275,-7.6275,-7.6275,-7.6275,-7.6275,-7.6275,-7.6275,-7.6275,-7.6275,-7.6275,-7.6275,-7.6275,-7.6275,-7.6275,-7.6275,0.0,0.0,0.0,0.0,0.0,0.0,0.0,0.0,0.0,-6.6392,0.0,0.0,0.0,0.0,-6.7847,-6.7847,-6.7847,-6.7957,-6.8215,-6.8294,-6.8494,-6.8752,-6.8603,-6.866,-6.9006,0.0,0.0,0.0,0.0,0.0,0.0,-7.0372,-7.077,-7.077,-7.077,-7.1024,0.0,0.0,0.0,-7.1494,0.0,0.0,-7.1494,0.0,0.0,0.0,0.0,0.0,0.0,-7.1494,-7.1494,-7.1494,-7.1494,-7.1494,-7.1494,-7.1494,-7.1494,0.0,0.0,0.0,0.0,0.0,0.0,0.0,0.0,0.0,0.0,0.0,0.0,0.0,0.0,0.0,0.0,0.0,0.0,0.0,0.0,0.0,0.0,0.0,0.0,0.0,0.0,0.0,0.0,0.0,0.0,0.0,-7.6275,-7.6275,-7.6275,-7.6275,-7.6275,-7.6275,-7.6275,-7.6275,-7.6275,-7.6275,-7.6275,-7.6275,-7.6275,-7.6275,-7.6275,-7.6275,-7.6275,-7.6275,-7.6275,-7.6275,-7.6275,-7.6275,-7.6275,-7.6275,-7.6275,-7.6275,-7.6275,-7.6275,0.0,0.0,0.0,0.0,0.0,0.0,0.0,0.0,-6.6812,-6.6565,0.0,0.0,0.0,0.0,0.0,-6.8132,-6.8169,-6.8502,-6.9278,-6.9352,-6.9684,-7.046,0.0,0.0,0.0,0.0,0.0,0.0,0.0,0.0,0.0,0.0,-7.1494,-7.1494,-7.1494,-7.1494,-7.1494,0.0,-7.1494,-7.1494,0.0,-7.1494,-7.1494,0.0,0.0,0.0,-7.1494,-7.1494,0.0,-7.1494,0.0,0.0,0.0,-7.1494,-7.1494,-7.1494,-7.1494,0.0,0.0,0.0,0.0,0.0,0.0,0.0,0.0,0.0,0.0,0.0,0.0,0.0,0.0,0.0,0.0,0.0,0.0,0.0,0.0,0.0,0.0,0.0,0.0,0.0,0.0,0.0,0.0,0.0,-7.6203,-7.6203,-7.6203,-7.6239,-7.6239,-7.6239,-7.6275,-7.6275,-7.6275,-7.6275,-7.6275,-7.6275,-7.6275,-7.6275,-7.6275,-7.6275,-7.6275,-7.6275,-7.6275,-7.6275,-7.6275,-7.6275,-7.6275,-7.6275,-7.6275,-7.6275,-7.6275,-7.6275,-7.6275,-7.6275,0.0,0.0,0.0,0.0,0.0,0.0,-6.6617,-6.6815,-6.7084,0.0,0.0,0.0,-6.8018,-6.8624,-6.8982,-6.8982,-6.9499,-6.9943,-7.0164,-7.0243,-7.0406,-7.0654,-7.0471,-7.0523,-7.0796,0.0,0.0,0.0,0.0,0.0,0.0,0.0,0.0,0.0,-7.1494,-7.1494,-7.1494,-7.1494,0.0,0.0,-7.1494,-7.1494,0.0,0.0,0.0,0.0,0.0,-7.1494,-7.1494,0.0,-7.1494,-7.1494,0.0,-7.1494,-7.1494,-7.1494,0.0,0.0,-7.1494,0.0,0.0,0.0,0.0,0.0,0.0,0.0,0.0,0.0,0.0,0.0,0.0,0.0,0.0,0.0,0.0,0.0,0.0,0.0,0.0,0.0,0.0,0.0,0.0,0.0,0.0,0.0,-7.4573,-7.4573,-7.4573,-7.5116,-7.5442,-7.5442,-7.5985,-7.6275,-7.6275,-7.6275,-7.6275,-7.6275,-7.6275,-7.6275,-7.6275,-7.6275,-7.6275,-7.6275,-7.6275,-7.6275,-7.6275,-7.6275,-7.6275,-7.6275,-7.6275,-7.6275,-7.6275,-7.6275,-7.6275,-7.6275,0.0,0.0,0.0,0.0,0.0,-6.6823,-6.7494,-6.7506,-6.7689,0.0,0.0,0.0,-6.9221,-6.9691,-6.9987,-6.9987,-7.0395,-7.0802,-7.1198,-7.1287,-7.1487,-7.1821,-7.1505,-7.1453,-7.1762,0.0,0.0,0.0,0.0,0.0,0.0,0.0,0.0,0.0,0.0,0.0,0.0,0.0,0.0,0.0,-7.1494,0.0,0.0,-7.1494,-7.1494,0.0,0.0,0.0,-7.2074,-7.24,-7.2509,0.0,0.0,0.0,0.0,0.0,0.0,0.0,-7.2509,0.0,0.0,0.0,0.0,0.0,-7.4899,-7.4899,0.0,0.0,0.0,0.0,0.0,0.0,0.0,0.0,0.0,0.0,0.0,0.0,0.0,0.0,0.0,0.0,0.0,-7.4083,-7.3986,-7.3921,-7.3921,-7.3921,-7.3921,-7.4323,-7.4576,-7.4576,-7.5044,-7.5297,-7.5297,-7.5297,-7.5297,-7.5297,-7.5659,-7.5804,-7.5804,-7.613,-7.6275,-7.6275,-7.6275,-7.6275,-7.6275,-7.6275,-7.6275,-7.6275,-7.6275,-7.6275,-7.6275,-7.6275,-7.6275,-7.6275,0.0,0.0,-6.6588,-6.7303,-6.7428,-6.7677,-6.8334,-6.8319,-6.8564,0.0,-6.9451,-6.985,-7.0796,-7.097,-7.1044,-7.1044,-7.1118,-7.1489,-7.2232,-7.2295,-7.2629,-7.3309,-7.2863,-7.2582,-7.2553,-7.1957,0.0,0.0,0.0,0.0,0.0,0.0,0.0,0.0,0.0,0.0,0.0,0.0,0.0,-7.1494,-7.1494,-7.1567,0.0,0.0,-7.1712,-7.1857,-7.2581,-7.2834,-7.2943,-7.3667,-7.3921,0.0,0.0,0.0,0.0,0.0,-7.3921,0.0,0.0,-7.45,-7.5083,0.0,0.0,0.0,-7.6275,-7.6275,-7.6275,0.0,0.0,0.0,0.0,0.0,0.0,0.0,0.0,0.0,0.0,0.0,0.0,0.0,0.0,0.0,-7.4019,-7.3956,-7.3861,-7.37,-7.3667,-7.3631,-7.3631,-7.374,-7.3776,-7.3776,-7.3849,-7.3921,-7.3921,-7.3921,-7.3921,-7.3921,-7.4612,-7.4938,-7.4974,-7.5696,-7.6022,-7.6022,-7.6022,-7.6022,-7.6022,-7.6022,-7.613,-7.6275,-7.6275,-7.6275,-7.6275,-7.6275,-7.6275,-7.6275,0.0,0.0,-6.756,-6.8301,-6.8331,-6.8518,-6.9311,-6.9322,-6.9531,-7.0485,-7.0597,-7.0659,-7.0895,-7.1515,-7.1923,-7.1923,-7.2518,-7.2886,-7.2758,-7.3045,-7.3145,-7.3017,-7.3162,-7.3108,-7.2826,-7.2678,-7.2516,0.0,0.0,0.0,0.0,0.0,0.0,0.0,0.0,0.0,0.0,0.0,0.0,-7.1494,-7.1494,0.0,-7.2472,-7.2472,-7.2871,-7.345,-7.3631,-7.3667,-7.3704,-7.3849,-7.3921,-7.3921,0.0,0.0,0.0,-7.3921,0.0,0.0,0.0,0.0,0.0,0.0,-7.5696,0.0,-7.6275,-7.6275,-7.6275,0.0,0.0,0.0,0.0,0.0,0.0,0.0,0.0,0.0,0.0,0.0,0.0,0.0,0.0,0.0,-7.2722,-7.2407,-7.2221,-7.219,-7.2065,-7.1965,-7.1965,-7.2581,-7.2943,-7.2943,-7.3559,-7.3921,-7.3921,-7.3921,-7.3921,-7.3921,-7.4033,-7.4106,-7.4138,-7.4319,-7.4392,-7.4392,-7.4392,-7.4392,-7.4392,-7.4392,-7.5116,-7.6275,-7.6275,-7.6275,-7.6275,-7.6275,-7.6275,-7.6275,0.0,-6.8249,-6.8441,-6.911,-6.9173,-6.9446,-7.0215,-7.0189,-7.0434,-7.1415,-7.1886,-7.2146,-7.2146,-7.2518,-7.2804,-7.2804,-7.3175,-7.3268,-7.2936,-7.3215,-7.3268,-7.2936,-7.3044,-7.3071,-7.2908,-7.263,-7.2401,-7.2263,0.0,0.0,0.0,0.0,0.0,0.0,0.0,0.0,0.0,0.0,-7.3088,-7.2726,-7.2726,0.0,-7.2762,-7.316,-7.3559,-7.3957,-7.4323,-7.4754,-7.5116,-7.5116,-7.5116,0.0,-7.5116,-7.5116,-7.5116,0.0,-7.5116,-7.5116,0.0,0.0,0.0,-7.5696,-7.5985,0.0,0.0,-7.6275,-7.6275,0.0,0.0,0.0,0.0,0.0,0.0,0.0,0.0,0.0,0.0,0.0,0.0,0.0,0.0,0.0,-7.2365,-7.2151,-7.2,-7.1816,-7.1625,-7.1494,-7.1494,-7.1893,-7.211,-7.211,-7.2509,-7.2726,-7.2726,-7.2726,-7.2726,-7.2726,-7.3124,-7.3305,-7.3342,-7.374,-7.3921,-7.3921,-7.3921,-7.3921,-7.3921,-7.3921,-7.4392,-7.5116,-7.5116,-7.5116,-7.5116,-7.5116,-7.5116,-7.5116,-6.9229,0.0,-6.9463,-6.9868,-7.0029,-7.0313,-7.1032,-7.1042,-7.1339,-7.2295,-7.2964,-7.3346,-7.3346,-7.3294,-7.3268,-7.3268,-7.3268,-7.3236,-7.3075,-7.3384,-7.3437,-7.3102,-7.3332,-7.3332,-7.3075,-7.2797,-7.2606,-7.2552,0.0,0.0,0.0,0.0,0.0,0.0,0.0,0.0,0.0,0.0,0.0,-7.3957,0.0,-7.3885,-7.3233,-7.3885,-7.4247,-7.4464,-7.5116,-7.5768,-7.6311,-7.6456,-7.6529,-7.6529,-7.6529,-7.6529,0.0,0.0,0.0,0.0,0.0,0.0,0.0,0.0,0.0,-7.6275,0.0,0.0,0.0,0.0,0.0,0.0,0.0,0.0,0.0,0.0,0.0,0.0,0.0,0.0,0.0,0.0,0.0,0.0,-7.2358,-7.2329,-7.2181,-7.1847,-7.1656,-7.1526,-7.1494,-7.1494,-7.1494,-7.1494,-7.1494,-7.1494,-7.1494,-7.1494,-7.1494,-7.1531,-7.2183,-7.2472,-7.2509,-7.316,-7.345,-7.345,-7.345,-7.345,-7.345,-7.345,-7.345,-7.3486,-7.3776,-7.3921,-7.3921,-7.3921,-7.3921,-7.3921,-7.0965,-7.1013,0.0,-7.0797,-7.0772,-7.1069,-7.1923,-7.2035,-7.2332,-7.3149,-7.3231,-7.3225,-7.3225,-7.2972,-7.277,-7.277,-7.277,-7.3046,-7.3545,-7.4016,-7.4127,-7.3811,-7.4875,-7.494,-7.3819,-7.454,-7.4793,-7.4565,0.0,0.0,0.0,0.0,0.0,0.0,-7.2979,0.0,0.0,0.0,-7.3921,0.0,-7.5442,-7.5551,0.0,-7.4902,-7.5406,-7.6022,-7.613,-7.6203,-7.642,0.0,-7.7362,-7.7362,0.0,-7.7362,-7.7217,-7.6492,0.0,0.0,0.0,0.0,0.0,0.0,-7.6275,-7.6275,-7.6275,0.0,-7.6275,-7.6275,0.0,0.0,0.0,0.0,0.0,0.0,0.0,0.0,0.0,0.0,0.0,0.0,0.0,0.0,0.0,-7.2387,-7.2181,-7.1847,-7.1786,-7.1687,-7.1494,-7.1494,-7.1494,-7.1494,-7.1494,-7.1494,-7.1494,-7.1494,-7.1494,-7.1494,-7.1603,-7.1639,-7.1639,-7.1748,-7.1784,-7.1784,-7.1784,-7.1784,-7.1784,-7.1784,-7.1784,-7.1929,-7.3342,-7.3921,-7.3921,-7.3921,-7.3921,-7.3921,-7.1365,-7.1155,0.0,-7.1577,-7.1739,-7.2025,-7.2767,-7.2915,-7.3027,-7.3361,-7.332,-7.3479,0.0,0.0,0.0,0.0,0.0,-7.2749,0.0,-7.3566,-7.3967,-7.3893,-7.4789,-7.5113,-7.4716,-7.4757,-7.4732,-7.4616,-7.4128,0.0,0.0,0.0,0.0,0.0,-7.4192,0.0,-7.4901,0.0,-7.5297,0.0,0.0,0.0,0.0,-7.5804,-7.6022,-7.6348,-7.6818,-7.7,-7.7108,0.0,-7.8195,0.0,0.0,0.0,0.0,-7.7796,0.0,0.0,0.0,0.0,0.0,0.0,0.0,0.0,-7.7,-7.6637,-7.6275,-7.6275,0.0,0.0,0.0,0.0,0.0,0.0,-7.5248,0.0,0.0,0.0,0.0,0.0,0.0,0.0,0.0,0.0,0.0,-7.2121,-7.1909,-7.1749,-7.1687,-7.1557,-7.1494,-7.1494,-7.1494,-7.1494,-7.1494,-7.1494,-7.1494,-7.1494,-7.1494,-7.1494,-7.1494,-7.1494,-7.1494,-7.1494,-7.1494,-7.1494,-7.1494,-7.1494,-7.1494,-7.1567,-7.2255,-7.2509,-7.2509,-7.2509,-7.2509,-7.2509,-7.216,0.0,0.0,0.0,0.0,-7.2831,-7.3324,-7.3398,-7.351,-7.3696,0.0,0.0,-7.4768,-7.3922,0.0,0.0,-7.3505,-7.3002,0.0,0.0,-7.4397,-7.4448,-7.5168,-7.5499,-7.5331,-7.5159,-7.5087,-7.5087,-7.4738,0.0,0.0,0.0,0.0,0.0,0.0,-7.5584,-7.5963,0.0,0.0,-7.6311,-7.6529,-7.6746,-7.6927,-7.671,-7.6637,-7.671,-7.7543,-7.7833,-7.7941,-7.8774,-7.9028,0.0,-7.9028,-7.9028,-7.8992,0.0,0.0,0.0,-7.8702,0.0,0.0,0.0,0.0,-7.776,-7.7543,-7.7036,-7.6565,-7.6348,-7.6275,0.0,0.0,0.0,-7.5949,-7.4971,0.0,-7.4442,0.0,0.0,0.0,0.0,0.0,0.0,0.0,0.0,-7.2299,-7.2204,-7.2024,-7.1909,-7.1816,-7.1656,-7.1562,-7.1494,-7.1494,-7.1494,-7.1494,-7.1494,-7.1494,-7.1494,-7.1494,-7.1494,-7.1494,-7.1494,-7.1494,-7.1494,-7.1494,-7.1494,-7.1494,-7.1494,-7.1494,-7.1494,-7.1494,-7.1494,-7.1494,-7.1494,-7.1494,-7.1494,-7.3934,-7.3678,0.0,0.0,0.0,0.0,0.0,0.0,0.0,0.0,0.0,0.0,0.0,0.0,0.0,0.0,0.0,-7.4129,-7.5696,0.0,-7.5996,0.0,-7.6729,-7.6648,-7.5443,-7.63,-7.6728,-7.6728,-7.5607,0.0,0.0,0.0,0.0,0.0,0.0,-7.6318,-7.6728,-7.5963,-7.5879,-7.6348,-7.7144,-7.7941,-7.8557,0.0,-7.747,-7.7579,-7.8376,0.0,0.0,-7.9607,-7.9861,-7.9861,-7.9861,0.0,0.0,0.0,0.0,0.0,0.0,0.0,0.0,-7.8702,-7.8666,-7.8448,-7.7688,-7.747,-7.7217,-7.6456,-7.6275,-7.6275,-7.6275,-7.6275,-7.5768,-7.4211,-7.3957,0.0,0.0,0.0,0.0,0.0,0.0,0.0,0.0,-7.2174,-7.2204,-7.2018,-7.2174,-7.2151,-7.1816,-7.1816,-7.1687,-7.1494,-7.1494,-7.1494,-7.1494,-7.1494,-7.1494,-7.1494,-7.1494,-7.1494,-7.1494,-7.1494,-7.1494,-7.1494,-7.1494,-7.1494,-7.1494,-7.1494,-7.1494,-7.1494,-7.1494,-7.1494,-7.1494,-7.1494,-7.1494,-7.1494,0.0,0.0,0.0,0.0,0.0,0.0,0.0,-7.4216,0.0,0.0,0.0,0.0,0.0,-7.5198,-7.4778,0.0,0.0,-7.4186,-7.4733,-7.5311,0.0,-7.6039,-7.6617,-7.6946,-7.6845,-7.6946,-7.7024,-7.715,-7.6986,0.0,0.0,0.0,0.0,0.0,0.0,-7.6705,0.0,0.0,0.0,0.0,0.0,-7.8448,-7.8666,0.0,-7.8303,-7.8412,-7.9209,-7.9499,-7.9607,-8.044,-8.0694,-8.0694,-8.0694,-8.0694,-8.0658,-8.0368,-8.0295,-8.0295,-8.0295,-8.0295,-8.0295,-8.0295,-7.9897,-7.9426,-7.9136,-7.8267,-7.7468,-7.7313,-7.6775,-7.6345,-7.6478,-7.6412,-7.5768,-7.4175,-7.3921,-7.3342,0.0,0.0,0.0,0.0,0.0,0.0,0.0,0.0,0.0,-7.2204,-7.2233,-7.227,-7.2151,-7.1939,-7.1786,-7.1687,-7.1593,-7.1494,-7.1494,-7.1494,-7.1494,-7.1494,-7.1494,-7.1494,-7.1494,-7.1494,-7.1494,-7.1494,-7.1494,-7.1494,-7.1494,-7.1494,-7.1494,-7.1494,-7.1494,-7.1494,-7.1494,-7.1494,-7.1494,-7.1494,-7.379,0.0,0.0,0.0,0.0,0.0,0.0,0.0,0.0,0.0,-7.5995,0.0,-7.6934,0.0,-7.5859,0.0,-7.5933,-7.5525,-7.6045,-7.6555,0.0,-7.6789,-7.7012,-7.7226,0.0,-7.6998,-7.6929,-7.7212,0.0,-7.7396,0.0,0.0,0.0,0.0,0.0,0.0,0.0,0.0,-7.831,0.0,0.0,-7.9318,0.0,0.0,-7.939,-7.9245,0.0,-8.0332,-8.0404,-8.0947,-8.1128,-8.1128,-8.1128,-8.1128,-8.1128,-8.1128,-8.1128,-8.1128,-8.1128,-8.1128,-8.1163,-8.1128,-8.08,-8.0399,-8.0075,-7.9021,-7.807,-7.7913,-7.709,-7.6445,-7.6643,-7.6478,-7.591,-7.4638,-7.4135,-7.3342,0.0,-7.1494,0.0,0.0,0.0,0.0,0.0,0.0,-7.2181,-7.2299,-7.2299,-7.2299,-7.2299,-7.2121,-7.1939,-7.1816,-7.1656,-7.1593,-7.1494,-7.1494,-7.1494,-7.1494,-7.1494,-7.1494,-7.1494,-7.1494,-7.1494,-7.1494,-7.1494,-7.1494,-7.1494,-7.1494,-7.1494,-7.1494,-7.1494,-7.1494,-7.1494,-7.1494,-7.1494,-7.1494,0.0,0.0,0.0,0.0,-7.4153,0.0,0.0,0.0,-7.5949,0.0,-7.6798,-7.7016,-7.7791,-7.7083,-7.7179,-7.8725,-7.7953,-7.8018,-7.943,-7.9507,0.0,0.0,-7.7946,-7.7619,-7.6979,0.0,-7.6719,-7.7234,0.0,0.0,0.0,0.0,0.0,0.0,-7.8707,0.0,-7.9658,-7.9377,-7.908,-7.8883,-7.9643,-8.044,-8.1128,-8.1128,-8.0621,-8.0078,-8.0839,-8.1128,-8.1128,-8.1128,-8.1128,-8.1128,-8.1128,-8.1128,-8.1128,-8.1128,-8.1128,-8.1092,-8.1092,-8.1234,-8.134,-8.1163,-8.1339,-8.1362,-8.0499,-7.973,-7.9026,-7.8256,-7.7327,-7.6716,-7.6769,-7.6508,-7.6088,-7.5491,-7.4526,-7.3305,-7.1784,0.0,0.0,0.0,0.0,0.0,0.0,-7.1816,-7.1933,-7.227,-7.2299,-7.2299,0.0,-7.2299,-7.2151,-7.1847,-7.1816,-7.1687,-7.1494,-7.1494,-7.1494,-7.1494,-7.1494,-7.1494,-7.1494,-7.1494,-7.1494,-7.1494,-7.1494,-7.1494,-7.1494,-7.1494,-7.1494,-7.1494,-7.1494,-7.1494,-7.1494,-7.1494,-7.1494,-7.1494,-7.534,-7.55,-7.5734,0.0,-7.5706,-7.5624,0.0,0.0,0.0,0.0,-7.8263,-7.8498,-7.9222,-7.8956,-7.893,-7.9496,-7.9155,0.0,0.0,0.0,0.0,-7.9146,-7.9081,-7.9105,-7.9171,-7.8945,-7.8945,-7.9264,0.0,0.0,-7.9443,0.0,0.0,0.0,0.0,0.0,-7.9572,-7.9965,-8.021,-8.0513,-8.073,-8.0911,-8.1128,0.0,-8.0984,-8.0839,-8.1056,-8.1128,-8.1128,-8.1128,-8.1128,-8.1128,-8.1128,-8.1128,-8.1128,-8.1128,-8.1128,-8.1128,-8.127,-8.134,-8.141,-8.1443,-8.1547,-8.1542,-8.1292,-8.0633,-7.9898,-7.9227,-7.8325,-7.7498,-7.6911,-7.6643,-7.6224,-7.5327,-7.399,-7.2871,-7.2472,0.0,0.0,-7.1494,0.0,0.0,0.0,-7.1775,-7.1957,-7.2048,-7.2204,-7.2358,-7.2438,0.0,-7.2084,-7.2181,-7.1939,-7.1786,-7.1718,-7.1557,-7.1494,-7.1494,-7.1494,-7.1494,-7.1494,-7.1494,-7.1494,-7.1494,-7.1494,-7.1494,-7.1494,-7.1494,-7.1494,-7.1494,-7.1494,-7.1494,-7.1494,-7.1494,-7.1494,-7.1494,-7.6244,0.0,0.0,-7.7969,0.0,0.0,-7.7877,-7.7875,0.0,-7.9409,-7.9466,0.0,-7.9977,-7.9921,-8.0037,-8.0498,-8.0436,0.0,-8.0887,0.0,0.0,-8.0373,-8.0309,-8.0189,-8.0143,-7.9795,0.0,-8.0228,0.0,0.0,-8.04,0.0,0.0,0.0,0.0,-8.0365,0.0,-8.0908,-8.1008,-8.1128,-8.1128,-8.1128,0.0,-8.1128,-8.1128,-8.1128,-8.1128,-8.1128,-8.1128,-8.1128,-8.1128,-8.1128,-8.1128,-8.1128,-8.1128,-8.1128,-8.1163,-8.1234,-8.1375,-8.1514,-8.1615,-8.1579,-8.1751,-8.1852,-8.1751,-8.1164,-8.0568,-8.0227,-7.9361,-7.8427,-7.7719,-7.7381,-7.6789,-7.5429,-7.4098,-7.3124,-7.2762,0.0,0.0,0.0,-7.1687,0.0,-7.1494,-7.1805,-7.1988,-7.1988,-7.2078,-7.2204,-7.2292,0.0,-7.2144,-7.2174,-7.1964,-7.1872,-7.1903,-7.162,-7.1526,-7.1625,-7.1526,-7.1494,-7.1494,-7.1494,-7.1494,-7.1494,-7.1494,-7.1494,-7.1494,-7.1494,-7.1494,-7.1494,-7.1494,-7.1494,-7.1494,-7.1494,-7.1494,-7.1494,-7.7217,0.0,0.0,0.0,0.0,0.0,0.0,-7.9583,0.0,-8.0504,0.0,-8.048,-8.059,-8.059,-8.0916,-8.1649,0.0,-8.1951,-8.269,-8.2727,-8.2431,-8.1662,-8.1433,-8.1138,-8.0627,-8.0121,-8.0152,-8.0733,-8.0152,-8.0277,0.0,0.0,0.0,0.0,0.0,0.0,0.0,-8.1852,-8.1408,-8.1128,-8.1128,-8.1128,-8.1128,-8.1237,-8.1273,-8.1273,-8.1382,-8.1346,-8.1273,-8.1273,-8.1346,-8.1418,-8.1418,-8.1418,-8.1382,-8.1309,-8.1416,-8.1555,-8.1446,-8.1686,-8.1852,-8.1717,-8.1919,-8.2154,-8.1989,-8.1538,-8.1122,-8.1012,-8.0296,-7.9499,-7.882,-7.8304,-7.7498,0.0,-7.4845,-7.3877,0.0,0.0,0.0,0.0,0.0,0.0,0.0,-7.1805,-7.1988,-7.1988,-7.1988,-7.2018,-7.2048,0.0,-7.2233,-7.2078,-7.2054,-7.2054,-7.2018,-7.1713,-7.162,-7.1811,-7.1656,-7.1526,-7.1526,-7.1494,-7.1494,-7.1494,-7.1494,-7.1494,-7.1494,-7.1494,-7.1494,-7.1494,-7.1494,-7.1494,-7.1494,-7.1494,-7.1494,-7.1494,0.0,0.0,0.0,0.0,0.0,-8.07,-8.1434,-8.0718,-8.0429,-8.1205,-8.1286,-8.1514,-8.2216,-8.2289,-8.2388,-8.2652,-8.2652,0.0,0.0,0.0,0.0,-8.2511,-8.2318,-8.2213,-8.2289,-8.2034,-8.1971,-8.2097,-8.1971,-8.2065,-8.2382,0.0,0.0,0.0,0.0,0.0,-8.1375,-8.1547,0.0,-8.1128,-8.1128,-8.1128,-8.1165,-8.1817,-8.207,-8.2179,-8.2831,-8.265,-8.207,-8.207,-8.2505,-8.3084,-8.3084,-8.3084,-8.2939,-8.2251,-8.2214,-8.2246,-8.1729,-8.1717,-8.1919,-8.2088,-8.2154,-8.2186,-8.2154,-8.2076,-8.1782,-8.1158,-8.0869,-8.047,-7.9499,-7.8606,-7.7895,-7.7571,-7.6263,-7.5248,0.0,0.0,0.0,0.0,0.0,-7.2114,0.0,0.0,-7.1872,-7.1988,-7.1988,-7.2108,-7.2409,0.0,-7.2321,0.0,-7.2292,-7.227,0.0,0.0,-7.1927,-7.1957,-7.1811,-7.1755,-7.1718,-7.1593,-7.1494,-7.1494,-7.1494,-7.1494,-7.1494,-7.1494,-7.1494,-7.1494,-7.1494,-7.1494,-7.1494,-7.1494,-7.1494,-7.1494,0.0,0.0,0.0,0.0,0.0,0.0,0.0,-8.2171,-8.1934,-8.2341,-8.2378,-8.2527,-8.2904,-8.2941,-8.2971,-8.3024,-8.2964,-8.2964,-8.3024,-8.2964,-8.2904,-8.2941,-8.288,-8.288,-8.2941,-8.2752,-8.2721,-8.2782,-8.2534,-8.2597,-8.2941,0.0,0.0,0.0,0.0,-8.2018,0.0,0.0,0.0,-8.1165,-8.1563,-8.1708,-8.1817,-8.2613,-8.2903,-8.2939,-8.3338,-8.3519,-8.3483,-8.3048,-8.3157,-8.3483,-8.3483,-8.3483,-8.3447,-8.3157,-8.3192,-8.3188,-8.2557,-8.2507,-8.2601,-8.2264,-8.2186,-8.2186,-8.2186,-8.2186,-8.2076,-8.1709,-8.1636,-8.1346,-8.0438,-7.9105,-7.8135,-7.8135,-7.672,-7.5598,-7.5598,0.0,-7.3757,0.0,0.0,0.0,0.0,0.0,0.0,0.0,0.0,-7.2078,-7.2226,0.0,-7.2329,0.0,0.0,0.0,-7.238,0.0,-7.2048,-7.2174,-7.1994,-7.1903,-7.1903,-7.1805,-7.1744,-7.1744,-7.1744,-7.1744,-7.1744,-7.1744,-7.1713,-7.1656,-7.1656,-7.1593,-7.1494,-7.1494,-7.1494,-7.1494,0.0,-8.1803,0.0,0.0,-8.2387,-8.2511,-8.3329,-8.344,-8.3366,-8.3217,-8.318,-8.3254,-8.344,-8.344,-8.3514,-8.37,-8.3544,-8.3544,-8.37,-8.3395,-8.3284,-8.344,-8.3292,-8.318,-8.318,-8.3024,-8.3024,-8.318,-8.2752,-8.2708,-8.2957,0.0,0.0,0.0,0.0,0.0,0.0,0.0,-8.1911,-8.1743,-8.236,-8.2577,-8.2613,-8.3446,-8.3736,-8.3772,-8.3953,-8.4424,-8.4859,-8.4281,-8.4027,-8.4027,-8.4063,-8.4063,-8.4064,-8.4064,-8.4171,-8.4165,-8.3534,-8.3411,-8.3251,-8.2627,-8.2333,-8.2186,-8.2186,-8.2186,-8.2186,-8.2186,-8.2186,-8.2003,-8.1379,-7.9929,-7.8839,-7.8656,-7.7285,-7.6199,-7.5985,0.0,-7.4641,0.0,0.0,0.0,-7.2073,0.0,0.0,0.0,0.0,-7.2018,-7.2108,-7.2263,-7.2358,0.0,0.0,-7.238,-7.2496,0.0,-7.2204,-7.2358,-7.2174,-7.2048,-7.2048,-7.2018,-7.1988,-7.1988,-7.1988,-7.1988,-7.1988,-7.1988,-7.1964,-7.1842,-7.1816,-7.1687,-7.1562,-7.1494,-7.1494,-7.1494,0.0,0.0,0.0,0.0,0.0,-8.3366,-8.4146,-8.4295,-8.4035,-8.3292,-8.318,-8.3477,-8.422,-8.4295,-8.4592,-8.5298,-8.5372,-8.5372,-8.5372,-8.4666,-8.4295,-8.4295,-8.3589,-8.318,-8.318,-8.318,-8.318,-8.318,-8.3151,-8.2779,-8.214,-8.3559,0.0,0.0,0.0,0.0,-8.4008,-8.361,-8.3453,-8.352,-8.3629,-8.3556,-8.3483,-8.4279,-8.4569,-8.4678,-8.5402,-8.5728,-8.5802,-8.5844,-8.577,-8.5693,-8.5808,-8.5845,-8.5736,-8.5227,-8.5223,-8.518,-8.441,-8.3814,-8.3398,-8.3324,-8.2737,-8.2186,-8.2186,-8.2186,-8.2186,-8.2186,-8.2186,-8.2186,-8.2113,-8.1379,-8.0502,-7.98,-7.8925,-7.8013,-7.7243,0.0,-7.5659,-7.4822,0.0,0.0,-7.2511,-7.2292,0.0,0.0,-7.2078,-7.2137,-7.2438,-7.2467,-7.2467,-7.2467,-7.2467,-7.2467,-7.2496,-7.2467,-7.2467,-7.2467,-7.2321,-7.2299,-7.227,-7.2078,-7.1988,-7.1988,-7.1988,-7.1988,-7.1994,-7.1988,-7.1988,-7.1957,-7.1842,-7.1816,-7.1718,-7.1593,-7.1494,-7.1494,0.0,0.0,0.0,0.0,0.0,0.0,0.0,-8.5112,-8.5,-8.4666,-8.4629,-8.474,-8.5075,-8.5112,-8.5261,-8.5558,-8.5503,-8.5503,-8.5595,-8.5207,-8.5021,-8.5112,-8.4815,-8.4629,-8.4629,-8.4629,-8.4629,-8.4629,-8.4447,-8.4299,-8.4183,-8.4602,-8.5053,-8.538,-8.4859,-8.4673,-8.4735,-8.4338,-8.4178,-8.413,-8.4498,-8.4537,-8.4463,-8.515,-8.5402,-8.5438,-8.5878,-8.6025,-8.6062,-8.621,-8.6137,-8.6062,-8.6247,-8.6283,-8.6283,-8.6135,-8.6132,-8.6092,-8.539,-8.4651,-8.4022,-8.3544,-8.281,-8.2186,-8.2186,-8.2186,-8.2186,-8.2186,-8.2186,-8.2186,-8.2186,-8.1525,-8.0901,-8.0571,-7.9433,-7.8479,-7.8148,0.0,0.0,-7.5065,0.0,-7.3898,0.0,-7.2329,0.0,0.0,0.0,-7.2204,-7.2197,-7.2409,-7.2438,-7.2351,0.0,-7.2496,-7.2496,-7.2496,-7.2496,-7.2496,-7.2438,-7.2409,-7.2409,-7.2351,-7.2321,-7.2321,-7.2321,-7.2321,-7.2292,-7.2321,-7.2263,-7.2174,-7.1994,-7.1872,-7.1786,-7.1557,-7.1494,-7.1494,-8.5272,0.0,-8.4986,0.0,-8.5745,-8.5669,-8.5929,-8.5929,-8.6041,-8.6301,-8.6338,-8.6226,-8.5966,-8.5929,-8.6041,-8.6301,-8.6246,-8.6215,-8.6338,-8.6023,-8.5844,-8.5966,-8.5743,0.0,-8.5595,-8.5595,-8.5595,-8.5595,-8.5349,-8.5269,-8.5261,-8.5238,-8.5639,-8.6301,-8.5831,-8.5704,-8.5862,-8.5415,-8.522,-8.5207,-8.5512,-8.559,-8.5519,-8.5843,-8.5986,-8.6061,-8.6137,-8.6174,-8.621,-8.6392,-8.6392,-8.6283,-8.6429,-8.6465,-8.6537,-8.675,-8.6786,-8.6674,-8.6263,-8.5563,-8.4756,-8.3948,-8.3141,-8.248,-8.226,-8.2186,-8.2186,-8.2186,-8.2186,-8.2186,-8.2186,-8.1746,-8.1195,-8.0718,-7.969,-7.8772,-7.8295,-7.7708,0.0,-7.5432,-7.5249,-7.4565,-7.2864,-7.2717,0.0,0.0,0.0,-7.2292,-7.2137,-7.238,-7.2438,-7.2351,0.0,0.0,-7.2496,-7.2496,-7.2496,-7.2496,-7.2496,-7.2496,-7.2496,-7.2496,-7.2496,-7.2496,-7.2496,-7.2496,-7.2496,-7.2496,-7.2438,-7.2321,-7.2174,-7.1994,-7.1811,-7.1656,-7.1526,-7.1494,-8.6001,-8.5768,-8.5595,-8.5595,-8.5595,-8.5855,-8.6672,-8.6784,-8.7081,-8.7935,-8.8047,-8.775,-8.6895,-8.6784,-8.7118,-8.7973,-8.8047,-8.8047,-8.8047,-8.7267,-8.6784,0.0,0.0,-8.5595,-8.5595,-8.5595,-8.5595,-8.5595,-8.5595,-8.5186,-8.4406,-8.5223,-8.6486,-8.801,-8.7155,-8.7173,-8.772,-8.6942,-8.6828,-8.7234,-8.6819,-8.6679,-8.6643,-8.6247,-8.621,-8.6356,-8.6429,-8.6429,-8.6429,-8.6608,-8.6679,-8.6679,-8.6715,-8.6715,-8.675,-8.6925,-8.7031,-8.6995,-8.6995,-8.6407,-8.56,-8.4792,-8.3985,-8.3177,-8.237,-8.2186,-8.2186,-8.2186,-8.2186,-8.2186,-8.2186,-8.2186,-8.1672,-8.0057,-7.98,-7.9213,-7.753,-7.731,0.0,-7.6166,-7.6093,-7.5432,-7.3817,-7.367,0.0,0.0,0.0,-7.2496,-7.2496,-7.2496,-7.2496,-7.2496,-7.2496,-7.2496,-7.2496,-7.2496,-7.2496,-7.2496,-7.2496,-7.2496,-7.2496,-7.2496,-7.2496,-7.2496,-7.2496,-7.2496,-7.2496,-7.2496,-7.2496,-7.2467,-7.2358,-7.2174,-7.1994,-7.1878,-7.1656,-7.1494,-8.7052,-8.708,-8.7211,-8.781,-8.7748,-8.7675,-8.7936,-8.7792,-8.7787,-8.8047,-8.8084,-8.7973,-8.7712,-8.7675,-8.7787,0.0,-8.8084,-8.8084,0.0,-8.7824,-8.7675,-8.7675,-8.7415,-8.7304,-8.7304,-8.7304,-8.7304,-8.7304,-8.7304,-8.7155,-8.6932,-8.7192,-8.7601,-8.8084,-8.7787,-8.7793,-8.8021,-8.7724,-8.7603,-8.76,-8.7332,-8.7095,-8.6891,-8.6608,-8.6465,-8.6429,-8.6573,-8.6572,-8.6644,-8.6856,-8.6891,-8.6891,-8.6891,-8.6891,-8.6925,-8.696,-8.6995,-8.6995,-8.6995,-8.6407,-8.56,-8.4792,-8.4022,-8.3214,-8.237,-8.2186,-8.2186,-8.2186,-8.2186,-8.2186,-8.2186,-8.2186,-8.1856,-8.0791,-8.0167,-7.9396,-7.8332,-7.764,-7.698,-7.6203,-7.6093,-7.5689,-7.4625,-7.4088,0.0,0.0,0.0,0.0,-7.2167,-7.238,-7.2438,-7.2387,-7.2438,-7.2496,-7.2496,-7.2496,-7.2496,-7.2496,-7.2496,-7.2496,-7.2496,-7.2496,-7.2496,-7.2496,-7.2496,-7.2496,-7.2496,-7.2496,-7.2496,-7.2467,-7.2358,-7.2174,-7.1988,-7.1927,-7.1842,-7.1718,-8.809,-8.8166,-8.8353,-8.8879,-8.8823,-8.8708,-8.8708,-8.8533,-8.8384,-8.83,-8.8232,-8.8239,-8.8115,-8.8084,-8.8084,-8.8084,-8.8084,-8.8084,-8.8084,-8.8084,-8.8084,-8.8084,-8.8084,-8.8084,-8.8084,-8.8084,-8.8084,-8.8084,-8.8084,-8.8084,-8.8084,-8.8084,-8.8084,-8.8084,-8.8084,-8.8084,-8.8084,-8.8084,-8.8021,-8.7895,-8.7595,-8.7398,-8.7268,-8.7029,-8.6854,-8.6819,-8.6925,-8.6925,-8.6925,-8.696,-8.6995,-8.6995,-8.6995,-8.6995,-8.6995,-8.6995,-8.6995,-8.6995,-8.6995,-8.6628,-8.604,-8.5233,-8.4462,-8.3581,-8.2443,-8.2186,-8.2186,-8.2186,-8.2186,-8.2186,-8.2186,-8.1929,-8.1489,-8.0681,-7.9874,-7.9066,-7.8222,-7.764,-7.709,-7.6607,-7.657,-7.624,-7.5432,-7.497,-7.4448,0.0,0.0,0.0,0.0,-7.238,-7.238,-7.2387,-7.2438,-7.2496,-7.2496,-7.2496,-7.2496,-7.2496,-7.2496,-7.2496,-7.2496,-7.2496,-7.2496,-7.2496,-7.2496,-7.2496,-7.2496,-7.2496,-7.2496,-7.2496,-7.2416,-7.2263,-7.2114,-7.2114,-7.2024,-7.1903,-8.9047,-8.9047,-8.9047,-8.9047,-8.9047,-8.9019,-8.9019,-8.9019,-8.8879,-8.8592,-8.8525,-8.8444,-8.8208,-8.8146,-8.8146,-8.8146,-8.8115,-8.8084,-8.8084,-8.8084,-8.8084,-8.8084,-8.8084,-8.8084,-8.8084,-8.8084,-8.8084,-8.8084,-8.8084,-8.8084,-8.8084,-8.8084,-8.8084,-8.8084,-8.8084,-8.8084,-8.8084,-8.8084,-8.8084,-8.8053,-8.766,-8.7665,-8.7762,-8.7435,-8.7402,-8.7497,-8.7335,-8.7301,-8.7305,-8.7098,-8.7029,-8.7029,-8.6995,-8.6995,-8.6995,-8.6995,-8.6995,-8.6995,-8.6995,-8.6995,-8.6811,-8.6004,-8.5159,-8.4132,-8.2627,-8.2223,-8.2186,-8.2186,-8.2186,-8.2186,-8.2186,-8.1599,-8.0791,-7.991,-7.9176,-7.8369,-7.742,-7.7273,-7.731,-7.7341,-7.7341,-7.7011,-7.6276,-7.613,-7.5529,-7.4167,0.0,0.0,0.0,-7.2475,-7.2387,-7.2496,-7.2496,-7.2496,-7.2496,-7.2496,-7.2496,-7.2496,-7.2496,-7.2496,-7.2496,-7.2496,-7.2496,-7.2496,-7.2496,-7.2496,-7.2496,-7.2496,-7.2496,-7.2496,-7.2496,-7.2409,-7.2299,-7.2329,-7.2204,-7.2018,-8.9616,-8.9591,-8.9591,-8.9591,-8.9412,-8.9318,-8.9318,-8.9129,-8.8964,-8.8908,-8.8879,-8.8851,-8.8794,-8.8794,-8.8794,-8.8794,-8.8391,-8.8084,-8.8084,-8.8084,-8.8084,-8.8084,-8.8084,-8.8084,-8.8084,-8.8084,-8.8084,-8.8084,-8.8084,-8.8084,-8.8084,-8.8084,-8.8084,-8.8084,-8.8084,-8.8084,-8.8084,-8.8084,-8.8084,-8.8084,-8.799,-8.7889,-8.7762,-8.7697,-8.76,-8.7497,-8.7464,-8.7431,-8.7431,-8.7398,-8.7365,-8.7365,-8.7234,-8.7237,-8.7203,-8.7066,-8.6995,-8.6995,-8.6995,-8.6995,-8.6811,-8.6004,-8.4719,-8.3581,-8.3214,-8.2627,-8.2186,-8.2186,-8.2186,-8.2186,-8.2186,-8.2039,-8.1452,-8.0021,-7.9617,-7.8993,-7.7494,-7.7273,-7.7372,-7.7493,-7.7402,-7.7298,-7.7266,-7.6677,-7.6162,-7.5816,0.0,-7.3692,-7.3717,-7.2805,-7.2387,-7.2496,-7.2496,-7.2496,-7.2496,-7.2496,-7.2496,-7.2496,-7.2496,-7.2496,-7.2496,-7.2496,-7.2496,-7.2496,-7.2496,-7.2496,-7.2496,-7.2496,-7.2496,-7.2496,-7.2496,-7.2409,-7.2329,-7.2409,-7.2351,-7.2233,-8.9982,-8.9958,-8.9958,-8.9887,-8.9766,-8.9642,-8.9566,-8.9438,-8.9307,-8.9211,-8.9184,-8.9129,-8.9019,-8.8992,-8.8992,-8.8992,-8.8708,-8.8503,-8.8503,-8.8354,-8.8263,-8.8263,-8.8263,-8.8263,-8.8263,-8.8263,-8.8239,-8.8084,-8.8239,-8.8239,-8.8084,-8.8239,-8.8239,-8.8084,-8.8084,-8.8084,-8.8084,-8.8084,-8.8084,-8.8084,-8.8084,-8.8021,-8.7958,-8.7958,-8.7858,-8.7762,-8.7697,-8.7665,-8.7595,-8.753,-8.7497,-8.7497,-8.7435,-8.7402,-8.7368,-8.7268,-8.7132,-8.6995,-8.6995,-8.71,-8.6875,-8.5762,-8.4805,-8.3962,-8.3125,-8.2578,-8.2284,-8.2219,-8.2186,-8.2186,-8.2186,-8.1893,-8.1264,-8.0079,-7.9533,-7.884,-7.7616,-7.7372,-7.7341,-7.7463,-7.7433,-7.7433,-7.7463,-7.7179,-7.6862,-7.6523,-7.5529,-7.469,-7.4126,-7.3361,-7.2812,-7.2532,-7.2496,-7.2496,-7.2496,-7.2496,-7.2496,-7.2496,-7.2496,-7.2496,-7.2496,-7.2496,-7.2496,-7.2496,-7.2496,-7.2496,-7.2496,-7.2496,-7.2496,-7.2496,-7.2496,-7.2438,-7.238,-7.2467,-7.2438,-7.238,-9.0205,-9.0205,-9.0182,-9.0029,-9.0006,-8.9982,-8.9863,-8.9839,-8.9766,-8.9541,-8.9489,-8.9449,-8.9184,-8.9157,-8.9157,-8.9129,-8.9129,-8.9102,-8.8992,-8.8737,-8.8592,-8.8592,-8.8592,-8.8592,-8.8592,-8.8592,-8.8473,-8.8239,-8.8473,-8.8473,-8.8239,-8.8473,-8.8444,-8.8239,-8.8239,-8.8208,-8.8177,-8.8177,-8.8146,-8.8084,-8.8084,-8.8084,-8.8084,-8.8084,-8.8084,-8.8084,-8.7927,-8.7863,-8.7794,-8.7628,-8.7595,-8.7595,-8.7563,-8.753,-8.753,-8.7497,-8.7298,-8.7064,-8.7064,-8.72,-8.7003,-8.5618,-8.517,-8.4658,-8.2987,-8.2481,-8.2375,-8.2251,-8.2219,-8.2186,-8.2219,-8.1668,-8.0966,-8.0314,-7.9412,-7.8572,-7.7855,-7.7506,-7.7372,-7.7365,-7.7524,-7.7554,-7.7365,-7.7607,-7.7496,-7.6831,-7.6501,-7.5838,-7.4616,-7.3991,-7.3377,-7.2716,-7.2569,-7.2496,-7.2496,-7.2496,-7.2496,-7.2496,-7.2496,-7.2496,-7.2496,-7.2496,-7.2496,-7.2496,-7.2496,-7.2496,-7.2496,-7.2496,-7.2496,-7.2496,-7.2496,-7.2496,-7.2496,-7.2496,-7.2496,-7.2496,-9.0228,-9.0205,-9.0205,-9.0182,-9.0182,-9.0182,-9.0159,-9.0159,-9.0137,-9.0052,-9.009,-9.0043,-8.9863,-8.9839,-8.979,-8.9667,-8.9667,-8.9464,-8.9019,-8.8964,-8.8936,-8.8936,-8.8936,-8.8936,-8.8936,-8.8936,-8.8908,-8.8851,-8.8908,-8.8908,-8.8851,-8.8908,-8.8908,-8.8851,-8.8851,-8.8708,-8.8444,-8.8444,-8.8293,-8.8084,-8.8084,-8.8084,-8.8084,-8.8084,-8.8084,-8.8084,-8.8053,-8.8053,-8.8053,-8.8021,-8.8021,-8.799,-8.7794,-8.7762,-8.773,-8.7563,-8.7464,-8.7431,-8.7431,-8.7431,-8.7243,-8.6352,-8.5614,-8.4875,-8.3883,-8.3018,-8.2407,-8.2375,-8.2284,-8.2219,-8.2343,-8.2265,-8.1934,-8.1124,-8.0314,-7.9474,-7.8578,-7.7941,-7.7584,-7.7732,-7.7762,-7.7762,-7.7732,-7.7673,-7.7577,-7.7466,-7.6617,-7.6139,-7.603,-7.4559,-7.3634,-7.3523,-7.2863,-7.2496,-7.2496,-7.2496,-7.2496,-7.2496,-7.2496,-7.2496,-7.2496,-7.2496,-7.2496,-7.2496,-7.2496,-7.2496,-7.2496,-7.2496,-7.2496,-7.2496,-7.2496,-7.2496,-7.2496,-7.2496,-7.2496,-7.2496,-9.0443,-9.0443,-9.0383,-9.0317,-9.0317,-9.0295,-9.0228,-9.0205,-9.0205,-9.0205,-9.0205,-9.0182,-9.0098,-9.0113,-9.0029,-8.9911,-8.9887,-8.9766,-8.9438,-8.9318,-8.9238,-8.9238,-8.9238,-8.9238,-8.9238,-8.9238,-8.9157,-8.8992,-8.9157,-8.9157,-8.8992,-8.9157,-8.9157,-8.8992,-8.9037,-8.8954,-8.8794,-8.8804,-8.8642,-8.8323,-8.8323,-8.8239,-8.8084,-8.8084,-8.8084,-8.8084,-8.8084,-8.8084,-8.8084,-8.8084,-8.8084,-8.8084,-8.799,-8.7958,-8.7958,-8.7858,-8.766,-8.753,-8.7628,-8.7665,-8.7364,-8.6201,-8.5639,-8.4984,-8.3577,-8.2954,-8.2628,-8.2439,-8.2444,-8.2476,-8.2571,-8.2571,-8.2307,-8.1588,-8.1022,-8.0235,-7.9013,-7.8467,-7.8129,-7.7747,-7.7813,-7.7871,-7.782,-7.782,-7.782,-7.782,-7.7334,-7.6899,-7.663,-7.5343,-7.4446,-7.3967,-7.3023,-7.2496,-7.2496,-7.2496,-7.2496,-7.2496,-7.2496,-7.2496,-7.2496,-7.2496,-7.2496,-7.2496,-7.2496,-7.2496,-7.2496,-7.2496,-7.2496,-7.2496,-7.2496,-7.2496,-7.2496,-7.2496,-7.2496,-7.2496,-9.0593,-9.0593,-9.0551,-9.0449,-9.0465,-9.0405,-9.0295,-9.0295,-9.0295,-9.0295,-9.0295,-9.0273,-9.025,-9.025,-9.0205,-9.0067,-9.0067,-8.9982,-8.9839,-8.9667,-8.9578,-8.9501,-8.9464,-8.9464,-8.9464,-8.9464,-8.9423,-8.92,-8.9412,-8.9438,-8.928,-8.9464,-8.9464,-8.928,-8.9348,-8.9295,-8.9211,-8.9243,-8.8999,-8.8554,-8.8554,-8.8384,-8.8084,-8.8084,-8.8084,-8.8084,-8.8084,-8.8084,-8.8084,-8.8084,-8.8084,-8.8084,-8.8084,-8.8084,-8.8084,-8.8084,-8.7858,-8.766,-8.7826,-8.7746,-8.7259,-8.5936,-8.5446,-8.4866,-8.3213,-8.2843,-8.2843,-8.2565,-8.2597,-8.2696,-8.2727,-8.2758,-8.2567,-8.2052,-8.1618,-8.0837,-7.9423,-7.906,-7.8595,-7.7754,-7.7908,-7.8014,-7.7842,-7.79,-7.7957,-7.79,-7.7783,-7.7496,-7.6955,-7.5965,-7.494,-7.3942,-7.3026,-7.2553,-7.2553,-7.2524,-7.2496,-7.2496,-7.2496,-7.2496,-7.2496,-7.2496,-7.2496,-7.2496,-7.2496,-7.2496,-7.2496,-7.2496,-7.2496,-7.2496,-7.2496,-7.2496,-7.2496,-7.2496,-7.2496,-7.2496,-9.0593,-9.0593,-9.0572,-9.0572,-9.0572,-9.0572,-9.0572,-9.0551,-9.0551,-9.0551,-9.0551,-9.053,-9.0383,-9.0383,-9.034,-9.0205,-9.0205,-9.0137,-8.9982,-9.0052,-9.0006,-8.9766,-8.9766,-8.9766,-8.9766,-8.9766,-8.9814,-8.9911,-8.9935,-8.9982,-9.0098,-9.0137,-9.0137,-9.0098,-9.0137,-8.9958,-8.9741,-8.9741,-8.9322,-8.8699,-8.8699,-8.8436,-8.8084,-8.8084,-8.8084,-8.8084,-8.8084,-8.8084,-8.8084,-8.8084,-8.8084,-8.8084,-8.8084,-8.8084,-8.8084,-8.8084,-8.8084,-8.8053,-8.8053,-8.7459,-8.6672,-8.5818,-8.5038,-8.4257,-8.3373,-8.3024,-8.2867,-8.2874,-8.2788,-8.2727,-8.2874,-8.2904,-8.2867,-8.2793,-8.2163,-8.1266,-8.0076,-7.9549,-7.8891,-7.7894,-7.808,-7.8221,-7.8014,-7.7871,-7.7762,-7.7614,-7.7614,-7.7487,-7.7261,-7.6059,-7.4681,-7.313,-7.2816,-7.2695,-7.2695,-7.2553,-7.2496,-7.2496,-7.2496,-7.2496,-7.2496,-7.2496,-7.2496,-7.2496,-7.2496,-7.2496,-7.2496,-7.2496,-7.2496,-7.2496,-7.2496,-7.2496,-7.2496,-7.2496,-7.2496,-7.2496,-9.0593,-9.0593,-9.0593,-9.0593,-9.0593,-9.0593,-9.0593,-9.0593,-9.0593,-9.0593,-9.0593,-9.0572,-9.053,-9.053,-9.0487,-9.034,-9.0317,-9.0273,-9.0137,-9.0182,-9.0159,-9.0029,-9.0067,-9.0067,-9.0067,-9.0067,-9.0052,-9.0098,-9.0098,-9.0159,-9.0205,-9.0205,-9.0205,-9.0205,-9.0295,-9.0228,-9.0029,-9.0159,-8.9863,-8.9374,-8.9374,-8.8999,-8.8466,-8.8466,-8.8323,-8.8084,-8.8084,-8.8084,-8.8084,-8.8084,-8.8084,-8.8084,-8.8084,-8.8084,-8.8084,-8.8084,-8.7712,-8.7304,-8.7304,-8.7044,-8.6486,-8.5186,-8.4629,-8.4153,-8.321,-8.3024,-8.3024,-8.2934,-8.2934,-8.3031,-8.3091,-8.3091,-8.3091,-8.3091,-8.2327,-8.1355,-8.0459,-7.9705,-7.8949,-7.8039,-7.8165,-7.8276,-7.8193,-7.8014,-7.7928,-7.8023,-7.7937,-7.7813,-7.7754,-7.6326,-7.4811,-7.3289,-7.3037,-7.2844,-7.2695,-7.2553,-7.2496,-7.2496,-7.2496,-7.2496,-7.2496,-7.2496,-7.2496,-7.2496,-7.2496,-7.2496,-7.2496,-7.2496,-7.2496,-7.2496,-7.2496,-7.2496,-7.2496,-7.2496,-7.2496,-7.2496,-9.0593,-9.0593,-9.0593,-9.0593,-9.0593,-9.0593,-9.0593,-9.0593,-9.0593,-9.0593,-9.0593,-9.0593,-9.0593,-9.0593,-9.0551,-9.0487,-9.0449,-9.0383,-9.0273,-9.0273,-9.025,-9.0205,-9.0205,-9.0205,-9.0205,-9.0205,-9.0228,-9.0273,-9.0273,-9.0295,-9.0317,-9.0317,-9.0317,-9.0317,-9.0405,-9.0405,-9.0317,-9.0405,-9.0228,-8.9839,-8.9839,-8.9452,-8.8889,-8.8889,-8.8642,-8.8293,-8.8293,-8.8208,-8.8084,-8.8084,-8.8084,-8.8084,-8.8084,-8.8084,-8.8047,-8.775,-8.7267,-8.6672,-8.6189,-8.6041,-8.5781,-8.4666,-8.422,-8.3819,-8.3173,-8.3121,-8.3151,-8.3024,-8.3121,-8.318,-8.318,-8.318,-8.3106,-8.2846,-8.2238,-8.1407,-8.0303,-7.9673,-7.9035,-7.8088,-7.8193,-7.8276,-7.8276,-7.8099,-7.8071,-7.8221,-7.8071,-7.782,-7.733,-7.6171,-7.4866,-7.3394,-7.3064,-7.2835,-7.2695,-7.2553,-7.2496,-7.2496,-7.2496,-7.2496,-7.2496,-7.2496,-7.2496,-7.2496,-7.2496,-7.2496,-7.2496,-7.2496,-7.2496,-7.2496,-7.2496,-7.2496,-7.2496,-7.2496,-7.2496,-7.2496,-9.0593,-9.0593,-9.0593,-9.0593,-9.0593,-9.0593,-9.0593,-9.0593,-9.0593,-9.0593,-9.0593,-9.0593,-9.0593,-9.0593,-9.0593,-9.0593,-9.0593,-9.0551,-9.0405,-9.0383,-9.034,-9.0228,-9.0205,-9.0205,-9.0205,-9.0205,-9.0273,-9.0383,-9.0383,-9.0487,-9.0593,-9.0593,-9.0593,-9.0593,-9.0593,-9.0593,-9.0593,-9.0593,-9.0323,-8.9906,-8.9906,-8.969,-8.9272,-8.9272,-8.9044,-8.8691,-8.8691,-8.8436,-8.8115,-8.8115,-8.8115,-8.8115,-8.8084,-8.8115,-8.7929,-8.7044,-8.6784,-8.6449,-8.4815,-8.4406,-8.4369,-8.4369,-8.3775,-8.318,-8.318,-8.318,-8.318,-8.318,-8.318,-8.318,-8.318,-8.318,-8.292,-8.2103,-8.1991,-8.1368,-7.9562,-7.9417,-7.9112,-7.8117,-7.8193,-7.8276,-7.8276,-7.8099,-7.8014,-7.8014,-7.8014,-7.7367,-7.5861,-7.5551,-7.4737,-7.3273,-7.2863,-7.2695,-7.2695,-7.2553,-7.2496,-7.2496,-7.2496,-7.2496,-7.2496,-7.2496,-7.2496,-7.2496,-7.2496,-7.2496,-7.2496,-7.2496,-7.2496,-7.2496,-7.2496,-7.2496,-7.2496,-7.2496,-7.2496,-7.2496,-9.0593,-9.0593,-9.0593,-9.0593,-9.0593,-9.0593,-9.0593,-9.0593,-9.0593,-9.0593,-9.0593,-9.0593,-9.0593,-9.0593,-9.0593,-9.0593,-9.0593,-9.0572,-9.0551,-9.053,-9.053,-9.0487,-9.0487,-9.0487,-9.0487,-9.0487,-9.0508,-9.053,-9.053,-9.0551,-9.0593,-9.0593,-9.0593,-9.0593,-9.0593,-9.0593,-9.0593,-9.0593,-9.053,-9.0383,-9.0383,-9.0106,-8.9739,-8.9739,-8.949,-8.9125,-8.9125,-8.9044,-8.8934,-8.8934,-8.8934,-8.8879,-8.8613,-8.8316,-8.796,-8.7345,-8.6354,-8.5432,-8.4832,-8.4137,-8.3552,-8.3552,-8.3366,-8.318,-8.318,-8.318,-8.318,-8.318,-8.318,-8.318,-8.318,-8.2734,-8.2251,-8.2028,-8.0988,-8.0059,-7.952,-7.8991,-7.8573,-7.8258,-7.8248,-7.8276,-7.8276,-7.8248,-7.8221,-7.8221,-7.8071,-7.7367,-7.5861,-7.5634,-7.4811,-7.3236,-7.3009,-7.2835,-7.2695,-7.2553,-7.2496,-7.2496,-7.2496,-7.2496,-7.2496,-7.2496,-7.2496,-7.2496,-7.2496,-7.2496,-7.2496,-7.2496,-7.2496,-7.2496,-7.2496,-7.2496,-7.2496,-7.2496,-7.2496,-7.2496,-9.0593,-9.0593,-9.0593,-9.0593,-9.0593,-9.0593,-9.0593,-9.0593,-9.0593,-9.0593,-9.0593,-9.0593,-9.0593,-9.0593,-9.0593,-9.0593,-9.0593,-9.0593,-9.0593,-9.0593,-9.0593,-9.0593,-9.0593,-9.0593,-9.0593,-9.0593,-9.0593,-9.0593,-9.0593,-9.0593,-9.0593,-9.0593,-9.0593,-9.0593,-9.0593,-9.0593,-9.0593,-9.0593,-9.0593,-9.0593,-9.0593,-9.0427,-9.019,-9.019,-8.9882,-8.9566,-8.9566,-8.9465,-8.931,-8.931,-8.931,-8.9182,-8.8651,-8.8281,-8.786,-8.6743,-8.5723,-8.489,-8.431,-8.3698,-8.318,-8.318,-8.318,-8.318,-8.318,-8.318,-8.318,-8.318,-8.318,-8.318,-8.318,-8.2511,-8.188,-8.1545,-8.0357,-7.9391,-7.9056,-7.8611,-7.8276,-7.8276,-7.8276,-7.8276,-7.8276,-7.8276,-7.8276,-7.8276,-7.8193,-7.745,-7.5861,-7.5634,-7.4783,-7.3155,-7.2927,-7.2723,-7.261,-7.2524,-7.2496,-7.2496,-7.2553,-7.2553,-7.2496,-7.2553,-7.2553,-7.2496,-7.2496,-7.2496,-7.2496,-7.2496,-7.2496,-7.2496,-7.2496,-7.2496,-7.2496,-7.2496,-7.2496,-7.2496,-9.0593,-9.0593,-9.0593,-9.0593,-9.0593,-9.0593,-9.0593,-9.0593,-9.0593,-9.0593,-9.0593,-9.0593,-9.0593,-9.0593,-9.0593,-9.0593,-9.0593,-9.0593,-9.0593,-9.0593,-9.0593,-9.0593,-9.0593,-9.0593,-9.0593,-9.0593,-9.0593,-9.0593,-9.0593,-9.0593,-9.0593,-9.0593,-9.0593,-9.0593,-9.0593,-9.0593,-9.0593,-9.0593,-9.0593,-9.0593,-9.0593,-9.0593,-9.0593,-9.0593,-9.0323,-8.9953,-8.9953,-8.9739,-8.9439,-8.9439,-8.9338,-8.9149,-8.8418,-8.8079,-8.7612,-8.5596,-8.5027,-8.4721,-8.357,-8.3239,-8.3239,-8.321,-8.318,-8.318,-8.318,-8.318,-8.318,-8.318,-8.318,-8.318,-8.318,-8.2474,-8.162,-8.084,-7.9948,-7.9131,-7.8388,-7.8276,-7.8276,-7.8276,-7.8276,-7.8276,-7.8276,-7.8276,-7.8276,-7.8276,-7.8202,-7.7496,-7.5899,-7.5505,-7.4626,-7.3083,-7.2732,-7.2524,-7.2524,-7.2496,-7.2496,-7.2524,-7.2638,-7.2638,-7.2524,-7.2638,-7.2638,-7.2496,-7.2496,-7.2496,-7.2496,-7.2496,-7.2496,-7.2496,-7.2496,-7.2496,-7.2496,-7.2496,-7.2496,-7.2496,-9.0593,-9.0593,-9.0593,-9.0593,-9.0593,-9.0593,-9.0593,-9.0593,-9.0593,-9.0593,-9.0593,-9.0593,-9.0593,-9.0593,-9.0593,-9.0593,-9.0593,-9.0593,-9.0593,-9.0593,-9.0593,-9.0593,-9.0593,-9.0593,-9.0593,-9.0593,-9.0593,-9.0593,-9.0593,-9.0593,-9.0593,-9.0593,-9.0593,-9.0593,-9.0593,-9.0593,-9.0593,-9.0593,-9.0593,-9.0593,-9.0593,-9.0593,-9.0593,-9.0593,-9.053,-9.0427,-9.0427,-9.0383,-9.0317,-9.0317,-8.986,-8.9206,-8.8743,-8.7885,-8.685,-8.5675,-8.516,-8.4778,-8.3777,-8.3602,-8.3602,-8.3268,-8.318,-8.318,-8.318,-8.318,-8.318,-8.318,-8.318,-8.318,-8.318,-8.1954,-8.0914,-8.0728,-7.9502,-7.8499,-7.8313,-7.8276,-7.8276,-7.8276,-7.8276,-7.8276,-7.8276,-7.8276,-7.8276,-7.8276,-7.7719,-7.6902,-7.5861,-7.5139,-7.428,-7.3182,-7.2982,-7.2844,-7.2667,-7.2553,-7.2553,-7.2667,-7.2695,-7.2695,-7.2667,-7.2695,-7.2638,-7.2496,-7.2496,-7.2496,-7.2496,-7.2496,-7.2496,-7.2496,-7.2496,-7.2496,-7.2496,-7.2496,-7.2496,-7.2496,-9.0593,-9.0593,-9.0593,-9.0593,-9.0593,-9.0593,-9.0593,-9.0593,-9.0593,-9.0593,-9.0593,-9.0593,-9.0593,-9.0593,-9.0593,-9.0593,-9.0593,-9.0593,-9.0593,-9.0593,-9.0593,-9.0593,-9.0593,-9.0593,-9.0593,-9.0593,-9.0593,-9.0593,-9.0593,-9.0593,-9.0593,-9.0593,-9.0593,-9.0593,-9.0593,-9.0593,-9.0593,-9.0593,-9.0593,-9.0593,-9.0593,-9.0593,-9.0593,-9.0593,-9.0593,-9.0593,-9.0593,-9.0593,-9.0555,-9.0135,-8.9676,-8.91,-8.8129,-8.7354,-8.6573,-8.5522,-8.5105,-8.4833,-8.4179,-8.4024,-8.405,-8.3811,-8.3757,-8.3685,-8.3297,-8.318,-8.318,-8.318,-8.318,-8.318,-8.318,-8.1806,-8.0691,-8.0691,-7.9354,-7.8276,-7.8276,-7.8276,-7.8276,-7.8276,-7.8276,-7.8276,-7.8276,-7.8276,-7.8276,-7.8276,-7.7561,-7.6743,-7.5824,-7.4991,-7.4094,-7.3236,-7.3064,-7.2955,-7.2835,-7.2751,-7.2816,-7.2918,-7.2863,-7.2779,-7.2695,-7.2779,-7.2695,-7.2496,-7.2496,-7.2496,-7.2496,-7.2496,-7.2496,-7.2496,-7.2496,-7.2496,-7.2496,-7.2496,-7.2496,-7.2496,-9.0593,-9.0593,-9.0593,-9.0593,-9.0593,-9.0593,-9.0593,-9.0593,-9.0593,-9.0593,-9.0593,-9.0593,-9.0593,-9.0593,-9.0593,-9.0593,-9.0593,-9.0593,-9.0593,-9.0593,-9.0593,-9.0593,-9.0593,-9.0593,-9.0593,-9.0593,-9.0593,-9.0593,-9.0593,-9.0593,-9.0593,-9.0593,-9.0593,-9.0593,-9.0593,-9.0593,-9.0593,-9.0593,-9.0593,-9.0593,-9.0593,-9.0593,-9.0593,-9.0593,-9.0593,-9.0593,-9.0593,-9.0517,-9.0287,-8.9561,-8.9103,-8.8644,-8.7231,-8.6676,-8.6347,-8.5306,-8.5051,-8.5006,-8.4527,-8.4454,-8.4503,-8.443,-8.4405,-8.423,-8.3574,-8.3413,-8.3347,-8.3355,-8.3244,-8.3132,-8.3132,-8.1754,-8.061,-8.0553,-7.9326,-7.8332,-7.8304,-7.8276,-7.8276,-7.8276,-7.8276,-7.8276,-7.8276,-7.8276,-7.8276,-7.8276,-7.7422,-7.653,-7.5824,-7.4789,-7.3892,-7.3262,-7.3091,-7.3037,-7.3037,-7.3009,-7.3064,-7.3199,-7.3064,-7.2927,-7.2751,-7.2899,-7.2751,-7.2496,-7.2496,-7.2496,-7.2496,-7.2524,-7.2524,-7.2524,-7.2524,-7.2524,-7.2524,-7.2496,-7.2496,-7.2496,-9.0593,-9.0593,-9.0593,-9.0593,-9.0593,-9.0593,-9.0593,-9.0593,-9.0593,-9.0593,-9.0593,-9.0593,-9.0593,-9.0593,-9.0593,-9.0593,-9.0593,-9.0593,-9.0593,-9.0593,-9.0593,-9.0593,-9.0593,-9.0593,-9.0593,-9.0593,-9.0593,-9.0593,-9.0593,-9.0593,-9.0593,-9.0593,-9.0593,-9.0593,-9.0593,-9.0593,-9.0593,-9.0593,-9.0593,-9.0593,-9.0593,-9.0593,-9.0593,-9.0593,-9.0593,-9.0593,-9.0593,-9.0135,-8.9447,-8.9332,-8.8339,-8.7116,-8.6887,-8.6275,-8.5604,-8.5154,-8.5224,-8.527,-8.4599,-8.4647,-8.4833,-8.4503,-8.4405,-8.438,-8.4281,-8.4153,-8.405,-8.3918,-8.334,-8.2853,-8.2853,-8.1466,-8.0301,-8.0064,-7.9226,-7.8549,-7.8332,-7.8276,-7.8276,-7.8276,-7.8276,-7.8276,-7.8276,-7.8276,-7.8276,-7.8276,-7.6865,-7.5899,-7.5787,-7.4375,-7.3495,-7.3383,-7.3252,-7.3172,-7.3172,-7.3064,-7.3064,-7.3199,-7.3064,-7.2982,-7.2955,-7.2807,-7.2638,-7.2496,-7.2496,-7.2496,-7.2496,-7.2638,-7.2667,-7.2667,-7.2667,-7.2667,-7.2667,-7.2524,-7.2496,-7.2496,-9.0593,-9.0593,-9.0593,-9.0593,-9.0593,-9.0593,-9.0593,-9.0593,-9.0593,-9.0593,-9.0593,-9.0593,-9.0593,-9.0593,-9.0593,-9.0593,-9.0593,-9.0593,-9.0593,-9.0593,-9.0593,-9.0593,-9.0593,-9.0593,-9.0593,-9.0593,-9.0593,-9.0593,-9.0593,-9.0593,-9.0593,-9.0593,-9.0593,-9.0593,-9.0593,-9.0593,-9.0593,-9.0593,-9.0593,-9.0593,-9.0593,-9.0593,-9.0593,-9.0593,-9.0593,-9.0555,-9.0058,-8.9638,-8.9179,-8.8224,-8.7422,-8.6734,-8.6237,-8.5817,-8.5471,-8.5329,-8.5391,-8.5451,-8.5122,-8.5143,-8.5266,-8.5056,-8.4997,-8.4899,-8.4338,-8.4195,-8.4021,-8.359,-8.2812,-8.2247,-8.2247,-8.1268,-8.038,-8.0062,-7.9299,-7.8645,-7.8332,-7.8276,-7.8276,-7.8276,-7.8276,-7.8276,-7.8276,-7.8276,-7.809,-7.7645,-7.6493,-7.5601,-7.5156,-7.4004,-7.3398,-7.3398,-7.332,-7.3331,-7.3331,-7.3252,-7.3225,-7.3199,-7.3064,-7.2982,-7.2982,-7.2927,-7.2751,-7.261,-7.2723,-7.2788,-7.2788,-7.2872,-7.2872,-7.2872,-7.2751,-7.2667,-7.2582,-7.2524,-7.2496,-7.2496]},{"header":{"parameterUnit":"m.s-1","parameterCategory":1,"la1":30.6,"la2":28.766,"lo1":-90.7593,"lo2":-88.6598,"dy":0.0162,"dx":0.0183,"nx":116,"ny":114,"refTime":"2023-06-09T12:00:00:Z","depth":0,"parameterNumber":3,"parameterNumberName":"V-component_of_WINDS"},"data":[0.0,0.0,0.0,0.0,0.0,0.0,0.0,0.0,0.0,0.0,0.0,0.0,0.0,0.0,0.0,0.0,0.0,0.0,0.0,0.0,0.0,0.0,0.0,0.0,0.0,0.0,0.0,0.0,0.0,0.0,0.0,0.0,0.0,0.0,0.0,0.0,0.0,0.0,0.0,0.0,0.0,0.0,0.0,0.0,0.0,0.0,0.0,0.0,0.0,0.0,0.0,0.0,0.0,0.0,0.0,0.0,0.0,0.0,0.0,0.0,0.0,0.0,0.0,0.0,0.0,0.0,0.0,0.0,0.0,0.0,0.0,0.0,0.0,0.0,0.0,0.0,0.0,0.0,0.0,0.0,0.0,0.0,0.0,0.0,0.0,0.0,0.0,0.0,0.0,0.0,0.0,0.0,0.0,0.0,0.0,0.0,0.0,0.0,0.0,0.0,0.0,0.0,0.0,0.0,0.0,0.0,0.0,0.0,0.0,0.0,0.0,0.0,0.0,0.0,0.0,0.0,0.0,0.0,0.0,0.0,0.0,0.0,0.0,0.0,0.0,0.0,0.0,0.0,0.0,0.0,0.0,0.0,0.0,0.0,0.0,0.0,0.0,0.0,0.0,0.0,0.0,0.0,0.0,0.0,0.0,0.0,0.0,0.0,0.0,0.0,0.0,0.0,0.0,0.0,0.0,0.0,0.0,0.0,0.0,0.0,0.0,0.0,0.0,0.0,0.0,0.0,0.0,0.0,0.0,0.0,0.0,0.0,0.0,0.0,0.0,0.0,0.0,0.0,0.0,0.0,0.0,0.0,0.0,0.0,0.0,0.0,0.0,0.0,0.0,0.0,0.0,0.0,0.0,0.0,0.0,0.0,0.0,0.0,0.0,0.0,0.0,0.0,0.0,0.0,0.0,0.0,0.0,0.0,0.0,0.0,0.0,0.0,0.0,0.0,0.0,0.0,0.0,0.0,0.0,0.0,0.0,0.0,0.0,0.0,0.0,0.0,0.0,0.0,0.0,0.0,0.0,0.0,0.0,0.0,0.0,0.0,0.0,0.0,0.0,0.0,0.0,0.0,0.0,0.0,0.0,0.0,0.0,0.0,0.0,0.0,0.0,0.0,0.0,0.0,0.0,0.0,0.0,0.0,0.0,0.0,0.0,0.0,0.0,0.0,0.0,0.0,0.0,0.0,0.0,0.0,0.0,0.0,0.0,0.0,0.0,0.0,0.0,0.0,0.0,0.0,0.0,0.0,0.0,0.0,0.0,0.0,0.0,0.0,0.0,0.0,0.0,0.0,0.0,0.0,0.0,0.0,0.0,0.0,0.0,0.0,0.0,0.0,0.0,0.0,0.0,0.0,0.0,0.0,0.0,0.0,0.0,0.0,0.0,0.0,0.0,0.0,0.0,0.0,0.0,0.0,0.0,0.0,0.0,0.0,0.0,0.0,0.0,0.0,0.0,0.0,0.0,0.0,0.0,0.0,0.0,0.0,0.0,0.0,0.0,0.0,0.0,0.0,0.0,0.0,0.0,0.0,0.0,0.0,0.0,0.0,0.0,0.0,0.0,0.0,0.0,0.0,0.0,0.0,0.0,0.0,0.0,0.0,0.0,0.0,0.0,0.0,0.0,0.0,0.0,0.0,0.0,0.0,0.0,0.0,0.0,0.0,0.0,0.0,0.0,0.0,0.0,0.0,0.0,0.0,0.0,0.0,0.0,0.0,0.0,0.0,0.0,0.0,0.0,0.0,0.0,0.0,0.0,0.0,0.0,0.0,0.0,0.0,0.0,0.0,0.0,0.0,0.0,0.0,0.0,0.0,0.0,0.0,0.0,0.0,0.0,0.0,0.0,0.0,0.0,0.0,0.0,0.0,0.0,0.0,0.0,0.0,0.0,0.0,0.0,0.0,0.0,0.0,0.0,0.0,0.0,0.0,0.0,0.0,0.0,0.0,0.0,0.0,0.0,0.0,0.0,0.0,0.0,0.0,0.0,0.0,0.0,0.0,0.0,0.0,0.0,0.0,0.0,0.0,0.0,0.0,0.0,0.0,0.0,0.0,0.0,0.0,0.0,0.0,0.0,0.0,0.0,0.0,0.0,0.0,0.0,0.0,0.0,0.0,0.0,0.0,0.0,0.0,0.0,0.0,0.0,0.0,0.0,0.0,0.0,0.0,0.0,0.0,0.0,0.0,0.0,0.0,0.0,0.0,0.0,0.0,0.0,0.0,0.0,0.0,0.0,0.0,0.0,0.0,0.0,0.0,0.0,0.0,0.0,0.0,0.0,0.0,0.0,0.0,0.0,0.0,0.0,0.0,0.0,0.0,0.0,0.0,0.0,0.0,0.0,0.0,0.0,0.0,0.0,0.0,0.0,0.0,0.0,0.0,0.0,0.0,0.0,0.0,0.0,0.0,0.0,0.0,0.0,0.0,0.0,0.0,0.0,0.0,0.0,0.0,0.0,0.0,0.0,0.0,0.0,0.0,0.0,0.0,0.0,0.0,0.0,0.0,0.0,0.0,0.0,0.0,0.0,0.0,0.0,0.0,0.0,0.0,0.0,0.0,0.0,0.0,0.0,0.0,0.0,0.0,0.0,0.0,0.0,0.0,0.0,0.0,0.0,0.0,0.0,0.0,0.0,0.0,0.0,0.0,0.0,0.0,0.0,0.0,0.0,0.0,0.0,0.0,0.0,0.0,0.0,0.0,0.0,0.0,0.0,0.0,0.0,0.0,0.0,0.0,0.0,0.0,0.0,0.0,0.0,0.0,0.0,0.0,0.0,0.0,0.0,0.0,0.0,0.0,0.0,0.0,0.0,0.0,0.0,0.0,0.0,0.0,0.0,0.0,0.0,0.0,0.0,0.0,0.0,0.0,0.0,0.0,0.0,0.0,0.0,0.0,0.0,0.0,0.0,0.0,0.0,0.0,0.0,0.0,0.0,0.0,0.0,0.0,0.0,0.0,0.0,0.0,0.0,0.0,0.0,0.0,0.0,0.0,0.0,0.0,0.0,0.0,0.0,0.0,0.0,0.0,0.0,0.0,0.0,0.0,0.0,0.0,0.0,0.0,0.0,0.0,0.0,0.0,0.0,0.0,0.0,0.0,0.0,0.0,0.0,0.0,0.0,0.0,0.0,0.0,0.0,0.0,0.0,0.0,0.0,0.0,0.0,0.0,0.0,0.0,0.0,0.0,0.0,0.0,0.0,0.0,0.0,0.0,0.0,0.0,0.0,0.0,0.0,0.0,0.0,0.0,0.0,0.0,0.0,0.0,0.0,0.0,0.0,0.0,0.0,0.0,0.0,0.0,0.0,0.0,0.0,0.0,0.0,0.0,0.0,0.0,0.0,0.0,0.0,0.0,0.0,0.0,0.0,0.0,0.0,0.0,0.0,0.0,0.0,0.0,0.0,0.0,0.0,0.0,0.0,0.0,0.0,0.0,0.0,0.0,0.0,0.0,0.0,0.0,0.0,0.0,0.0,0.0,0.0,0.0,0.0,0.0,0.0,0.0,0.0,0.0,0.0,0.0,0.0,0.0,0.0,0.0,0.0,0.0,0.0,0.0,0.0,0.0,0.0,0.0,0.0,0.0,0.0,0.0,0.0,0.0,0.0,0.0,0.0,0.0,0.0,0.0,0.0,0.0,0.0,0.0,0.0,0.0,0.0,0.0,0.0,0.0,0.0,0.0,0.0,0.0,0.0,0.0,0.0,0.0,0.0,0.0,0.0,0.0,0.0,0.0,0.0,0.0,0.0,0.0,0.0,0.0,0.0,0.0,0.0,0.0,0.0,0.0,0.0,0.0,0.0,0.0,0.0,0.0,0.0,0.0,0.0,0.0,0.0,0.0,0.0,0.0,0.0,0.0,0.0,0.0,0.0,0.0,0.0,0.0,0.0,0.0,0.0,0.0,0.0,0.0,0.0,0.0,0.0,0.0,0.0,0.0,0.0,0.0,0.0,0.0,0.0,0.0,0.0,0.0,0.0,0.0,0.0,0.0,0.0,0.0,0.0,0.0,0.0,0.0,0.0,0.0,0.0,0.0,0.0,0.0,0.0,0.0,0.0,0.0,0.0,0.0,0.0,0.0,0.0,0.0,0.0,0.0,0.0,0.0,0.0,0.0,0.0,0.0,0.0,0.0,0.0,0.0,0.0,0.0,0.0,0.0,0.0,0.0,0.0,0.0,0.0,0.0,0.0,0.0,0.0,0.0,0.0,0.0,0.0,0.0,0.0,0.0,0.0,0.0,0.0,0.0,0.0,0.0,0.0,0.0,0.0,0.0,0.0,0.0,0.0,0.0,0.0,0.0,0.0,0.0,0.0,0.0,0.0,0.0,0.0,0.0,0.0,0.0,0.0,0.0,0.0,0.0,0.0,0.0,0.0,0.0,0.0,0.0,0.0,0.0,0.0,0.0,0.0,0.0,0.0,0.0,0.0,0.0,0.0,0.0,0.0,0.0,0.0,0.0,0.0,0.0,0.0,0.0,0.0,0.0,0.0,0.0,0.0,0.0,0.0,0.0,0.0,0.0,0.0,0.0,0.0,0.0,0.0,0.0,0.0,0.0,0.0,0.0,0.0,0.0,0.0,0.0,0.0,0.0,0.0,0.0,0.0,0.0,0.0,0.0,0.0,0.0,0.0,0.0,0.0,0.0,0.0,0.0,0.0,0.0,0.0,0.0,0.0,0.0,0.0,0.0,0.0,0.0,0.0,0.0,0.0,0.0,0.0,0.0,0.0,0.0,0.0,0.0,0.0,0.0,0.0,0.0,0.0,0.0,0.0,0.0,0.0,0.0,0.0,0.0,0.0,0.0,0.0,0.0,0.0,0.0,0.0,0.0,0.0,0.0,0.0,0.0,0.0,0.0,0.0,0.0,0.0,0.0,0.0,0.0,0.0,0.0,0.0,0.0,0.0,0.0,0.0,0.0,0.0,0.0,0.0,0.0,0.0,0.0,0.0,0.0,0.0,0.0,0.0,0.0,0.0,0.0,0.0,0.0,0.0,0.0,0.0,0.0,0.0,0.0,0.0,0.0,0.0,0.0,0.0,0.0,0.0,0.0,0.0,0.0,0.0,0.0,0.0,0.0,0.0,0.0,0.0,0.0,0.0,0.0,0.0,0.0,0.0,0.0,0.0,0.0,0.0,0.0,0.0,0.0,0.0,0.0,0.0,0.0,0.0,0.0,0.0,0.0,0.0,0.0,0.0,0.0,0.0,0.0,0.0,0.0,0.0,0.0,0.0,0.0,0.0,0.0,0.0,0.0,0.0,0.0,0.0,0.0,0.0,0.0,0.0,0.0,0.0,0.0,0.0,0.0,0.0,0.0,0.0,0.0,0.0,0.0,0.0,0.0,0.0,0.0,0.0,0.0,0.0,0.0,0.0,0.0,0.0,0.0,0.0,0.0,0.0,0.0,0.0,0.0,0.0,0.0,0.0,0.0,0.0,0.0,0.0,0.0,0.0,0.0,0.0,0.0,0.0,0.0,0.0,0.0,0.0,0.0,0.0,0.0,0.0,0.0,0.0,0.0,0.0,0.0,0.0,0.0,0.0,0.0,0.0,0.0,0.0,0.0,0.0,0.0,0.0,0.0,0.0,0.0,0.0,0.0,0.0,0.0,0.0,0.0,0.0,0.0,0.0,0.0,0.0,0.0,0.0,0.0,0.0,0.0,0.0,0.0,0.0,0.0,0.0,0.0,0.0,0.0,0.0,0.0,0.0,0.0,0.0,0.0,0.0,0.0,0.0,0.0,0.0,0.0,0.0,0.0,0.0,0.0,0.0,0.0,0.0,0.0,0.0,0.0,0.0,0.0,0.0,0.0,0.0,0.0,0.0,0.0,0.0,0.0,0.0,0.0,0.0,0.0,0.0,0.0,0.0,0.0,0.0,0.0,0.0,0.0,0.0,0.0,0.0,0.0,0.0,0.0,0.0,0.0,0.0,0.0,0.0,0.0,0.0,0.0,0.0,0.0,0.0,0.0,0.0,0.0,0.0,0.0,0.0,0.0,0.0,0.0,0.0,0.0,0.0,0.0,0.0,0.0,0.0,0.0,0.0,0.0,0.0,0.0,0.0,0.0,0.0,0.0,0.0,0.0,0.0,0.0,0.0,0.0,-3.4422,0.0,0.0,0.0,0.0,0.0,0.0,0.0,0.0,0.0,0.0,0.0,0.0,0.0,0.0,0.0,0.0,0.0,0.0,0.0,0.0,0.0,0.0,0.0,0.0,0.0,0.0,0.0,0.0,0.0,0.0,0.0,0.0,0.0,0.0,0.0,0.0,0.0,0.0,0.0,0.0,0.0,0.0,0.0,0.0,0.0,0.0,0.0,0.0,0.0,0.0,0.0,0.0,0.0,0.0,0.0,0.0,0.0,0.0,0.0,0.0,0.0,0.0,0.0,0.0,0.0,0.0,0.0,0.0,0.0,0.0,0.0,0.0,0.0,0.0,0.0,0.0,0.0,0.0,0.0,0.0,0.0,0.0,0.0,0.0,0.0,0.0,0.0,0.0,0.0,0.0,0.0,0.0,0.0,0.0,0.0,0.0,0.0,0.0,0.0,0.0,0.0,0.0,0.0,0.0,0.0,0.0,0.0,0.0,0.0,0.0,0.0,0.0,0.0,0.0,0.0,0.0,-3.5131,0.0,0.0,0.0,0.0,0.0,0.0,0.0,0.0,0.0,0.0,0.0,0.0,0.0,0.0,0.0,0.0,0.0,0.0,0.0,0.0,0.0,0.0,0.0,0.0,0.0,0.0,0.0,0.0,0.0,0.0,0.0,0.0,0.0,0.0,0.0,0.0,0.0,0.0,0.0,0.0,0.0,0.0,0.0,0.0,0.0,0.0,0.0,0.0,0.0,0.0,0.0,0.0,0.0,0.0,0.0,0.0,0.0,0.0,0.0,0.0,0.0,0.0,0.0,0.0,0.0,0.0,0.0,0.0,0.0,0.0,0.0,0.0,0.0,0.0,0.0,0.0,0.0,0.0,0.0,0.0,0.0,0.0,0.0,0.0,0.0,0.0,0.0,0.0,0.0,0.0,0.0,0.0,0.0,0.0,0.0,0.0,0.0,0.0,0.0,0.0,0.0,0.0,0.0,0.0,0.0,0.0,0.0,0.0,-3.6016,-3.6016,-3.6016,-3.6268,-3.6132,-3.5626,-3.6539,-3.6403,-3.5743,-3.6248,0.0,0.0,0.0,0.0,0.0,0.0,0.0,0.0,0.0,0.0,0.0,0.0,0.0,0.0,0.0,0.0,0.0,0.0,0.0,0.0,0.0,0.0,0.0,0.0,0.0,0.0,0.0,0.0,0.0,0.0,0.0,0.0,0.0,0.0,0.0,0.0,0.0,0.0,-2.2587,-2.3582,-2.4066,-2.4204,0.0,0.0,0.0,0.0,0.0,0.0,0.0,0.0,0.0,0.0,0.0,0.0,0.0,0.0,0.0,0.0,0.0,0.0,0.0,0.0,0.0,0.0,0.0,0.0,0.0,0.0,0.0,0.0,0.0,0.0,0.0,0.0,0.0,0.0,0.0,0.0,0.0,0.0,0.0,0.0,0.0,0.0,0.0,0.0,-3.0963,-3.1016,0.0,0.0,0.0,0.0,0.0,0.0,0.0,0.0,0.0,0.0,0.0,0.0,0.0,-3.551,-3.6729,-3.584,-3.5743,-3.6451,-3.6152,-3.6016,-3.6016,-3.6084,-3.6016,-3.5947,-3.6084,0.0,-3.6384,-3.6451,0.0,0.0,0.0,0.0,0.0,0.0,0.0,0.0,0.0,0.0,0.0,0.0,0.0,0.0,0.0,0.0,0.0,0.0,0.0,0.0,0.0,0.0,0.0,0.0,0.0,0.0,0.0,0.0,0.0,0.0,0.0,0.0,0.0,0.0,0.0,0.0,-2.2359,-2.2581,-2.288,-2.3916,-2.4763,-2.5408,-2.6126,-2.5864,-2.4804,-2.4561,0.0,0.0,0.0,0.0,0.0,0.0,0.0,0.0,0.0,0.0,0.0,0.0,0.0,0.0,0.0,0.0,0.0,0.0,0.0,0.0,0.0,0.0,0.0,0.0,0.0,0.0,0.0,0.0,0.0,0.0,0.0,0.0,0.0,0.0,0.0,0.0,0.0,0.0,0.0,-3.1684,-3.2552,-3.3039,-3.2845,-3.295,0.0,0.0,0.0,0.0,0.0,0.0,0.0,0.0,0.0,-3.5675,-3.5792,-3.5996,-3.6491,-3.6016,-3.5947,-3.62,-3.6338,-3.6387,-3.6387,-3.6641,-3.6738,-3.6738,-3.6738,-3.6808,-3.6956,-3.6649,-3.6384,-3.6219,0.0,0.0,0.0,0.0,-3.5073,-3.5332,0.0,0.0,0.0,0.0,0.0,0.0,0.0,0.0,0.0,0.0,0.0,0.0,0.0,0.0,0.0,-2.1306,0.0,0.0,0.0,0.0,0.0,0.0,0.0,0.0,0.0,0.0,0.0,0.0,-2.271,-2.2995,-2.3479,-2.4533,-2.5517,-2.6493,-2.7461,-2.7197,-2.6121,-2.5797,-2.5486,0.0,0.0,0.0,0.0,0.0,0.0,0.0,0.0,0.0,0.0,0.0,0.0,0.0,0.0,0.0,0.0,0.0,0.0,0.0,0.0,0.0,0.0,0.0,0.0,0.0,0.0,0.0,0.0,0.0,0.0,0.0,0.0,0.0,0.0,0.0,0.0,0.0,0.0,-3.2832,-3.3713,-3.4655,-3.4283,-3.4134,0.0,0.0,0.0,0.0,0.0,0.0,-3.5295,-3.5743,-3.5879,-3.5626,-3.6132,-3.6327,-3.6191,-3.6191,-3.625,-3.6348,-3.668,-3.6836,-3.6836,-3.7148,-3.7305,-3.7305,-3.7305,-3.7305,-3.7246,-3.6858,-3.6397,-3.6004,-3.621,-3.6004,-3.552,-3.552,-3.5711,-3.6049,0.0,0.0,0.0,0.0,0.0,0.0,0.0,0.0,0.0,0.0,0.0,0.0,0.0,0.0,-2.132,-2.1642,-2.1979,-2.2052,0.0,0.0,0.0,0.0,0.0,0.0,0.0,0.0,0.0,-2.2623,-2.293,-2.3589,-2.4548,-2.5517,-2.6554,-2.7461,-2.8498,-2.8501,-2.7768,-2.7491,-2.7021,-2.6372,0.0,0.0,0.0,0.0,0.0,0.0,0.0,0.0,0.0,0.0,0.0,0.0,0.0,0.0,0.0,0.0,0.0,0.0,0.0,0.0,0.0,0.0,0.0,0.0,0.0,0.0,0.0,0.0,0.0,0.0,0.0,0.0,0.0,0.0,0.0,0.0,0.0,0.0,0.0,-3.5151,-3.5191,0.0,0.0,0.0,0.0,-3.5957,-3.6228,-3.6431,-3.6451,-3.6132,-3.6016,-3.5947,-3.6016,-3.6211,-3.6641,-3.6641,-3.6836,-3.7226,-3.7266,-3.7266,-3.7266,-3.7285,-3.7305,-3.7305,-3.7305,-3.7305,-3.7285,-3.7246,-3.7226,-3.7226,-3.7226,-3.7226,-3.7156,-3.7156,-3.7176,-3.7266,0.0,0.0,0.0,0.0,0.0,0.0,0.0,0.0,0.0,0.0,0.0,0.0,0.0,-2.1203,-2.1657,-2.1979,-2.2476,-2.2637,-2.2315,0.0,0.0,0.0,0.0,0.0,0.0,0.0,-2.3254,-2.3871,-2.3358,-2.3976,-2.5578,-2.5288,-2.6006,-2.7521,-2.7882,-2.823,-2.8596,-2.8504,-2.817,-2.78,-2.7809,-2.7444,0.0,0.0,0.0,0.0,0.0,0.0,0.0,0.0,0.0,0.0,0.0,0.0,0.0,0.0,0.0,0.0,0.0,0.0,0.0,0.0,0.0,0.0,0.0,0.0,0.0,0.0,0.0,0.0,0.0,0.0,0.0,0.0,0.0,0.0,0.0,0.0,0.0,-3.589,-3.5638,0.0,-3.6234,-3.5984,-3.5975,-3.6336,-3.6268,-3.62,-3.62,-3.6358,-3.6445,-3.6445,-3.6699,-3.6914,-3.707,-3.707,-3.7148,-3.7305,-3.7578,-3.7695,-3.7715,-3.7988,-3.8125,-3.8125,-3.8125,-3.8125,-3.8125,-3.8125,-3.7793,-3.7305,-3.7305,-3.7305,-3.7305,-3.7305,-3.7461,-3.7695,0.0,0.0,0.0,0.0,0.0,0.0,0.0,0.0,0.0,0.0,0.0,0.0,0.0,0.0,0.0,-2.2169,-2.2754,-2.2974,-2.2637,0.0,0.0,0.0,0.0,0.0,0.0,-2.3003,-2.3417,-2.41,-2.379,-2.4471,-2.6067,-2.5762,-2.6432,-2.8002,-2.8002,-2.8451,-2.9177,-2.9177,-2.9057,-2.8932,-2.9209,-2.8824,-2.7983,0.0,0.0,0.0,0.0,0.0,0.0,0.0,0.0,0.0,0.0,0.0,0.0,0.0,0.0,0.0,0.0,0.0,0.0,0.0,0.0,0.0,0.0,0.0,0.0,0.0,0.0,0.0,0.0,0.0,0.0,0.0,0.0,0.0,0.0,0.0,-3.5764,-3.635,-3.5975,-3.5947,-3.6674,-3.6084,-3.5879,-3.6355,-3.6289,-3.623,-3.623,-3.6641,-3.6875,-3.6875,-3.7148,-3.7363,-3.75,-3.7656,-3.7793,-3.7949,-3.8379,-3.8594,-3.8594,-3.8887,-3.9023,-3.9023,-3.9023,-3.9023,-3.9023,-3.9023,-3.8594,-3.793,-3.7793,-3.7734,-3.7734,-3.7734,-3.791,-3.8144,0.0,0.0,0.0,0.0,0.0,0.0,0.0,0.0,0.0,0.0,0.0,0.0,0.0,0.0,0.0,0.0,0.0,0.0,-2.2652,0.0,0.0,0.0,0.0,0.0,0.0,0.0,0.0,-2.3168,-2.4115,-2.5165,-2.6128,-2.7099,-2.8062,-2.8975,-2.8993,-2.9214,-2.9562,-2.9659,-2.9678,-2.9635,-2.973,-2.9502,-2.9092,0.0,0.0,0.0,0.0,0.0,0.0,0.0,0.0,0.0,0.0,0.0,0.0,0.0,0.0,0.0,0.0,0.0,0.0,0.0,0.0,0.0,0.0,0.0,0.0,0.0,0.0,0.0,0.0,0.0,0.0,0.0,0.0,0.0,-3.5351,-3.517,-3.5326,-3.6324,-3.62,-3.6016,-3.6016,-3.6035,-3.6035,-3.6035,-3.6445,-3.668,-3.668,-3.709,-3.7324,-3.7344,-3.7344,-3.7559,-3.7988,-3.8398,-3.8828,-3.9238,-3.9687,-3.9902,-3.9902,-3.9902,-3.9902,-3.9902,-3.9902,-3.9902,-3.9902,-3.9902,-3.9629,-3.918,-3.875,-3.8594,-3.8574,-3.8574,-3.8574,-3.8647,0.0,0.0,0.0,0.0,0.0,0.0,0.0,0.0,0.0,0.0,0.0,0.0,0.0,0.0,0.0,0.0,0.0,0.0,0.0,0.0,0.0,0.0,0.0,0.0,0.0,0.0,0.0,0.0,0.0,-2.5456,-2.7099,-2.7401,-2.8062,-2.8993,-2.9287,-2.947,-2.9678,-3.0204,-3.0461,-3.0461,-3.0508,-3.013,-2.952,0.0,0.0,0.0,0.0,0.0,0.0,0.0,0.0,0.0,0.0,0.0,0.0,0.0,0.0,0.0,0.0,0.0,0.0,0.0,0.0,0.0,0.0,0.0,0.0,0.0,0.0,0.0,0.0,0.0,0.0,0.0,0.0,-3.5472,-3.5697,-3.5712,-3.5811,-3.6132,-3.6084,-3.6016,-3.6016,-3.6309,-3.6484,-3.6484,-3.6894,-3.7129,-3.7129,-3.7519,-3.7891,-3.8223,-3.8516,-3.8887,-3.9355,-3.9473,-3.959,-3.9707,-3.9824,-3.9902,-3.9902,-3.9902,-3.9902,-3.9902,-3.9902,-3.9902,-3.9902,-3.9902,-3.9824,-3.9668,-3.9199,-3.8848,-3.8574,-3.8574,-3.8574,-3.8647,0.0,0.0,0.0,0.0,0.0,0.0,0.0,0.0,0.0,0.0,0.0,0.0,0.0,0.0,0.0,0.0,0.0,0.0,0.0,0.0,0.0,0.0,0.0,0.0,0.0,0.0,0.0,0.0,0.0,0.0,-2.6311,-2.7099,-2.7822,-2.8397,-2.9216,-2.9672,-2.9874,-3.0516,-3.0882,-3.1029,-3.1029,-3.071,-3.0194,-2.9867,-2.9633,-2.934,-2.8804,-2.8734,-2.8905,-2.8614,0.0,0.0,0.0,0.0,0.0,0.0,0.0,0.0,0.0,0.0,0.0,0.0,0.0,0.0,0.0,0.0,0.0,0.0,0.0,0.0,0.0,0.0,0.0,0.0,-3.5297,-3.5734,-3.5886,-3.5995,-3.6016,-3.6016,-3.6016,-3.6094,-3.6269,-3.6523,-3.6738,-3.6914,-3.7324,-3.7559,-3.7559,-3.8125,-3.8574,-3.8828,-3.9258,-3.9629,-3.9902,-4.0078,-4.0156,-4.0156,-4.0351,-4.043,-4.043,-4.043,-4.043,-4.043,-4.043,-4.043,-4.043,-4.043,-4.0332,0.0,0.0,0.0,0.0,0.0,-3.9121,-3.9101,0.0,0.0,0.0,0.0,0.0,0.0,0.0,0.0,0.0,0.0,0.0,0.0,0.0,0.0,0.0,0.0,0.0,0.0,0.0,0.0,0.0,0.0,0.0,0.0,0.0,0.0,0.0,0.0,0.0,0.0,0.0,-2.6614,-2.7461,-2.7418,-2.8949,-2.9794,-3.0036,-3.0599,-3.1047,-3.1377,-3.1377,-3.1184,-3.0908,-3.0564,-3.0229,-2.9903,-2.9582,-2.9457,-2.944,-2.9341,0.0,0.0,0.0,0.0,0.0,0.0,0.0,0.0,0.0,0.0,0.0,0.0,0.0,0.0,0.0,0.0,0.0,0.0,0.0,0.0,0.0,0.0,0.0,0.0,-3.5743,-3.6016,-3.6016,-3.6055,-3.6074,-3.6035,-3.6055,-3.625,-3.6641,-3.6758,-3.6973,-3.7344,-3.7754,-3.8027,-3.8066,0.0,0.0,0.0,0.0,-3.998,-4.0039,-4.0449,-4.0664,-4.0664,-4.1113,-4.1308,-4.1308,-4.1269,-4.125,-4.125,-4.1191,-4.1172,-4.1172,-4.1172,-4.0937,-4.047,-4.0078,-3.9902,-3.9902,-3.9902,-3.9902,-3.9768,0.0,0.0,0.0,0.0,0.0,0.0,0.0,0.0,0.0,0.0,0.0,0.0,0.0,0.0,0.0,0.0,0.0,0.0,0.0,0.0,0.0,0.0,0.0,0.0,0.0,0.0,0.0,0.0,0.0,0.0,0.0,0.0,-2.7099,-2.6466,-2.8949,-2.9679,-2.91,-3.0638,-3.1304,-3.1377,-3.1377,-3.1377,-3.1313,-3.124,-3.1139,-3.1057,-3.0984,-3.0947,-3.0911,-3.0284,-3.0329,-3.0462,-2.9885,0.0,0.0,0.0,0.0,0.0,0.0,0.0,0.0,0.0,0.0,0.0,0.0,0.0,0.0,0.0,0.0,0.0,0.0,0.0,0.0,-3.5401,-3.5743,-3.6016,-3.6016,-3.6328,-3.6406,-3.6055,-3.6328,-3.6582,-3.666,-3.7285,-3.7715,-3.7793,-3.8203,-3.8594,-3.8926,-3.9101,-3.9531,-4.0254,-4.0351,-4.0566,-4.0918,-4.1348,-4.1543,-4.1562,0.0,0.0,-4.2168,-4.1836,-4.168,-4.166,-4.1328,-4.1172,-4.1172,-4.1172,-4.0958,-4.0472,-4.0043,-3.9902,-3.9902,-3.9902,-3.9902,-3.9883,0.0,0.0,0.0,0.0,0.0,0.0,0.0,0.0,0.0,0.0,0.0,0.0,0.0,0.0,0.0,0.0,0.0,0.0,0.0,0.0,0.0,0.0,0.0,0.0,0.0,0.0,0.0,0.0,0.0,0.0,0.0,0.0,0.0,-2.6222,-2.8959,-2.9937,-2.9556,-3.0838,-3.112,-3.0667,-3.1184,-3.1055,-3.0667,-3.1184,-3.1377,-3.1377,-3.1377,-3.1377,-3.1341,-3.0966,-3.0974,-3.112,-3.0944,-3.1085,-3.1157,0.0,0.0,0.0,0.0,0.0,0.0,0.0,0.0,0.0,0.0,0.0,0.0,0.0,0.0,-3.3922,0.0,0.0,-3.5264,-3.5489,-3.5743,-3.6025,-3.6034,-3.6247,-3.6374,-3.6367,-3.6719,-3.707,-3.7285,-3.7676,-3.8008,-3.8223,-3.8652,-3.8984,-3.9199,-3.9629,-4.0059,-4.0508,-4.0937,-4.1269,-4.1484,-4.1894,-4.2109,-4.2109,-4.2324,-4.2422,-4.2422,-4.2207,-4.2109,-4.2109,-4.1894,-4.1737,-4.15,-4.1262,-4.089,-4.0483,-4.0297,-4.0164,-4.0201,-3.999,-4.0067,-4.0105,0.0,0.0,0.0,0.0,0.0,0.0,0.0,0.0,0.0,0.0,0.0,0.0,0.0,0.0,0.0,0.0,0.0,0.0,0.0,0.0,0.0,0.0,0.0,0.0,0.0,0.0,0.0,0.0,0.0,0.0,0.0,0.0,0.0,-2.5917,-2.865,-2.9894,-2.9992,-3.0984,-3.0797,-2.987,-3.0732,-3.0455,-2.9609,-3.0455,-3.0908,-3.112,-3.1313,-3.1249,-3.112,-3.1313,-3.1433,-3.1561,-3.1909,-3.1913,-3.1721,-3.118,-3.135,0.0,0.0,0.0,0.0,0.0,0.0,0.0,0.0,0.0,-3.334,-3.334,-3.3803,-3.4301,-3.437,-3.4921,-3.544,-3.5517,-3.5791,-3.6014,-3.6093,-3.6157,-3.6355,-3.6705,-3.7015,-3.7345,-3.7747,-3.7942,-3.8248,-3.8672,-3.9008,-3.93,-3.9453,-3.9985,-4.0452,-4.0762,-4.1367,-4.1757,-4.1914,-4.2344,-4.2558,-4.2558,-4.2637,-4.2676,-4.2676,-4.2517,-4.2398,-4.2398,-4.222,-4.1959,-4.1637,-4.1252,-4.0882,-4.0481,-4.0481,-4.0512,-4.0426,-4.0037,-4.0137,-4.0237,0.0,0.0,0.0,0.0,0.0,0.0,0.0,0.0,0.0,0.0,0.0,0.0,0.0,0.0,0.0,0.0,0.0,0.0,0.0,0.0,0.0,0.0,0.0,0.0,0.0,0.0,0.0,0.0,0.0,0.0,0.0,0.0,0.0,0.0,-2.7639,-2.886,-2.8975,-3.0646,-3.0797,-2.9805,-2.9935,-2.9347,-2.8411,-2.8543,-2.9134,-3.0065,-3.1055,-3.0797,-3.013,-3.1055,-3.1616,-3.1946,-3.2001,-3.2429,-3.2733,-3.1425,0.0,-3.18,-3.0688,-3.1194,-3.2209,-3.2929,-3.3156,-3.3248,0.0,0.0,-3.3743,-3.3743,-3.378,-3.3955,-3.4301,-3.4715,-3.5104,-3.5464,-3.5819,-3.6112,-3.611,-3.6436,-3.6736,-3.6808,-3.6846,-3.7028,-3.7427,-3.8121,-3.8732,-3.9121,-3.9157,-3.9583,-4.0275,-3.9779,-4.0104,-4.1641,-4.1422,-4.1575,-4.2344,-4.2793,-4.3008,-4.3008,-4.3379,-4.3555,-4.3555,-4.2756,-4.2438,-4.2337,-4.1566,-4.1252,-4.1171,-4.109,-4.089,-4.0509,-4.0509,-4.049,-4.0441,-4.0028,-3.9902,-3.9981,0.0,0.0,0.0,0.0,0.0,0.0,0.0,0.0,0.0,0.0,0.0,0.0,0.0,0.0,0.0,0.0,0.0,0.0,0.0,0.0,0.0,0.0,0.0,0.0,0.0,0.0,0.0,0.0,0.0,0.0,0.0,0.0,0.0,0.0,0.0,-2.7773,-2.7824,-2.9004,-2.8937,-2.8031,-2.9282,-2.8757,-2.7435,-2.8691,-2.8625,-2.8097,-2.9413,-2.9609,0.0,0.0,-3.1067,-3.1511,-3.2144,-3.2454,-3.244,-3.1858,-3.185,0.0,-3.2061,-3.2244,0.0,0.0,-3.356,-3.3615,-3.378,-3.3817,-3.3817,-3.3817,-3.3955,-3.4094,-3.4094,-3.4695,-3.525,0.0,-3.5736,-3.6129,-3.6115,-3.6321,-3.6455,-3.6459,-3.6627,-3.7072,-3.7718,-3.8042,-3.8422,-3.882,-3.909,-3.9414,-3.9759,-3.9907,-4.0483,-4.1382,-4.1484,-4.189,-4.2812,-4.2751,-4.2798,-4.3128,-4.2972,-4.2965,-4.2965,-4.2544,-4.2385,-4.2366,-4.1699,-4.1459,-4.1459,-4.1211,-4.0832,-4.0546,-4.0546,-4.0398,-4.014,-3.995,-4.0061,-4.024,0.0,0.0,0.0,0.0,0.0,0.0,0.0,0.0,0.0,0.0,0.0,0.0,0.0,0.0,0.0,0.0,0.0,0.0,0.0,0.0,0.0,0.0,0.0,0.0,0.0,0.0,0.0,0.0,0.0,0.0,0.0,0.0,0.0,0.0,0.0,-2.6788,-2.7109,-2.78,-2.7471,-2.6718,-2.8296,-2.7833,-2.6383,-2.7899,-2.7567,-2.645,-2.818,-2.8625,0.0,0.0,-3.0412,-3.0915,-3.1666,-3.1917,-3.193,-3.1681,-3.1804,-3.2118,-3.2804,0.0,0.0,-3.3605,-3.3817,-3.3817,-3.3817,-3.3817,-3.3817,-3.3817,-3.4117,-3.433,-3.4051,-3.4803,0.0,-3.5213,-3.5706,-3.6134,-3.6163,-3.6237,-3.622,-3.6329,-3.6659,-3.7143,-3.7877,-3.8141,-3.8349,-3.8746,-3.9085,-3.9445,-3.9637,-3.9949,-4.0542,-4.133,-4.1455,-4.1998,-4.2934,-4.2582,-4.2569,-4.2902,-4.2569,-4.2402,-4.2402,-4.2235,-4.2151,-4.1984,-4.1714,-4.1546,-4.1546,-4.1229,-4.0895,-4.0639,-4.0639,-4.0538,-4.0262,-4.0262,-4.028,-4.0258,0.0,0.0,0.0,0.0,0.0,0.0,0.0,0.0,0.0,0.0,0.0,0.0,0.0,0.0,0.0,0.0,0.0,0.0,0.0,0.0,0.0,0.0,0.0,0.0,0.0,0.0,0.0,0.0,0.0,0.0,0.0,0.0,0.0,0.0,0.0,0.0,-2.7156,-2.752,-2.7311,-2.6584,-2.6651,-2.6048,-2.5119,-2.5187,-2.5187,-2.5457,-2.7899,0.0,0.0,0.0,-2.982,-3.0348,-3.0081,-3.0734,0.0,-3.0771,-3.1063,0.0,0.0,0.0,-3.34,-3.3747,-3.3817,-3.3817,-3.3817,-3.3817,-3.3817,-3.3817,-3.411,-3.4385,-3.4385,-3.5018,-3.5569,-3.5595,-3.596,-3.6181,-3.622,-3.6182,-3.6347,-3.6769,-3.6749,-3.7136,0.0,-3.8387,-3.8871,-3.9277,-3.9265,-3.9659,-4.0451,-3.9708,-3.9999,-4.1619,-4.1346,-4.1553,-4.2383,-4.2402,-4.2402,-4.2402,-4.2402,-4.2402,-4.2402,-4.1965,-4.1546,-4.1145,-4.1145,-4.1145,-4.1145,-4.1145,-4.106,-4.1042,-4.1042,-4.1024,-4.1024,-4.1024,-4.0612,-3.9932,0.0,0.0,0.0,0.0,0.0,0.0,0.0,0.0,0.0,0.0,0.0,0.0,0.0,0.0,0.0,0.0,0.0,0.0,0.0,0.0,0.0,0.0,0.0,0.0,0.0,0.0,0.0,0.0,0.0,0.0,0.0,0.0,0.0,0.0,0.0,0.0,0.0,-2.5459,-2.561,-2.5659,-2.6316,-2.5981,-2.5187,-2.5846,-2.5659,-2.5255,0.0,0.0,0.0,0.0,0.0,0.0,-3.0088,0.0,0.0,-3.1132,-3.1427,-3.1756,0.0,0.0,-3.34,-3.3747,-3.3817,-3.3817,-3.3817,-3.3817,-3.389,-3.4147,-3.4312,-3.4477,-3.477,-3.5227,-3.5612,-3.5595,-3.5907,-3.6202,-3.6182,-3.6457,-3.6677,-3.6749,-3.7301,0.0,0.0,0.0,0.0,-3.8813,-3.9043,-3.932,-3.9628,-3.9921,-4.0427,-4.1264,-4.1212,-4.15,-4.2402,-4.1816,-4.1649,-4.1965,-4.1649,-4.1565,-4.1565,-4.1378,-4.121,-4.106,-4.106,-4.106,-4.106,-4.106,-4.106,-4.106,-4.106,-4.106,-4.106,-4.106,-4.0961,-4.074,0.0,0.0,0.0,0.0,0.0,0.0,0.0,0.0,0.0,0.0,0.0,0.0,0.0,0.0,0.0,0.0,0.0,0.0,0.0,0.0,0.0,0.0,0.0,0.0,0.0,0.0,0.0,0.0,0.0,0.0,0.0,0.0,0.0,0.0,0.0,0.0,0.0,0.0,-2.4583,-2.4958,-2.5734,-2.5659,-2.5187,-2.5846,-2.5659,0.0,0.0,0.0,0.0,0.0,0.0,0.0,0.0,-2.973,-3.0428,-3.101,-3.1651,-3.2351,0.0,-3.326,-3.3539,-3.3747,-3.3817,-3.3817,-3.3817,-3.3927,-3.4092,-3.4348,-3.4642,-3.4917,-3.5192,-3.5559,-3.5834,-3.5834,-3.6036,-3.6256,-3.6402,-3.6659,-3.6952,-3.7228,-3.7704,0.0,0.0,0.0,0.0,-3.8743,-3.908,-3.9355,-3.9667,-4.018,-4.0695,-4.1073,-4.1081,-4.1397,-4.19,-4.1397,-4.121,-4.1462,-4.1229,-4.106,-4.106,-4.106,-4.106,-4.106,-4.106,-4.106,-4.106,-4.106,-4.106,-4.106,-4.106,-4.106,-4.106,-4.106,-4.106,-4.106,0.0,0.0,0.0,0.0,0.0,0.0,0.0,0.0,0.0,0.0,0.0,0.0,0.0,0.0,0.0,0.0,0.0,0.0,0.0,0.0,0.0,0.0,0.0,0.0,0.0,0.0,0.0,0.0,0.0,0.0,0.0,0.0,0.0,0.0,0.0,0.0,0.0,0.0,0.0,0.0,-2.4973,-2.5105,-2.5105,-2.5119,0.0,0.0,0.0,0.0,0.0,0.0,0.0,0.0,0.0,0.0,-3.0086,-3.0451,-3.1841,-3.3191,-3.2824,-3.3242,-3.3817,-3.3817,-3.3817,-3.3817,-3.3835,-3.4128,-3.4403,-3.4458,-3.5082,-3.5632,0.0,0.0,-3.6201,-3.6201,-3.6201,-3.6347,-3.6694,-3.6861,-3.7154,0.0,0.0,0.0,0.0,0.0,0.0,-3.9281,0.0,-3.9648,-4.0437,-4.0492,-4.0675,-4.1042,-4.106,-4.106,-4.106,-4.106,-4.106,-4.106,-4.106,-4.106,-4.106,-4.106,-4.106,-4.106,-4.106,-4.106,-4.106,-4.106,-4.106,-4.106,-4.106,-4.106,-4.106,-4.106,-4.106,-4.106,0.0,0.0,0.0,0.0,0.0,0.0,0.0,0.0,0.0,0.0,0.0,0.0,0.0,0.0,0.0,0.0,0.0,0.0,0.0,0.0,0.0,0.0,0.0,0.0,0.0,0.0,0.0,0.0,0.0,0.0,0.0,0.0,0.0,0.0,0.0,0.0,0.0,0.0,0.0,0.0,0.0,-2.4767,-2.4715,0.0,0.0,0.0,0.0,0.0,0.0,0.0,0.0,0.0,0.0,0.0,-3.1352,-3.2316,0.0,-3.2963,-3.3381,-3.3678,-3.3817,-3.3817,-3.3817,-3.389,-3.4183,-3.433,-3.4568,-3.5192,-3.5485,-3.5705,0.0,0.0,0.0,-3.6201,-3.6201,0.0,-3.6694,-3.7081,0.0,0.0,0.0,-3.864,-3.9043,-3.9171,0.0,0.0,-4.0162,-4.0253,-4.0455,-4.0749,-4.095,-4.1145,-4.106,-4.106,-4.106,-4.106,-4.106,-4.106,-4.106,-4.106,-4.106,-4.106,-4.106,-4.106,-4.106,-4.106,-4.106,-4.106,-4.106,-4.106,-4.106,-4.106,-4.106,-4.106,-4.106,-4.106,0.0,0.0,0.0,0.0,0.0,0.0,0.0,0.0,0.0,0.0,0.0,0.0,0.0,0.0,0.0,0.0,0.0,0.0,0.0,0.0,0.0,0.0,0.0,0.0,0.0,0.0,0.0,0.0,0.0,0.0,0.0,0.0,0.0,0.0,0.0,0.0,0.0,0.0,0.0,0.0,0.0,0.0,0.0,0.0,0.0,0.0,0.0,0.0,0.0,0.0,0.0,-3.0107,-3.16,-3.1948,-3.1982,-3.2824,0.0,-3.3242,-3.3678,-3.3817,-3.3817,-3.3817,-3.3945,-3.4128,-3.4348,-3.4678,-3.5064,-3.5522,-3.576,0.0,0.0,0.0,0.0,0.0,0.0,0.0,-3.7007,-3.7283,-3.7631,0.0,-3.8414,0.0,-3.919,-3.9392,-3.9777,0.0,-4.0473,-4.0547,-4.0712,-4.095,-4.106,-4.106,-4.106,-4.106,-4.106,-4.106,-4.106,-4.106,-4.106,-4.106,-4.106,-4.106,-4.106,-4.106,0.0,-4.106,-4.106,-4.106,-4.106,-4.106,-4.106,-4.106,-4.106,-4.106,-4.106,-4.106,0.0,0.0,0.0,0.0,0.0,0.0,0.0,0.0,0.0,0.0,0.0,0.0,0.0,0.0,0.0,0.0,0.0,0.0,0.0,0.0,0.0,0.0,0.0,0.0,0.0,0.0,0.0,0.0,0.0,0.0,0.0,0.0,0.0,0.0,0.0,0.0,0.0,0.0,0.0,0.0,0.0,0.0,0.0,0.0,0.0,0.0,0.0,0.0,0.0,0.0,-3.0169,-3.0992,-3.235,-3.2596,-3.2386,-3.2736,-3.3312,-3.3817,-3.3817,-3.3817,-3.3817,-3.3817,-3.411,-3.4422,-3.4335,-3.492,-3.5413,-3.5467,0.0,0.0,-3.6126,0.0,-3.6126,-3.6201,0.0,-3.6494,-3.7301,-3.7429,-3.7723,-3.8469,-3.856,-3.8823,-3.9263,-3.963,-4.0115,-4.051,-4.0547,-4.0694,-4.1042,-4.106,-4.106,-4.106,-4.106,-4.106,-4.106,-4.106,-4.106,-4.106,-4.106,-4.106,-4.106,-4.106,-4.106,-4.106,-4.106,-4.106,-4.106,-4.106,-4.106,-4.106,-4.106,-4.106,-4.106,-4.106,-4.106,-4.106,0.0,0.0,0.0,0.0,0.0,0.0,0.0,0.0,0.0,0.0,-1.7818,-1.8505,0.0,0.0,0.0,0.0,0.0,0.0,0.0,0.0,0.0,0.0,0.0,0.0,0.0,0.0,0.0,0.0,0.0,0.0,0.0,0.0,0.0,0.0,0.0,0.0,0.0,0.0,0.0,0.0,0.0,0.0,0.0,0.0,0.0,0.0,0.0,0.0,0.0,0.0,-3.0043,-3.2018,-3.3224,-3.3521,-3.3521,-3.3608,-3.3678,-3.3817,-3.3817,-3.3817,-3.3817,-3.3817,-3.411,-3.4283,-3.3965,-3.4266,0.0,0.0,0.0,-3.4932,-3.5605,-3.568,0.0,-3.6126,0.0,0.0,0.0,0.0,-3.7723,0.0,0.0,0.0,0.0,0.0,0.0,0.0,0.0,-4.0987,-4.1145,-4.106,-4.106,-4.106,-4.106,-4.106,-4.106,-4.106,-4.106,-4.106,-4.106,-4.106,-4.106,-4.106,-4.106,-4.106,-4.106,0.0,-4.106,-4.106,-4.106,-4.106,-4.106,-4.106,-4.106,-4.106,-4.106,-4.106,0.0,0.0,0.0,0.0,0.0,0.0,0.0,-1.6284,-1.638,-1.667,-1.704,-1.7553,-1.8116,-1.8339,0.0,0.0,0.0,0.0,0.0,0.0,0.0,0.0,0.0,0.0,0.0,0.0,0.0,0.0,0.0,0.0,0.0,0.0,0.0,0.0,0.0,0.0,0.0,0.0,0.0,0.0,0.0,0.0,0.0,0.0,0.0,0.0,0.0,0.0,0.0,0.0,-2.9745,-3.1613,-3.1894,-3.2824,-3.3659,-3.3103,-3.3312,-3.3817,-3.3817,-3.3817,-3.3853,-3.4073,-3.4422,-3.4611,-3.4213,0.0,0.0,0.0,0.0,-3.4255,-3.4857,0.0,0.0,0.0,0.0,0.0,0.0,0.0,0.0,0.0,0.0,0.0,0.0,0.0,0.0,0.0,0.0,-4.106,-4.106,-4.106,-4.106,-4.106,-4.106,-4.106,-4.106,-4.106,-4.106,-4.106,-4.106,-4.106,-4.106,-4.106,-4.106,-4.106,-4.106,-4.106,-4.106,-4.106,-4.106,-4.106,-4.106,-4.106,-4.106,-4.106,-4.106,-4.106,0.0,0.0,0.0,0.0,0.0,0.0,0.0,-1.6066,-1.6211,-1.6646,-1.6754,-1.7033,-1.7754,-1.8018,-1.8415,0.0,0.0,0.0,0.0,0.0,0.0,0.0,0.0,0.0,0.0,0.0,0.0,0.0,0.0,0.0,0.0,0.0,0.0,0.0,0.0,0.0,0.0,0.0,0.0,0.0,0.0,0.0,0.0,0.0,0.0,0.0,0.0,0.0,0.0,0.0,-2.9207,-3.0647,-3.0091,-3.1401,-3.3033,-3.2105,-3.2666,-3.3539,-3.3451,-3.3608,-3.3908,-3.4312,-3.4715,-3.4848,-3.4277,-3.4425,0.0,0.0,0.0,-3.3575,-3.4029,0.0,0.0,0.0,0.0,0.0,0.0,0.0,0.0,0.0,0.0,0.0,0.0,0.0,0.0,0.0,0.0,0.0,-4.106,-4.106,-4.106,-4.106,-4.106,-4.106,-4.106,-4.106,-4.106,-4.106,-4.106,-4.106,-4.106,-4.106,-4.106,-4.106,-4.106,-4.106,-4.106,-4.106,-4.106,-4.106,-4.106,-4.106,-4.106,-4.106,-4.106,-4.106,0.0,0.0,0.0,0.0,0.0,0.0,0.0,-1.6622,-1.6646,-1.6694,-1.6911,-1.7068,-1.715,-1.7438,-1.7596,0.0,0.0,0.0,0.0,0.0,0.0,0.0,0.0,0.0,0.0,0.0,0.0,0.0,0.0,0.0,0.0,0.0,0.0,0.0,0.0,0.0,0.0,0.0,0.0,0.0,0.0,0.0,0.0,0.0,0.0,0.0,0.0,0.0,0.0,0.0,0.0,-2.9785,-2.8685,-2.9695,-3.1243,-3.1101,0.0,0.0,-3.2386,-3.3033,-3.3908,-3.4312,-3.4715,-3.4686,-3.3539,0.0,0.0,0.0,-3.2146,-3.2375,-3.3196,-3.3272,0.0,0.0,0.0,0.0,0.0,0.0,0.0,0.0,0.0,0.0,0.0,0.0,0.0,0.0,0.0,0.0,-4.106,-4.106,-4.106,-4.106,-4.106,-4.106,-4.106,-4.106,-4.106,-4.106,-4.106,-4.106,-4.106,-4.106,-4.106,-4.106,-4.106,-4.106,0.0,-4.106,-4.106,-4.106,-4.106,-4.106,-4.106,-4.106,-4.106,-4.106,0.0,0.0,0.0,0.0,0.0,0.0,-1.6682,-1.6706,-1.6754,-1.6911,-1.7032,-1.7153,-1.731,-1.7418,-1.7479,0.0,0.0,0.0,0.0,0.0,0.0,0.0,0.0,0.0,0.0,0.0,0.0,0.0,0.0,0.0,0.0,0.0,0.0,0.0,0.0,0.0,0.0,0.0,0.0,0.0,0.0,0.0,0.0,0.0,0.0,0.0,0.0,0.0,0.0,0.0,0.0,0.0,-2.8828,-2.921,0.0,0.0,-3.1243,-3.2456,-3.1401,-3.2562,-3.4116,-3.3804,-3.398,-3.4168,-3.3644,0.0,0.0,-3.1763,-3.1609,-3.184,-3.2375,-3.2479,-3.2675,0.0,0.0,0.0,0.0,0.0,0.0,0.0,0.0,0.0,0.0,0.0,0.0,0.0,0.0,0.0,-4.106,-4.106,-4.106,-4.106,-4.106,-4.106,-4.106,-4.106,-4.106,-4.106,-4.106,-4.106,-4.106,-4.106,-4.106,-4.106,-4.106,-4.106,0.0,-4.106,-4.106,-4.106,-4.106,-4.106,-4.106,-4.106,-4.106,-4.106,0.0,0.0,0.0,0.0,0.0,-1.6556,-1.6753,-1.6765,-1.6882,-1.7189,-1.7201,-1.7274,-1.7467,-1.7479,-1.7479,-1.7479,0.0,0.0,0.0,0.0,0.0,0.0,0.0,0.0,0.0,0.0,-2.2299,-2.2769,-2.263,0.0,0.0,0.0,0.0,0.0,0.0,0.0,0.0,0.0,0.0,0.0,0.0,0.0,0.0,0.0,0.0,0.0,0.0,0.0,0.0,0.0,0.0,0.0,0.0,0.0,0.0,0.0,-3.0321,-3.1542,-3.0266,-3.1585,-3.334,-3.3314,-3.3405,-3.3489,0.0,0.0,0.0,-3.1549,-3.1395,-3.1472,-3.1763,-3.1836,-3.2107,0.0,0.0,0.0,0.0,0.0,0.0,0.0,0.0,0.0,0.0,0.0,0.0,0.0,0.0,0.0,-4.106,-4.106,-4.106,-4.106,-4.106,-4.106,-4.106,-4.106,-4.106,-4.106,-4.106,-4.106,-4.106,-4.106,-4.106,-4.106,-4.106,-4.106,0.0,-4.106,-4.106,-4.106,-4.106,-4.106,-4.106,-4.106,-4.106,-4.106,0.0,0.0,0.0,0.0,0.0,0.0,-1.6915,-1.702,-1.7138,-1.7479,-1.7479,-1.7479,-1.7479,-1.7479,-1.7479,-1.7479,0.0,0.0,0.0,0.0,0.0,0.0,0.0,0.0,0.0,0.0,-2.2414,-2.3106,-2.2731,-2.2793,-2.3106,0.0,0.0,0.0,0.0,0.0,0.0,0.0,0.0,0.0,0.0,0.0,0.0,0.0,0.0,0.0,0.0,0.0,0.0,0.0,0.0,0.0,0.0,0.0,0.0,0.0,-2.8923,-2.9695,-2.8907,-2.9809,-3.1326,-3.2878,-3.2946,-3.28,0.0,0.0,0.0,-3.1549,-3.1395,-3.1395,-3.1395,-3.1681,-3.203,-3.2348,0.0,0.0,0.0,0.0,0.0,0.0,0.0,0.0,0.0,0.0,0.0,0.0,0.0,0.0,-4.106,-4.106,-4.106,-4.106,-4.106,-4.106,-4.106,-4.106,-4.106,-4.106,-4.106,-4.106,-4.106,-4.106,-4.106,-4.106,-4.106,-4.106,0.0,-4.106,-4.106,-4.106,-4.106,-4.106,-4.106,-4.106,-4.106,-4.106,0.0,0.0,0.0,0.0,0.0,0.0,0.0,-1.6655,-1.6785,-1.7138,-1.7138,-1.7256,-1.7479,-1.7479,-1.7479,-1.7479,0.0,0.0,0.0,0.0,0.0,0.0,0.0,0.0,0.0,0.0,-2.1869,-2.2769,-2.2443,-2.2543,-2.3106,-2.3106,-2.3106,0.0,0.0,0.0,0.0,0.0,0.0,0.0,0.0,0.0,0.0,0.0,0.0,0.0,0.0,0.0,0.0,0.0,0.0,0.0,0.0,0.0,0.0,0.0,0.0,0.0,-2.9003,-3.0397,-3.2149,-3.2076,-3.2159,-3.2304,-3.2876,0.0,-3.1395,-3.1395,-3.1395,-3.1395,-3.1395,-3.1872,-3.2206,-3.1999,-3.2436,0.0,0.0,0.0,0.0,0.0,0.0,0.0,0.0,0.0,0.0,0.0,0.0,0.0,-4.106,-4.106,-4.106,-4.106,-4.106,-4.106,-4.106,-4.106,-4.106,-4.106,-4.106,-4.106,-4.106,-4.106,-4.106,-4.106,-4.106,-4.106,-4.106,-4.106,-4.106,-4.106,-4.106,-4.106,-4.106,-4.106,-4.106,-4.106,0.0,0.0,0.0,0.0,0.0,0.0,0.0,-1.6419,-1.6596,-1.6961,-1.7079,-1.7256,-1.7479,-1.7608,-1.7667,-1.7667,0.0,0.0,0.0,0.0,0.0,0.0,0.0,0.0,0.0,-2.1417,-2.1762,-2.2428,-2.2318,-2.248,-2.2918,-2.2918,-2.2981,-2.3106,-2.2981,0.0,0.0,0.0,0.0,0.0,0.0,0.0,-2.4679,0.0,0.0,0.0,0.0,0.0,0.0,0.0,0.0,0.0,0.0,0.0,0.0,0.0,-2.8779,0.0,0.0,-2.9839,-3.1375,-3.1436,-3.1506,0.0,0.0,0.0,-3.1087,-3.1318,-3.1395,-3.1395,-3.1395,-3.1951,-3.2332,-3.2094,-3.2367,0.0,0.0,0.0,0.0,0.0,0.0,0.0,0.0,0.0,0.0,0.0,0.0,0.0,-4.106,-4.106,-4.106,-4.106,-4.106,-4.106,-4.106,-4.106,-4.106,-4.106,-4.106,-4.106,-4.106,-4.106,-4.106,-4.106,-4.106,-4.106,0.0,-4.106,-4.106,-4.106,-4.106,-4.106,-4.106,-4.106,-4.106,-4.106,0.0,0.0,0.0,0.0,0.0,0.0,0.0,-1.6312,-1.6596,-1.6961,-1.7256,-1.7479,-1.7537,-1.7809,-1.8056,-1.8056,0.0,0.0,0.0,0.0,0.0,0.0,0.0,0.0,-2.1601,-2.1866,-2.2041,-2.2104,-2.2418,-2.2606,-2.2606,-2.2606,-2.2793,-2.3106,-2.2731,-2.2808,-2.3164,-2.3471,-2.3618,-2.372,-2.432,-2.4583,0.0,0.0,0.0,0.0,0.0,0.0,0.0,0.0,0.0,0.0,0.0,0.0,0.0,0.0,0.0,0.0,0.0,0.0,0.0,0.0,0.0,0.0,0.0,0.0,0.0,-3.1395,-3.1395,-3.1395,-3.1395,-3.1951,-3.2412,-3.2332,-3.2286,0.0,0.0,0.0,0.0,0.0,0.0,0.0,0.0,0.0,0.0,0.0,0.0,0.0,-4.106,-4.106,-4.106,-4.106,-4.106,-4.106,-4.106,-4.106,-4.106,-4.106,-4.106,-4.106,-4.106,-4.106,-4.106,0.0,-4.106,-4.106,-4.106,-4.106,-4.106,-4.106,-4.106,-4.106,-4.106,-4.106,-4.106,-4.106,0.0,0.0,0.0,0.0,0.0,0.0,0.0,0.0,0.0,0.0,-1.7079,-1.7315,-1.7843,-1.8158,-1.8401,0.0,0.0,0.0,0.0,0.0,0.0,0.0,0.0,0.0,-2.1614,-2.1425,-2.1614,-2.2104,-2.2167,-2.2355,-2.2606,-2.2606,-2.2793,-2.3106,-2.2731,-2.2938,-2.3486,-2.3559,-2.3881,-2.4349,-2.451,-2.4715,0.0,0.0,0.0,0.0,-2.5659,-2.5928,0.0,0.0,0.0,0.0,0.0,0.0,0.0,0.0,-2.7876,-2.8072,-2.8417,0.0,-2.9891,-3.1109,-3.1331,-3.1318,0.0,0.0,0.0,0.0,0.0,0.0,0.0,-3.1951,0.0,0.0,0.0,0.0,0.0,0.0,0.0,0.0,0.0,0.0,0.0,0.0,0.0,0.0,0.0,-4.106,-4.106,-4.106,-4.106,-4.106,-4.106,-4.106,-4.106,-4.106,-4.106,-4.106,-4.106,-4.106,-4.106,-4.106,-4.106,-4.106,-4.106,-4.106,-4.106,-4.106,-4.106,-4.106,-4.106,-4.106,-4.106,-4.106,-4.106,-4.106,0.0,0.0,0.0,0.0,0.0,0.0,0.0,0.0,0.0,0.0,0.0,0.0,0.0,0.0,0.0,0.0,0.0,0.0,0.0,0.0,0.0,0.0,0.0,-2.1172,-2.1362,-2.1362,-2.1488,-2.1853,-2.2167,-2.2355,-2.2355,-2.2543,-2.2668,-2.2856,-2.2856,-2.3107,-2.3603,-2.3749,-2.4115,-2.4583,-2.4797,0.0,0.0,0.0,0.0,0.0,-2.5592,-2.5899,0.0,-2.6954,-2.7089,-2.7175,0.0,0.0,0.0,0.0,-2.757,-2.7896,-2.8462,-2.9259,-3.0184,-3.0961,-3.1241,-3.1395,0.0,0.0,0.0,0.0,0.0,0.0,0.0,0.0,0.0,0.0,0.0,0.0,0.0,0.0,0.0,0.0,0.0,0.0,0.0,0.0,0.0,0.0,0.0,-4.106,-4.106,-4.106,-4.106,-4.106,-4.106,-4.106,-4.106,-4.106,-4.106,-4.106,-4.106,-4.106,-4.106,-4.106,-4.106,-4.106,-4.106,-4.106,-4.106,-4.106,-4.106,-4.106,-4.106,-4.106,-4.106,-4.106,-4.106,-4.106,0.0,0.0,0.0,0.0,0.0,0.0,0.0,0.0,0.0,0.0,0.0,0.0,0.0,0.0,0.0,0.0,0.0,0.0,0.0,0.0,0.0,0.0,0.0,-2.1109,-2.1109,-2.1425,-2.1551,-2.1551,-2.2167,-2.2355,-2.2104,-2.2418,-2.2572,-2.2677,-2.3049,-2.3379,-2.3764,-2.4042,-2.4349,-2.4671,-2.5017,0.0,0.0,0.0,0.0,0.0,0.0,0.0,0.0,-2.6867,-2.6974,-2.6989,-2.7388,0.0,0.0,0.0,0.0,0.0,-2.8386,-2.9321,-3.0176,-3.0716,-3.1087,-3.1318,0.0,0.0,0.0,0.0,0.0,0.0,0.0,0.0,0.0,0.0,0.0,0.0,0.0,0.0,0.0,0.0,0.0,0.0,0.0,0.0,0.0,0.0,0.0,-4.106,-4.106,-4.106,-4.106,-4.106,-4.106,-4.106,-4.106,-4.106,-4.106,-4.106,-4.106,-4.106,-4.106,-4.106,-4.106,-4.106,0.0,0.0,-4.106,-4.106,-4.106,-4.106,-4.106,-4.106,-4.106,-4.106,-4.106,-4.106,0.0,0.0,0.0,0.0,0.0,0.0,0.0,0.0,0.0,0.0,0.0,0.0,0.0,0.0,0.0,0.0,0.0,0.0,0.0,0.0,0.0,-2.1109,-2.1109,-2.1109,-2.1109,-2.1425,-2.1488,-2.1172,-2.1853,-2.2167,-2.2104,-2.2167,-2.2497,-2.3021,-2.3293,-2.3775,-2.4423,-2.4466,-2.4753,-2.5061,-2.5105,0.0,0.0,0.0,0.0,0.0,0.0,0.0,0.0,-2.6364,-2.6599,-2.6631,-2.6953,0.0,0.0,0.0,0.0,0.0,-2.8347,-2.8979,-2.9774,-3.0608,-3.0871,-3.101,0.0,0.0,0.0,0.0,0.0,0.0,0.0,0.0,0.0,0.0,0.0,0.0,0.0,0.0,0.0,0.0,0.0,0.0,0.0,0.0,0.0,0.0,0.0,-4.106,-4.106,-4.106,-4.106,-4.106,-4.106,-4.106,-4.106,-4.106,-4.106,-4.106,-4.106,-4.106,-4.106,-4.106,-4.106,-4.106,0.0,-4.106,-4.106,-4.106,-4.106,-4.106,-4.106,-4.106,-4.106,-4.106,-4.106,-4.106,0.0,0.0,0.0,0.0,0.0,0.0,0.0,0.0,0.0,0.0,0.0,0.0,0.0,0.0,0.0,0.0,0.0,0.0,0.0,0.0,0.0,-2.1109,-2.1109,-2.1172,-2.1362,-2.1362,-2.1425,-2.1677,-2.1915,-2.1992,-2.1866,-2.2223,-2.2844,-2.3673,-2.3753,-2.4131,-2.4569,-2.4569,-2.4826,-2.5119,0.0,0.0,0.0,0.0,0.0,0.0,0.0,0.0,0.0,0.0,-2.6761,-2.714,-2.7303,0.0,0.0,0.0,0.0,0.0,-2.8268,-2.8821,-2.929,-2.9927,-3.0237,-3.0454,-3.0686,0.0,0.0,0.0,0.0,0.0,0.0,0.0,0.0,0.0,0.0,0.0,0.0,0.0,0.0,0.0,0.0,0.0,0.0,0.0,0.0,0.0,0.0,0.0,-4.106,-4.106,-4.106,-4.106,-4.106,-4.106,-4.106,-4.106,-4.106,-4.106,-4.106,-4.106,-4.106,-4.106,-4.106,-4.106,0.0,-4.106,-4.106,-4.106,-4.106,-4.106,-4.106,-4.106,-4.106,-4.106,-4.106,-4.106,0.0,0.0,0.0,0.0,0.0,0.0,0.0,0.0,0.0,0.0,0.0,0.0,0.0,0.0,0.0,0.0,0.0,0.0,0.0,0.0,-2.1109,-2.1109,-2.1109,-2.1235,-2.1488,-2.1299,-2.1488,-2.1978,-2.1978,-2.1957,-2.185,-2.2608,-2.3371,-2.4203,-2.4211,-2.4386,-2.4753,-2.4753,-2.4899,-2.5134,0.0,0.0,0.0,0.0,0.0,0.0,0.0,0.0,0.0,0.0,0.0,0.0,0.0,0.0,0.0,-2.7896,-2.7969,-2.7961,-2.8432,-2.871,-2.8964,-2.929,0.0,-2.9974,-3.0052,0.0,0.0,0.0,0.0,0.0,0.0,0.0,0.0,0.0,0.0,0.0,0.0,0.0,0.0,0.0,0.0,0.0,0.0,0.0,0.0,0.0,0.0,0.0,-4.0493,-4.0584,-4.062,-4.062,-4.062,-4.0451,-4.0113,-4.0113,-4.0451,-4.106,-4.106,-4.106,-4.106,-4.106,-4.106,-4.106,-4.106,-4.106,-4.106,-4.106,-4.106,-4.106,-4.106,-4.106,-4.106,-4.106,-4.106,-4.106,0.0,0.0,0.0,0.0,0.0,0.0,0.0,0.0,0.0,0.0,0.0,0.0,0.0,0.0,0.0,0.0,0.0,0.0,0.0,0.0,-2.1109,-2.1109,-2.1109,-2.1109,-2.1109,-2.1425,-2.1614,-2.1614,-2.1614,-2.1941,-2.2552,-2.3483,-2.4113,-2.454,-2.4511,-2.4723,-2.509,-2.509,-2.5105,-2.5149,-2.5374,0.0,0.0,0.0,0.0,0.0,0.0,0.0,0.0,0.0,0.0,0.0,0.0,0.0,-2.7612,-2.7879,-2.7934,-2.8005,-2.8695,-2.8871,-2.8886,-2.8964,-2.929,0.0,-2.9974,0.0,0.0,0.0,0.0,0.0,0.0,0.0,0.0,0.0,0.0,0.0,0.0,0.0,0.0,0.0,0.0,0.0,0.0,0.0,0.0,0.0,0.0,0.0,-3.8702,-3.8968,-3.916,-3.916,-3.916,-3.8563,-3.7188,-3.7188,-3.8477,-4.106,-4.106,-4.106,-4.106,-4.106,-4.106,-4.106,-4.106,-4.106,-4.106,-4.106,-4.106,-4.106,-4.106,-4.106,-4.106,-4.106,-4.106,-4.106,0.0,0.0,0.0,0.0,0.0,0.0,0.0,0.0,0.0,0.0,0.0,0.0,0.0,0.0,0.0,0.0,0.0,0.0,0.0,-2.1109,-2.1109,-2.1109,-2.1283,-2.139,-2.139,-2.1518,-2.1791,-2.2162,-2.2162,-2.2716,-2.3876,-2.3989,-2.4338,-2.4876,-2.4858,-2.4984,-2.5134,-2.5271,-2.5359,-2.5374,-2.5696,-2.5827,0.0,0.0,0.0,0.0,0.0,0.0,0.0,0.0,-2.7274,-2.755,0.0,0.0,-2.7685,-2.8118,-2.81,-2.802,-2.8725,-2.8886,-2.8886,-2.8886,0.0,0.0,0.0,0.0,0.0,0.0,0.0,0.0,0.0,0.0,0.0,0.0,0.0,0.0,0.0,0.0,0.0,0.0,0.0,0.0,0.0,0.0,0.0,0.0,0.0,0.0,-3.6879,-3.7014,-3.7082,-3.7082,-3.7082,-3.6828,-3.6253,-3.6253,-3.6828,-3.7856,-3.8254,-3.8477,-3.8477,-3.8477,-3.899,-3.9774,-3.9774,-3.9774,-3.9858,-4.0705,-4.0536,-3.9858,-4.0789,-4.106,-4.106,-4.106,-4.106,-4.106,0.0,0.0,0.0,0.0,0.0,0.0,0.0,0.0,0.0,0.0,0.0,0.0,0.0,0.0,0.0,0.0,0.0,0.0,-2.1109,-2.1109,-2.1149,-2.1243,-2.1507,-2.1773,-2.2013,-2.2027,-2.2263,-2.2635,-2.2994,-2.3624,-2.4436,-2.4405,-2.4646,-2.5119,-2.5119,-2.5178,-2.5213,-2.5432,-2.5593,-2.571,-2.6032,-2.6164,0.0,0.0,0.0,0.0,0.0,0.0,0.0,0.0,0.0,0.0,0.0,0.0,0.0,0.0,-2.81,-2.802,-2.8725,-2.8886,-2.8886,0.0,0.0,0.0,0.0,0.0,0.0,0.0,0.0,0.0,0.0,0.0,0.0,0.0,0.0,0.0,0.0,0.0,0.0,0.0,0.0,0.0,0.0,0.0,0.0,0.0,0.0,0.0,0.0,-3.5171,-3.5236,-3.5236,-3.5236,-3.5067,-3.4578,-3.4578,-3.4578,-3.4578,-3.5055,-3.5725,-3.6583,-3.6698,-3.7263,-3.822,-3.8255,-3.8306,-3.8392,-3.9416,-3.9246,-3.8392,-3.9416,-3.9756,-3.9756,-3.9756,-3.9756,-3.9756,0.0,0.0,0.0,0.0,0.0,0.0,0.0,0.0,0.0,0.0,0.0,0.0,0.0,0.0,0.0,0.0,0.0,0.0,-2.1109,-2.1122,-2.1256,-2.1614,-2.1628,-2.2027,-2.2955,-2.3036,-2.3018,-2.3042,-2.4078,-2.4436,-2.4118,-2.4771,-2.5119,-2.5134,-2.5134,-2.5242,-2.5535,-2.5535,-2.5725,-2.6047,-2.6383,-2.65,-2.6544,0.0,0.0,0.0,0.0,0.0,0.0,0.0,-2.7274,0.0,0.0,0.0,0.0,0.0,-2.7874,-2.802,-2.8725,-2.8886,0.0,0.0,0.0,0.0,0.0,0.0,0.0,0.0,0.0,0.0,0.0,0.0,0.0,0.0,0.0,0.0,0.0,0.0,0.0,0.0,0.0,0.0,0.0,0.0,0.0,0.0,0.0,0.0,0.0,-3.3682,-3.3885,-3.3885,-3.3885,-3.3206,-3.1783,-3.1783,-3.1783,-3.1783,-3.1783,-3.3221,-3.584,-3.6203,-3.6368,-3.6385,-3.6764,-3.6827,-3.6827,-3.6827,-3.6913,-3.6913,-3.6913,-3.6913,-3.6913,-3.6913,-3.6913,-3.6913,0.0,0.0,0.0,0.0,0.0,0.0,0.0,0.0,0.0,0.0,0.0,0.0,0.0,0.0,0.0,0.0,0.0,0.0,-2.1416,-2.1617,-2.1764,-2.1857,-2.2322,-2.2711,-2.2955,-2.3714,-2.404,-2.4089,-2.4391,-2.4636,-2.4785,-2.5008,-2.5169,-2.5388,-2.5388,-2.5564,-2.5886,-2.612,-2.6266,-2.6383,-2.672,-2.6852,-2.6852,0.0,0.0,0.0,0.0,0.0,0.0,0.0,0.0,0.0,0.0,0.0,0.0,-2.7832,-2.8034,-2.8388,-2.8783,0.0,0.0,0.0,0.0,0.0,0.0,0.0,0.0,0.0,0.0,0.0,0.0,0.0,0.0,0.0,0.0,0.0,0.0,0.0,0.0,0.0,0.0,0.0,0.0,0.0,0.0,0.0,0.0,0.0,0.0,-3.1637,-3.1682,-3.1682,-3.1682,-3.1515,-3.111,-3.111,-3.111,-3.111,-3.111,-3.1767,-3.3066,-3.3157,-3.3716,-3.4636,-3.4747,-3.4795,-3.4795,-3.4795,-3.5391,-3.6238,-3.6238,-3.6238,-3.6238,-3.6238,-3.6238,-3.6238,0.0,0.0,0.0,0.0,0.0,0.0,0.0,0.0,0.0,0.0,0.0,0.0,0.0,0.0,0.0,0.0,0.0,0.0,0.0,-2.1884,-2.211,-2.2416,-2.2592,-2.2943,-2.3403,-2.4252,-2.4764,-2.4901,-2.4901,-2.5037,-2.5242,-2.5374,-2.5535,-2.5725,-2.5725,-2.59,-2.6222,-2.6413,-2.6574,-2.672,-2.691,-2.6983,-2.6983,0.0,0.0,0.0,0.0,0.0,0.0,0.0,0.0,0.0,0.0,0.0,0.0,-2.7861,-2.8107,-2.8505,-2.8812,0.0,0.0,0.0,0.0,0.0,0.0,0.0,0.0,0.0,0.0,0.0,0.0,0.0,0.0,0.0,0.0,0.0,0.0,0.0,0.0,0.0,0.0,0.0,0.0,0.0,0.0,0.0,0.0,0.0,0.0,-3.0817,-3.0817,-3.0817,-3.0817,-3.0817,-3.0817,-3.0817,-3.0817,-3.0817,-3.0817,-3.1037,-3.1417,-3.1549,-3.2104,-3.2853,-3.299,-3.3051,-3.3051,-3.3051,-3.3561,-3.4224,-3.4224,-3.4224,-3.4224,-3.4224,-3.4224,-3.4224,0.0,0.0,0.0,0.0,0.0,0.0,0.0,0.0,0.0,0.0,0.0,0.0,0.0,0.0,0.0,0.0,0.0,0.0,0.0,0.0,-2.2338,-2.297,-2.2795,-2.3066,-2.4036,-2.473,-2.5233,-2.544,-2.5509,-2.5579,-2.5579,-2.5886,-2.6032,-2.6061,-2.6061,-2.6237,-2.6544,-2.6544,-2.672,-2.6983,-2.6983,-2.6983,-2.6983,-2.6983,0.0,0.0,0.0,0.0,0.0,0.0,0.0,0.0,0.0,0.0,0.0,-2.783,-2.8151,-2.8534,0.0,0.0,0.0,0.0,0.0,0.0,0.0,0.0,0.0,0.0,0.0,0.0,0.0,0.0,0.0,0.0,0.0,0.0,0.0,0.0,0.0,0.0,0.0,0.0,0.0,0.0,0.0,0.0,0.0,0.0,0.0,-3.0817,-3.0817,-3.0817,-3.0817,-3.0817,-3.0817,-3.0817,-3.0817,-3.0817,-3.0817,-3.0817,-3.0832,-3.1139,-3.1271,-3.1285,-3.1578,-3.171,-3.171,-3.171,-3.171,-3.171,-3.171,-3.171,-3.171,-3.171,-3.171,-3.171,0.0,0.0,0.0,0.0,0.0,0.0,0.0,0.0,0.0,0.0,0.0,0.0,0.0,0.0,0.0,0.0,0.0,0.0,0.0,0.0,-2.2874,-2.3182,-2.3969,-2.447,-2.468,-2.5382,-2.555,-2.5059,-2.5635,-2.5915,-2.5915,-2.5988,-2.6149,-2.6398,-2.6398,-2.6574,-2.6881,-2.6881,-2.6925,-2.6983,-2.6983,-2.6983,-2.6983,-2.6983,-2.7144,0.0,0.0,0.0,0.0,0.0,0.0,0.0,-2.7671,-2.7964,-2.8242,-2.8315,-2.8549,0.0,0.0,0.0,0.0,0.0,0.0,0.0,0.0,0.0,0.0,0.0,0.0,0.0,0.0,0.0,0.0,0.0,0.0,0.0,0.0,0.0,0.0,0.0,0.0,0.0,0.0,0.0,0.0,0.0,0.0,0.0,-3.0817,-3.0817,-3.0817,-3.0817,-3.0817,-3.0817,-3.0817,-3.0817,-3.0817,-3.0817,-3.0817,-3.0817,-3.0832,-3.089,-3.0934,-3.0934,-3.1007,-3.1037,-3.1037,-3.1037,-3.1037,-3.1037,-3.1037,-3.1037,-3.1037,-3.1037,-3.1037,-3.1037,0.0,0.0,0.0,0.0,0.0,0.0,0.0,0.0,0.0,0.0,0.0,0.0,0.0,0.0,0.0,0.0,0.0,0.0,0.0,0.0,-2.322,-2.3527,-2.4382,-2.4876,-2.4876,-2.5456,-2.5669,-2.5669,-2.6041,-2.6184,-2.6252,-2.6413,-2.6574,-2.6735,-2.6735,-2.6837,-2.6983,-2.6983,-2.6983,-2.6998,-2.7159,-2.7217,-2.7247,-2.7393,-2.7554,-2.77,-2.77,0.0,0.0,0.0,0.0,0.0,0.0,0.0,-2.8432,-2.8432,-2.8651,-2.8886,0.0,0.0,0.0,0.0,0.0,0.0,0.0,0.0,0.0,0.0,0.0,0.0,0.0,0.0,0.0,0.0,0.0,0.0,0.0,0.0,0.0,0.0,0.0,0.0,0.0,0.0,0.0,0.0,0.0,-3.0817,-3.0817,-3.0817,-3.0817,-3.0817,-3.0817,-3.0817,-3.0817,-3.0817,-3.0817,-3.0817,-3.0817,-3.0817,-3.0817,-3.0817,-3.0817,-3.0817,-3.0817,-3.0817,-3.0817,-3.0817,-3.0817,-3.0817,-3.0817,-3.0817,-3.0817,-3.0817,-3.0817,-3.0817,0.0,0.0,0.0,0.0,0.0,0.0,0.0,0.0,0.0,0.0,0.0,0.0,0.0,0.0,0.0,0.0,0.0,0.0,0.0,0.0,0.0,-2.4049,-2.466,-2.4973,-2.5044,-2.5439,-2.5855,-2.6373,-2.6489,0.0,0.0,0.0,-2.6983,-2.6983,-2.6983,-2.6983,-2.6998,-2.7056,-2.7071,-2.71,-2.7422,-2.7554,-2.7583,-2.7847,-2.7917,-2.7961,-2.7961,-2.7961,-2.7976,-2.802,0.0,0.0,0.0,0.0,-2.852,-2.852,-2.8695,-2.8886,0.0,0.0,0.0,0.0,0.0,0.0,0.0,0.0,0.0,0.0,0.0,0.0,0.0,0.0,0.0,0.0,0.0,0.0,0.0,0.0,0.0,0.0,0.0,0.0,0.0,0.0,0.0,0.0,0.0,-3.0817,-3.0817,-3.0817,-3.0817,-3.0817,-3.0817,-3.0817,-3.0817,-3.0817,-3.0817,-3.0817,-3.0817,-3.0817,-3.0817,-3.0817,-3.0817,-3.0817,-3.0817,-3.0817,-3.0817,-3.0817,-3.0817,-3.0817,-3.0817,-3.0817,-3.0817,-3.0817,-3.0817,-3.0817,0.0,0.0,0.0,0.0,0.0,0.0,0.0,0.0,0.0,0.0,0.0,0.0,0.0,0.0,0.0,0.0,0.0,0.0,0.0,0.0,0.0,-2.5138,-2.5184,-2.5322,-2.5674,-2.6081,-2.6109,-2.589,0.0,0.0,0.0,0.0,0.0,-2.6983,0.0,0.0,-2.7013,0.0,0.0,-2.7437,-2.7759,-2.7815,-2.7815,-2.7859,-2.8049,-2.8297,-2.8297,-2.8297,-2.8417,-2.8681,-2.8593,0.0,0.0,0.0,-2.8827,-2.8827,-2.8856,0.0,0.0,0.0,0.0,0.0,0.0,0.0,0.0,0.0,0.0,0.0,0.0,0.0,0.0,0.0,0.0,0.0,0.0,0.0,0.0,0.0,0.0,0.0,0.0,0.0,0.0,0.0,0.0,0.0,-3.0817,-3.0817,-3.0817,-3.0817,-3.0817,-3.0817,-3.0817,-3.0817,-3.0817,-3.0817,-3.0817,-3.0817,-3.0817,-3.0817,-3.0817,-3.0817,-3.0817,-3.0817,-3.0817,-3.0817,-3.0817,-3.0817,-3.0817,-3.0817,-3.0817,-3.0817,-3.0817,-3.0817,-3.0817,-3.0817,0.0,0.0,0.0,0.0,0.0,0.0,0.0,0.0,0.0,0.0,0.0,0.0,0.0,0.0,0.0,0.0,0.0,0.0,0.0,0.0,0.0,-2.4948,-2.5084,-2.5373,-2.58,-2.5726,-2.596,-2.6473,0.0,0.0,0.0,-2.7174,-2.7261,0.0,0.0,0.0,0.0,0.0,0.0,0.0,0.0,-2.8151,-2.8165,-2.8417,-2.8564,-2.8695,-2.8695,-2.8695,-2.871,-2.8842,-2.8798,-2.871,-2.8842,0.0,0.0,0.0,-2.8886,0.0,0.0,0.0,0.0,0.0,0.0,0.0,0.0,0.0,0.0,0.0,0.0,0.0,0.0,0.0,0.0,0.0,0.0,0.0,0.0,0.0,0.0,0.0,0.0,0.0,0.0,0.0,0.0,0.0,-3.0817,-3.0817,-3.0817,-3.0817,-3.0817,-3.0817,-3.0817,-3.0817,-3.0817,-3.0817,-3.0817,-3.0817,-3.0817,-3.0817,-3.0817,-3.0817,-3.0817,-3.0817,-3.0817,-3.0817,-3.0817,-3.0817,-3.0817,-3.0817,-3.0817,-3.0817,-3.0817,-3.0817,-3.0817,-3.0817,0.0,0.0,0.0,0.0,0.0,0.0,0.0,0.0,0.0,0.0,0.0,0.0,0.0,0.0,0.0,0.0,0.0,0.0,0.0,0.0,0.0,-2.4784,-2.4931,-2.5299,-2.58,-2.552,-2.5814,0.0,0.0,0.0,-2.7115,-2.7452,-2.7642,0.0,-2.7642,0.0,0.0,0.0,0.0,0.0,0.0,-2.8549,-2.8578,-2.8798,-2.8886,-2.8886,-2.8886,-2.8886,-2.8886,-2.8886,-2.8886,-2.8886,-2.8886,-2.8886,0.0,0.0,0.0,0.0,0.0,0.0,0.0,0.0,0.0,0.0,0.0,0.0,0.0,0.0,0.0,0.0,0.0,0.0,0.0,0.0,0.0,0.0,0.0,0.0,0.0,0.0,0.0,0.0,0.0,0.0,0.0,0.0,-3.0817,-3.0817,-3.0817,-3.0817,-3.0817,-3.0817,-3.0817,-3.0817,-3.0817,-3.0817,-3.0817,-3.0817,-3.0817,-3.0817,-3.0817,-3.0817,-3.0817,-3.0817,-3.0817,-3.0817,-3.0817,-3.0817,-3.0817,-3.0817,-3.0817,-3.0817,-3.0817,-3.0817,-3.0817,-3.0817,0.0,0.0,0.0,0.0,0.0,0.0,0.0,0.0,0.0,0.0,0.0,0.0,-2.3768,-2.3768,-2.3768,-2.3768,-2.4022,0.0,0.0,0.0,0.0,-2.5166,-2.4784,0.0,-2.58,-2.58,0.0,0.0,0.0,0.0,-2.7466,-2.7773,-2.802,-2.8373,-2.799,-2.7859,-2.7888,0.0,0.0,0.0,0.0,0.0,0.0,-2.8886,-2.8886,-2.8886,-2.8886,-2.8886,-2.8886,-2.8886,-2.8886,-2.8886,-2.8886,-2.8886,-2.8886,0.0,0.0,0.0,0.0,0.0,0.0,0.0,0.0,0.0,0.0,0.0,0.0,0.0,0.0,0.0,0.0,0.0,0.0,0.0,0.0,0.0,0.0,0.0,0.0,0.0,0.0,0.0,0.0,0.0,0.0,0.0,-3.0817,-3.0817,-3.0817,-3.0817,-3.0817,-3.0817,-3.0817,-3.0817,-3.0817,-3.0817,-3.0817,-3.0817,-3.0817,-3.0817,-3.0817,-3.0817,-3.0817,-3.0817,-3.0817,-3.0817,-3.0817,-3.0817,-3.0817,-3.0817,-3.0817,-3.0817,-3.0817,-3.0817,-3.0817,-3.0817,0.0,0.0,0.0,0.0,0.0,0.0,0.0,0.0,0.0,0.0,0.0,0.0,0.0,-2.4329,-2.4329,-2.4329,-2.4422,0.0,0.0,0.0,0.0,-2.4414,-2.4562,-2.4938,-2.5709,-2.5425,0.0,0.0,0.0,-2.7008,-2.7788,-2.811,-2.8253,-2.8355,-2.8238,-2.8373,-2.8564,-2.8681,0.0,0.0,0.0,0.0,0.0,0.0,0.0,0.0,0.0,0.0,-2.8886,-2.8886,-2.8886,-2.8886,-2.8886,-2.8886,-2.8886,-2.8886,-2.8886,0.0,0.0,0.0,0.0,0.0,0.0,0.0,0.0,0.0,0.0,0.0,0.0,0.0,0.0,0.0,0.0,0.0,0.0,0.0,0.0,0.0,0.0,0.0,0.0,0.0,0.0,0.0,0.0,0.0,0.0,-3.0817,-3.0817,-3.0817,-3.0817,-3.0817,-3.0817,-3.0817,-3.0817,-3.0817,-3.0817,-3.0817,-3.0817,-3.0817,-3.0817,-3.0817,-3.0817,-3.0817,-3.0817,-3.0817,-3.0817,-3.0817,-3.0817,-3.0817,-3.0817,-3.0817,-3.0817,-3.0817,-3.0817,-3.0817,0.0,0.0,0.0,0.0,0.0,0.0,0.0,0.0,0.0,-2.4083,0.0,0.0,0.0,0.0,-2.4193,-2.4193,-2.4193,-2.4232,-2.4324,-2.41,-2.4003,-2.4093,-2.4631,-2.516,-2.58,0.0,0.0,0.0,0.0,0.0,0.0,-2.8432,-2.8593,-2.8593,-2.8593,-2.8695,0.0,0.0,0.0,-2.8886,0.0,0.0,-2.8886,0.0,0.0,0.0,0.0,0.0,0.0,-2.8886,-2.8886,-2.8886,-2.8886,-2.8886,-2.8886,-2.8886,-2.8886,0.0,0.0,0.0,0.0,0.0,0.0,0.0,0.0,0.0,0.0,0.0,0.0,0.0,0.0,0.0,0.0,0.0,0.0,0.0,0.0,0.0,0.0,0.0,0.0,0.0,0.0,0.0,0.0,0.0,0.0,0.0,-3.0817,-3.0817,-3.0817,-3.0817,-3.0817,-3.0817,-3.0817,-3.0817,-3.0817,-3.0817,-3.0817,-3.0817,-3.0817,-3.0817,-3.0817,-3.0817,-3.0817,-3.0817,-3.0817,-3.0817,-3.0817,-3.0817,-3.0817,-3.0817,-3.0817,-3.0817,-3.0817,-3.0817,0.0,0.0,0.0,0.0,0.0,0.0,0.0,0.0,-2.325,-2.4063,0.0,0.0,0.0,0.0,0.0,-2.3377,-2.3389,-2.3503,-2.377,-2.3795,-2.3909,-2.4175,0.0,0.0,0.0,0.0,0.0,0.0,0.0,0.0,0.0,0.0,-2.8886,-2.8886,-2.8886,-2.8886,-2.8886,0.0,-2.8886,-2.8886,0.0,-2.8886,-2.8886,0.0,0.0,0.0,-2.8886,-2.8886,0.0,-2.8886,0.0,0.0,0.0,-2.8886,-2.8886,-2.8886,-2.8886,0.0,0.0,0.0,0.0,0.0,0.0,0.0,0.0,0.0,0.0,0.0,0.0,0.0,0.0,0.0,0.0,0.0,0.0,0.0,0.0,0.0,0.0,0.0,0.0,0.0,0.0,0.0,0.0,0.0,-3.0788,-3.0788,-3.0788,-3.0803,-3.0803,-3.0803,-3.0817,-3.0817,-3.0817,-3.0817,-3.0817,-3.0817,-3.0817,-3.0817,-3.0817,-3.0817,-3.0817,-3.0817,-3.0817,-3.0817,-3.0817,-3.0817,-3.0817,-3.0817,-3.0817,-3.0817,-3.0817,-3.0817,-3.0817,-3.0817,0.0,0.0,0.0,0.0,0.0,0.0,-2.2371,-2.2762,-2.3181,0.0,0.0,0.0,-2.3587,-2.3629,-2.3668,-2.3668,-2.3846,-2.3998,-2.4074,-2.3844,-2.3728,-2.3726,-2.4265,-2.506,-2.603,0.0,0.0,0.0,0.0,0.0,0.0,0.0,0.0,0.0,-2.8886,-2.8886,-2.8886,-2.8886,0.0,0.0,-2.8886,-2.8886,0.0,0.0,0.0,0.0,0.0,-2.8886,-2.8886,0.0,-2.8886,-2.8886,0.0,-2.8886,-2.8886,-2.8886,0.0,0.0,-2.8886,0.0,0.0,0.0,0.0,0.0,0.0,0.0,0.0,0.0,0.0,0.0,0.0,0.0,0.0,0.0,0.0,0.0,0.0,0.0,0.0,0.0,0.0,0.0,0.0,0.0,0.0,0.0,-3.0129,-3.0129,-3.0129,-3.0349,-3.0481,-3.0481,-3.07,-3.0817,-3.0817,-3.0817,-3.0817,-3.0817,-3.0817,-3.0817,-3.0817,-3.0817,-3.0817,-3.0817,-3.0817,-3.0817,-3.0817,-3.0817,-3.0817,-3.0817,-3.0817,-3.0817,-3.0817,-3.0817,-3.0817,-3.0817,0.0,0.0,0.0,0.0,0.0,-2.1874,-2.2583,-2.2915,-2.3225,0.0,0.0,0.0,-2.3329,-2.3403,-2.3502,-2.3502,-2.3639,-2.3776,-2.3823,-2.368,-2.3573,-2.3683,-2.4621,-2.5478,-2.6119,0.0,0.0,0.0,0.0,0.0,0.0,0.0,0.0,0.0,0.0,0.0,0.0,0.0,0.0,0.0,-2.8886,0.0,0.0,-2.8886,-2.8886,0.0,0.0,0.0,-2.912,-2.9251,-2.9295,0.0,0.0,0.0,0.0,0.0,0.0,0.0,-2.9295,0.0,0.0,0.0,0.0,0.0,-3.0261,-3.0261,0.0,0.0,0.0,0.0,0.0,0.0,0.0,0.0,0.0,0.0,0.0,0.0,0.0,0.0,0.0,0.0,0.0,-2.9462,-2.9705,-2.9866,-2.9866,-2.9866,-2.9866,-3.0123,-3.0225,-3.0225,-3.032,-3.0422,-3.0422,-3.0422,-3.0422,-3.0422,-3.0568,-3.0627,-3.0627,-3.0759,-3.0817,-3.0817,-3.0817,-3.0817,-3.0817,-3.0817,-3.0817,-3.0817,-3.0817,-3.0817,-3.0817,-3.0817,-3.0817,-3.0817,0.0,0.0,-2.1075,-2.1787,-2.1909,-2.2153,-2.2781,-2.3191,-2.3441,0.0,-2.3745,-2.3541,-2.3174,-2.3145,-2.3169,-2.3169,-2.3193,-2.3315,-2.3557,-2.349,-2.3599,-2.3908,-2.5356,-2.6149,-2.6228,-2.7712,0.0,0.0,0.0,0.0,0.0,0.0,0.0,0.0,0.0,0.0,0.0,0.0,0.0,-2.8886,-2.8886,-2.8915,0.0,0.0,-2.8973,-2.9032,-2.9325,-2.9427,-2.9471,-2.9764,-2.9866,0.0,0.0,0.0,0.0,0.0,-2.9866,0.0,0.0,-3.01,-3.0431,0.0,0.0,0.0,-3.0817,-3.0817,-3.0817,0.0,0.0,0.0,0.0,0.0,0.0,0.0,0.0,0.0,0.0,0.0,0.0,0.0,0.0,0.0,-2.8878,-2.9039,-2.9281,-2.9683,-2.9764,-2.9749,-2.9749,-2.9793,-2.9807,-2.9807,-2.9837,-2.9866,-2.9866,-2.9866,-2.9866,-2.9866,-3.024,-3.0372,-3.0387,-3.0583,-3.0715,-3.0715,-3.0715,-3.0715,-3.0715,-3.0715,-3.0759,-3.0817,-3.0817,-3.0817,-3.0817,-3.0817,-3.0817,-3.0817,0.0,0.0,-2.0978,-2.1617,-2.2037,-2.2346,-2.2688,-2.3027,-2.3265,-2.3243,-2.3279,-2.3214,-2.3121,-2.3237,-2.3369,-2.3369,-2.3562,-2.3946,-2.4698,-2.4087,-2.4031,-2.4786,-2.448,-2.4639,-2.5343,-2.5647,-2.6215,0.0,0.0,0.0,0.0,0.0,0.0,0.0,0.0,0.0,0.0,0.0,0.0,-2.8886,-2.8886,0.0,-2.9281,-2.9281,-2.9442,-2.9676,-2.9749,-2.9764,-2.9778,-2.9837,-2.9866,-2.9866,0.0,0.0,0.0,-2.9866,0.0,0.0,0.0,0.0,0.0,0.0,-3.0583,0.0,-3.0817,-3.0817,-3.0817,0.0,0.0,0.0,0.0,0.0,0.0,0.0,0.0,0.0,0.0,0.0,0.0,0.0,0.0,0.0,-2.7461,-2.8067,-2.854,-2.8619,-2.8933,-2.9076,-2.9076,-2.9325,-2.9471,-2.9471,-2.972,-2.9866,-2.9866,-2.9866,-2.9866,-2.9866,-3.0005,-3.0035,-2.9954,-3.0027,-3.0056,-3.0056,-3.0056,-3.0056,-3.0056,-3.0056,-3.0349,-3.0817,-3.0817,-3.0817,-3.0817,-3.0817,-3.0817,-3.0817,0.0,-2.0866,-2.117,-2.2039,-2.2226,-2.2397,-2.2814,-2.3145,-2.3396,-2.329,-2.3357,-2.3442,-2.3442,-2.3562,-2.3568,-2.3568,-2.3688,-2.416,-2.5025,-2.432,-2.416,-2.5025,-2.4706,-2.4627,-2.5104,-2.5898,-2.6531,-2.7018,0.0,0.0,0.0,0.0,0.0,0.0,0.0,0.0,0.0,0.0,-2.9529,-2.9383,-2.9383,0.0,-2.9398,-2.9559,-2.972,-2.9881,-3.0123,-3.0203,-3.0349,-3.0349,-3.0349,0.0,-3.0349,-3.0349,-3.0349,0.0,-3.0349,-3.0349,0.0,0.0,0.0,-3.0583,-3.07,0.0,0.0,-3.0817,-3.0817,0.0,0.0,0.0,0.0,0.0,0.0,0.0,0.0,0.0,0.0,0.0,0.0,0.0,0.0,0.0,-2.6966,-2.7425,-2.7819,-2.8289,-2.8666,-2.8886,-2.8886,-2.9047,-2.9134,-2.9134,-2.9295,-2.9383,-2.9383,-2.9383,-2.9383,-2.9383,-2.9544,-2.9617,-2.9632,-2.9793,-2.9866,-2.9866,-2.9866,-2.9866,-2.9866,-2.9866,-3.0056,-3.0349,-3.0349,-3.0349,-3.0349,-3.0349,-3.0349,-3.0349,-2.1662,0.0,-2.1569,-2.2617,-2.2501,-2.2508,-2.308,-2.3426,-2.3524,-2.349,-2.3707,-2.392,-2.392,-2.408,-2.416,-2.416,-2.416,-2.4504,-2.534,-2.4554,-2.4394,-2.526,-2.5072,-2.5072,-2.534,-2.6586,-2.7327,-2.7578,0.0,0.0,0.0,0.0,0.0,0.0,0.0,0.0,0.0,0.0,0.0,-2.9881,0.0,-2.9851,-2.9588,-2.9851,-2.9998,-3.0086,-3.0349,-3.0612,-3.0832,-3.089,-3.092,-3.092,-3.092,-3.092,0.0,0.0,0.0,0.0,0.0,0.0,0.0,0.0,0.0,-3.0817,0.0,0.0,0.0,0.0,0.0,0.0,0.0,0.0,0.0,0.0,0.0,0.0,0.0,0.0,0.0,0.0,0.0,0.0,-2.6874,-2.6953,-2.7347,-2.8211,-2.8588,-2.8808,-2.8886,-2.8886,-2.8886,-2.8886,-2.8886,-2.8886,-2.8886,-2.8886,-2.8886,-2.89,-2.9164,-2.9281,-2.9295,-2.9559,-2.9676,-2.9676,-2.9676,-2.9676,-2.9676,-2.9676,-2.9676,-2.969,-2.9807,-2.9866,-2.9866,-2.9866,-2.9866,-2.9866,-2.1866,-2.1711,0.0,-2.2918,-2.2995,-2.3092,-2.3369,-2.3406,-2.3502,-2.3768,-2.4148,-2.4412,-2.4412,-2.5037,-2.5502,-2.5502,-2.5502,-2.5777,-2.6587,-2.5486,-2.5163,-2.5957,-2.5144,-2.5074,-2.605,-2.6122,-2.6577,-2.7324,0.0,0.0,0.0,0.0,0.0,0.0,-2.9486,0.0,0.0,0.0,-2.9866,0.0,-3.0481,-3.0525,0.0,-3.0357,-3.0466,-3.0715,-3.0759,-3.0788,-3.0876,0.0,-3.1256,-3.1256,0.0,-3.1256,-3.1198,-3.0905,0.0,0.0,0.0,0.0,0.0,0.0,-3.0817,-3.0817,-3.0817,0.0,-3.0817,-3.0817,0.0,0.0,0.0,0.0,0.0,0.0,0.0,0.0,0.0,0.0,0.0,0.0,0.0,0.0,0.0,-2.6795,-2.7347,-2.8211,-2.8368,-2.851,-2.8886,-2.8886,-2.8886,-2.8886,-2.8886,-2.8886,-2.8886,-2.8886,-2.8886,-2.8886,-2.893,-2.8944,-2.8944,-2.8988,-2.9003,-2.9003,-2.9003,-2.9003,-2.9003,-2.9003,-2.9003,-2.9061,-2.9632,-2.9866,-2.9866,-2.9866,-2.9866,-2.9866,-2.2159,-2.2179,0.0,-2.3171,-2.305,-2.3055,-2.3556,-2.3604,-2.364,-2.3748,-2.4,-2.4141,0.0,0.0,0.0,0.0,0.0,-2.603,0.0,-2.6413,-2.6102,-2.6076,-2.6118,-2.6139,-2.6092,-2.7025,-2.7663,-2.8084,-2.827,0.0,0.0,0.0,0.0,0.0,-2.9506,0.0,-2.941,0.0,-3.0422,0.0,0.0,0.0,0.0,-3.0627,-3.0715,-3.0846,-3.1037,-3.111,-3.1154,0.0,-3.1593,0.0,0.0,0.0,0.0,-3.1432,0.0,0.0,0.0,0.0,0.0,0.0,0.0,0.0,-3.111,-3.0964,-3.0817,-3.0817,0.0,0.0,0.0,0.0,0.0,0.0,-3.0021,0.0,0.0,0.0,0.0,0.0,0.0,0.0,0.0,0.0,0.0,-2.7504,-2.8054,-2.8353,-2.851,-2.873,-2.8886,-2.8886,-2.8886,-2.8886,-2.8886,-2.8886,-2.8886,-2.8886,-2.8886,-2.8886,-2.8886,-2.8886,-2.8886,-2.8886,-2.8886,-2.8886,-2.8886,-2.8886,-2.8886,-2.8915,-2.9193,-2.9295,-2.9295,-2.9295,-2.9295,-2.9295,-2.2234,0.0,0.0,0.0,0.0,-2.3226,-2.3736,-2.376,-2.3796,-2.3856,0.0,0.0,-2.4474,-2.4914,0.0,0.0,-2.612,-2.648,0.0,0.0,-2.6986,-2.673,-2.7266,-2.7386,-2.7046,-2.8194,-2.8823,-2.8823,-2.897,0.0,0.0,0.0,0.0,0.0,0.0,-2.9488,-2.9159,0.0,0.0,-3.0832,-3.092,-3.1007,-3.1081,-3.0993,-3.0964,-3.0993,-3.1329,-3.1446,-3.149,-3.1827,-3.1929,0.0,-3.1929,-3.1929,-3.1915,0.0,0.0,0.0,-3.1798,0.0,0.0,0.0,0.0,-3.1417,-3.1329,-3.1124,-3.0934,-3.0846,-3.0817,0.0,0.0,0.0,-3.0685,-3.029,0.0,-2.9511,0.0,0.0,0.0,0.0,0.0,0.0,0.0,0.0,-2.7032,-2.7175,-2.7647,-2.8054,-2.8289,-2.8588,-2.8822,-2.8886,-2.8886,-2.8886,-2.8886,-2.8886,-2.8886,-2.8886,-2.8886,-2.8886,-2.8886,-2.8886,-2.8886,-2.8886,-2.8886,-2.8886,-2.8886,-2.8886,-2.8886,-2.8886,-2.8886,-2.8886,-2.8886,-2.8886,-2.8886,-2.8886,-2.19,-2.2614,0.0,0.0,0.0,0.0,0.0,0.0,0.0,0.0,0.0,0.0,0.0,0.0,0.0,0.0,0.0,-2.7716,-2.8208,0.0,-2.7848,0.0,-2.8117,-2.8562,-2.9528,-2.948,-2.9453,-2.9453,-3.0069,0.0,0.0,0.0,0.0,0.0,0.0,-2.8439,-2.9453,-2.9159,-2.9699,-3.0846,-3.1168,-3.149,-3.1739,0.0,-3.13,-3.1344,-3.1666,0.0,0.0,-3.2163,-3.2266,-3.2266,-3.2266,0.0,0.0,0.0,0.0,0.0,0.0,0.0,0.0,-3.1798,-3.1783,-3.1695,-3.1388,-3.13,-3.1198,-3.089,-3.0817,-3.0817,-3.0817,-3.0817,-3.0612,-2.9983,-2.9881,0.0,0.0,0.0,0.0,0.0,0.0,0.0,0.0,-2.7254,-2.7175,-2.7555,-2.7254,-2.7425,-2.8289,-2.8289,-2.851,-2.8886,-2.8886,-2.8886,-2.8886,-2.8886,-2.8886,-2.8886,-2.8886,-2.8886,-2.8886,-2.8886,-2.8886,-2.8886,-2.8886,-2.8886,-2.8886,-2.8886,-2.8886,-2.8886,-2.8886,-2.8886,-2.8886,-2.8886,-2.8886,-2.8886,0.0,0.0,0.0,0.0,0.0,0.0,0.0,-2.4025,0.0,0.0,0.0,0.0,0.0,-2.6721,-2.731,0.0,0.0,-2.8663,-2.8874,-2.9004,0.0,-2.7958,-2.8646,-2.8769,-2.8254,-2.8769,-2.8894,-2.8558,-2.8211,0.0,0.0,0.0,0.0,0.0,0.0,-2.8965,0.0,0.0,0.0,0.0,0.0,-3.1695,-3.1783,0.0,-3.1637,-3.1681,-3.2002,-3.212,-3.2163,-3.25,-3.2602,-3.2602,-3.2602,-3.2602,-3.2588,-3.2471,-3.2441,-3.2441,-3.2441,-3.2441,-3.2441,-3.2441,-3.228,-3.209,-3.1973,-3.1622,-3.1201,-3.0747,-3.0727,-3.0749,-3.0415,-3.0582,-3.0612,-2.9968,-2.9866,-2.9632,0.0,0.0,0.0,0.0,0.0,0.0,0.0,0.0,0.0,-2.7175,-2.7097,-2.711,-2.7425,-2.7976,-2.8368,-2.851,-2.8744,-2.8886,-2.8886,-2.8886,-2.8886,-2.8886,-2.8886,-2.8886,-2.8886,-2.8886,-2.8886,-2.8886,-2.8886,-2.8886,-2.8886,-2.8886,-2.8886,-2.8886,-2.8886,-2.8886,-2.8886,-2.8886,-2.8886,-2.8886,-2.2648,0.0,0.0,0.0,0.0,0.0,0.0,0.0,0.0,0.0,-2.5612,0.0,-2.6491,0.0,-2.7423,0.0,-2.8579,-2.8991,-2.9381,-2.9578,0.0,-2.8519,-2.9369,-2.9355,0.0,-2.9076,-2.9146,-2.8389,0.0,-2.7883,0.0,0.0,0.0,0.0,0.0,0.0,0.0,0.0,-3.0453,0.0,0.0,-3.2046,0.0,0.0,-3.2076,-3.2017,0.0,-3.2456,-3.2485,-3.2705,-3.2778,-3.2778,-3.2778,-3.2778,-3.2778,-3.2778,-3.2778,-3.2778,-3.2778,-3.2675,-3.2586,-3.2778,-3.2338,-3.1974,-3.2048,-3.1526,-3.0851,-3.0397,-3.0464,-3.0499,-2.9998,-3.0415,-3.0573,-2.9967,-2.9858,-2.9632,0.0,-2.8886,0.0,0.0,0.0,0.0,0.0,0.0,-2.7347,-2.7032,-2.7032,-2.7032,-2.7032,-2.7504,-2.7976,-2.8289,-2.8588,-2.8744,-2.8886,-2.8886,-2.8886,-2.8886,-2.8886,-2.8886,-2.8886,-2.8886,-2.8886,-2.8886,-2.8886,-2.8886,-2.8886,-2.8886,-2.8886,-2.8886,-2.8886,-2.8886,-2.8886,-2.8886,-2.8886,-2.8886,0.0,0.0,0.0,0.0,-2.4094,0.0,0.0,0.0,-2.5504,0.0,-2.6163,-2.6613,-2.6881,-2.7013,-2.733,-2.7878,-2.818,-2.8686,-2.9599,-2.9727,0.0,0.0,-3.0312,-3.0184,-2.9453,0.0,-3.0124,-2.878,0.0,0.0,0.0,0.0,0.0,0.0,-2.8162,0.0,-2.9092,-3.0073,-3.0951,-3.1871,-3.2178,-3.25,-3.2778,-3.2778,-3.2573,-3.2354,-3.2661,-3.2778,-3.2778,-3.2778,-3.2778,-3.2778,-3.2778,-3.2778,-3.2778,-3.2778,-3.2778,-3.2763,-3.2763,-3.2409,-3.2143,-3.2586,-3.204,-3.1334,-3.1507,-3.1005,-3.0335,-2.9942,-3.0071,-3.0026,-2.9565,-3.0234,-3.0549,-2.9832,-2.9827,-2.9617,-2.9003,0.0,0.0,0.0,0.0,0.0,0.0,-2.8289,-2.7883,-2.711,-2.7032,-2.7032,0.0,-2.7032,-2.7425,-2.8211,-2.8289,-2.851,-2.8886,-2.8886,-2.8886,-2.8886,-2.8886,-2.8886,-2.8886,-2.8886,-2.8886,-2.8886,-2.8886,-2.8886,-2.8886,-2.8886,-2.8886,-2.8886,-2.8886,-2.8886,-2.8886,-2.8886,-2.8886,-2.8886,-2.3845,-2.3986,-2.4152,0.0,-2.4873,-2.512,0.0,0.0,0.0,0.0,-2.7426,-2.7701,-2.8346,-2.8738,-2.8923,-2.8738,-2.9104,0.0,0.0,0.0,0.0,-2.969,-2.9862,-2.9576,-2.8718,-2.9222,-2.9222,-2.8459,0.0,0.0,-2.784,0.0,0.0,0.0,0.0,0.0,-2.9553,-3.0396,-3.1495,-3.2529,-3.2617,-3.269,-3.2778,0.0,-3.2719,-3.2661,-3.2749,-3.2778,-3.2778,-3.2778,-3.2778,-3.2778,-3.2778,-3.2778,-3.2778,-3.2778,-3.2778,-3.2675,-3.2321,-3.2143,-3.1966,-3.1774,-3.1507,-3.1301,-3.1409,-3.1053,-3.057,-2.9918,-2.987,-2.9846,-2.9523,-2.9998,-3.0314,-3.0243,-2.98,-2.9442,-2.9281,0.0,0.0,-2.8886,0.0,0.0,0.0,-2.8182,-2.7712,-2.7476,-2.7175,-2.6874,-2.6544,0.0,-2.749,-2.7347,-2.7976,-2.8368,-2.8431,-2.873,-2.8886,-2.8886,-2.8886,-2.8886,-2.8886,-2.8886,-2.8886,-2.8886,-2.8886,-2.8886,-2.8886,-2.8886,-2.8886,-2.8886,-2.8886,-2.8886,-2.8886,-2.8886,-2.8886,-2.8886,-2.3038,0.0,0.0,-2.524,0.0,0.0,-2.5774,-2.6151,0.0,-2.7343,-2.7654,0.0,-2.8321,-2.8596,-2.8736,-2.8605,-2.878,0.0,-2.9141,0.0,0.0,-2.8956,-2.9131,-2.889,-2.8085,-2.8945,0.0,-2.7723,0.0,0.0,-2.7097,0.0,0.0,0.0,0.0,-2.9549,0.0,-3.0552,-3.1706,-3.2778,-3.2778,-3.2778,0.0,-3.2778,-3.2778,-3.2778,-3.2778,-3.2778,-3.2778,-3.2778,-3.2778,-3.2778,-3.2778,-3.2778,-3.2778,-3.2778,-3.2586,-3.2409,-3.2054,-3.1699,-3.1329,-3.1315,-3.0973,-3.0705,-3.0973,-3.0649,-3.0123,-2.9697,-2.9672,-2.9713,-2.9155,-2.9607,-3.0055,-3.0093,-2.9844,-2.9544,-2.9398,0.0,0.0,0.0,-2.851,0.0,-2.8886,-2.8104,-2.7633,-2.7633,-2.7398,-2.7175,-2.6939,0.0,-2.7333,-2.7254,-2.7805,-2.804,-2.7961,-2.8573,-2.8808,-2.8666,-2.8808,-2.8886,-2.8886,-2.8886,-2.8886,-2.8886,-2.8886,-2.8886,-2.8886,-2.8886,-2.8886,-2.8886,-2.8886,-2.8886,-2.8886,-2.8886,-2.8886,-2.8886,-2.1505,0.0,0.0,0.0,0.0,0.0,0.0,-2.6339,0.0,-2.7034,0.0,-2.7711,-2.775,-2.775,-2.7763,-2.7915,0.0,-2.8118,-2.8372,-2.8384,-2.8283,-2.8118,-2.8537,-2.8434,-2.7762,-2.8964,-2.8876,-2.7209,-2.8876,-2.8526,0.0,0.0,0.0,0.0,0.0,0.0,0.0,-3.0705,-3.1863,-3.2778,-3.2778,-3.2778,-3.2778,-3.2822,-3.2837,-3.2837,-3.288,-3.2866,-3.2837,-3.2837,-3.2866,-3.2895,-3.2895,-3.2895,-3.288,-3.2851,-3.2482,-3.2023,-3.198,-3.1254,-3.0705,-3.1062,-3.0526,-3.0003,-3.0451,-2.998,-2.9526,-2.9486,-2.9623,-2.9526,-2.8883,-2.9374,-2.9846,0.0,-2.9766,-2.9661,0.0,0.0,0.0,0.0,0.0,0.0,0.0,-2.8104,-2.7633,-2.7633,-2.7633,-2.7555,-2.7476,0.0,-2.7097,-2.7398,-2.7569,-2.7569,-2.7555,-2.8339,-2.8573,-2.8197,-2.8588,-2.8808,-2.8808,-2.8886,-2.8886,-2.8886,-2.8886,-2.8886,-2.8886,-2.8886,-2.8886,-2.8886,-2.8886,-2.8886,-2.8886,-2.8886,-2.8886,-2.8886,0.0,0.0,0.0,0.0,0.0,-2.6318,-2.646,-2.7008,-2.7498,-2.7763,-2.789,-2.8067,-2.8309,-2.8335,-2.8168,-2.7755,-2.7755,0.0,0.0,0.0,0.0,-2.8411,-2.8848,-2.8911,-2.8335,-2.8949,-2.9128,-2.877,-2.9128,-2.886,-2.8065,0.0,0.0,0.0,0.0,0.0,-3.2054,-3.1507,0.0,-3.2778,-3.2778,-3.2778,-3.2793,-3.3056,-3.3158,-3.3202,-3.3466,-3.3393,-3.3158,-3.3158,-3.3334,-3.3568,-3.3568,-3.3568,-3.351,-3.3232,-3.28,-3.2294,-3.1578,-3.1062,-3.0526,-3.0182,-3.0003,-2.9913,-3.0003,-2.9873,-2.9766,-2.9539,-2.9534,-2.9488,-2.9526,-2.9683,-2.9901,-2.9874,-2.9466,-2.9168,0.0,0.0,0.0,0.0,0.0,-2.7412,0.0,0.0,-2.804,-2.7633,-2.7633,-2.7319,-2.6623,0.0,-2.686,0.0,-2.6939,-2.711,0.0,0.0,-2.779,-2.7712,-2.8197,-2.8446,-2.8431,-2.8744,-2.8886,-2.8886,-2.8886,-2.8886,-2.8886,-2.8886,-2.8886,-2.8886,-2.8886,-2.8886,-2.8886,-2.8886,-2.8886,-2.8886,0.0,0.0,0.0,0.0,0.0,0.0,0.0,-2.7096,-2.7315,-2.7451,-2.7464,-2.7513,-2.7739,-2.7752,-2.7661,-2.7377,-2.7558,-2.7558,-2.7377,-2.7558,-2.7739,-2.7752,-2.7933,-2.7933,-2.7752,-2.8191,-2.8281,-2.8101,-2.8822,-2.8642,-2.7752,0.0,0.0,0.0,0.0,-3.0258,0.0,0.0,0.0,-3.2793,-3.2954,-3.3012,-3.3056,-3.3378,-3.3495,-3.351,-3.3671,-3.3744,-3.3729,-3.3554,-3.3597,-3.3729,-3.3729,-3.3729,-3.3609,-3.3176,-3.277,-3.2245,-3.1381,-3.0848,-3.0371,-3.0043,-2.9913,-2.9913,-2.9913,-2.9913,-2.9873,-2.974,-2.9713,-2.9708,-2.9576,-2.9576,-2.9603,-2.9603,-2.9258,-2.9019,-2.9019,0.0,-2.8036,0.0,0.0,0.0,0.0,0.0,0.0,0.0,0.0,-2.7398,-2.7004,0.0,-2.6953,0.0,0.0,0.0,-2.6702,0.0,-2.7476,-2.7254,-2.7726,-2.7961,-2.7961,-2.8104,-2.8261,-2.8261,-2.8261,-2.8261,-2.8261,-2.8261,-2.8339,-2.8588,-2.8588,-2.8744,-2.8886,-2.8886,-2.8886,-2.8886,0.0,-2.394,0.0,0.0,-2.6174,-2.681,-2.7075,-2.7111,-2.7087,-2.7039,-2.7027,-2.7051,-2.7111,-2.7111,-2.7135,-2.7196,-2.7549,-2.7549,-2.7196,-2.75,-2.7463,-2.7111,-2.7063,-2.7027,-2.7027,-2.7377,-2.7377,-2.7027,-2.8191,-2.8076,-2.6954,0.0,0.0,0.0,0.0,0.0,0.0,0.0,-3.1648,-3.2819,-3.3067,-3.3259,-3.3378,-3.3715,-3.3832,-3.3846,-3.3919,-3.411,-3.4285,-3.3838,-3.3842,-3.3842,-3.3751,-3.3751,-3.3644,-3.3114,-3.2627,-3.2097,-3.1336,-3.0772,-3.0301,-3.0074,-2.9967,-2.9913,-2.9913,-2.9913,-2.9913,-2.9913,-2.9913,-2.9847,-2.9619,-2.9487,-2.9281,-2.9213,-2.9088,-2.8869,-2.8883,0.0,-2.7907,0.0,0.0,0.0,-2.7847,0.0,0.0,0.0,0.0,-2.7555,-2.7319,-2.7018,-2.6874,0.0,0.0,-2.6702,-2.6386,0.0,-2.7175,-2.6874,-2.7254,-2.7476,-2.7476,-2.7555,-2.7633,-2.7633,-2.7633,-2.7633,-2.7633,-2.7633,-2.7805,-2.8118,-2.8289,-2.851,-2.8822,-2.8886,-2.8886,-2.8886,0.0,0.0,0.0,0.0,0.0,-2.7087,-2.7341,-2.7389,-2.7304,-2.7063,-2.7027,-2.7123,-2.7365,-2.7389,-2.7486,-2.7715,-2.7739,-2.7739,-2.7739,-2.751,-2.7389,-2.7389,-2.716,-2.7027,-2.7027,-2.7027,-2.7027,-2.7027,-2.7118,-2.6996,-2.6689,-2.7251,0.0,0.0,0.0,0.0,-3.1409,-3.0225,-3.0995,-3.3005,-3.3048,-3.323,-3.3729,-3.4051,-3.4168,-3.4212,-3.4505,-3.4636,-3.4557,-3.4031,-3.4219,-3.4514,-3.4017,-3.3923,-3.3772,-3.2929,-3.2394,-3.1954,-3.156,-3.0921,-3.0354,-3.0327,-3.0114,-2.9913,-2.9913,-2.9913,-2.9913,-2.9913,-2.9913,-2.9913,-2.9887,-2.9619,-2.94,-2.9045,-2.8824,-2.8587,-2.8305,0.0,-2.7631,-2.7418,0.0,0.0,-2.6571,-2.6939,0.0,0.0,-2.7398,-2.724,-2.6544,-2.6465,-2.6465,-2.6465,-2.6465,-2.6465,-2.6386,-2.6465,-2.6465,-2.6465,-2.686,-2.7032,-2.711,-2.7398,-2.7633,-2.7633,-2.7633,-2.7633,-2.7726,-2.7633,-2.7633,-2.7712,-2.8118,-2.8289,-2.8431,-2.8744,-2.8886,-2.8886,0.0,0.0,0.0,0.0,0.0,0.0,0.0,-2.7655,-2.7618,-2.751,-2.7498,-2.7534,-2.7642,-2.7655,-2.7703,-2.7799,-2.8091,-2.8091,-2.7811,-2.7994,-2.7933,-2.7655,-2.7558,-2.7498,-2.7498,-2.7498,-2.7498,-2.7498,-2.8051,-2.8002,-2.7353,-2.8205,-2.8458,-2.8464,-2.8909,-2.9569,-3.0214,-3.028,-3.095,-3.2189,-3.2647,-3.3087,-3.3697,-3.4295,-3.4505,-3.4519,-3.4262,-3.4212,-3.4118,-3.3634,-3.3822,-3.4118,-3.3648,-3.3445,-3.3337,-3.2741,-3.2418,-3.2081,-3.1502,-3.102,-3.0581,-3.0408,-3.014,-2.9913,-2.9913,-2.9913,-2.9913,-2.9913,-2.9913,-2.9913,-2.9913,-2.9673,-2.9446,-2.9325,-2.8911,-2.8564,-2.8444,0.0,0.0,-2.7321,0.0,-2.6988,0.0,-2.6953,0.0,0.0,0.0,-2.7175,-2.7083,-2.6623,-2.6544,-2.6781,0.0,-2.6386,-2.6386,-2.6386,-2.6386,-2.6386,-2.6544,-2.6623,-2.6623,-2.6781,-2.686,-2.686,-2.686,-2.686,-2.6939,-2.686,-2.7018,-2.7254,-2.7726,-2.804,-2.8368,-2.873,-2.8886,-2.8886,-2.5158,0.0,-2.7409,0.0,-2.7344,-2.7836,-2.792,-2.792,-2.7956,-2.8041,-2.8053,-2.8017,-2.7932,-2.792,-2.7956,-2.8041,-2.8335,-2.8429,-2.8053,-2.8262,-2.8307,-2.7932,-2.786,0.0,-2.7811,-2.7811,-2.7811,-2.7811,-2.8557,-2.8427,-2.7703,-2.852,-2.8551,-2.8041,-2.8718,-2.9093,-2.9355,-2.9933,-3.0597,-3.1434,-3.2291,-3.2855,-3.3256,-3.4139,-3.4414,-3.4226,-3.3822,-3.3728,-3.3634,-3.3163,-3.3163,-3.3445,-3.3069,-3.2974,-3.2894,-3.2327,-3.2232,-3.2083,-3.1504,-3.1142,-3.0849,-3.0555,-3.0261,-3.002,-2.994,-2.9913,-2.9913,-2.9913,-2.9913,-2.9913,-2.9913,-2.9753,-2.9553,-2.9379,-2.9005,-2.8671,-2.8497,-2.8283,0.0,-2.7455,-2.7388,-2.7324,-2.6971,-2.6917,0.0,0.0,0.0,-2.6939,-2.724,-2.6702,-2.6544,-2.6781,0.0,0.0,-2.6386,-2.6386,-2.6386,-2.6386,-2.6386,-2.6386,-2.6386,-2.6386,-2.6386,-2.6386,-2.6386,-2.6386,-2.6386,-2.6386,-2.6544,-2.686,-2.7254,-2.7726,-2.8197,-2.8588,-2.8808,-2.8886,-2.6396,-2.7145,-2.7811,-2.7811,-2.7811,-2.7896,-2.8162,-2.8198,-2.8294,-2.8572,-2.8608,-2.8512,-2.8234,-2.8198,-2.8306,-2.8584,-2.8608,-2.8608,-2.8608,-2.8355,-2.8198,0.0,0.0,-2.7811,-2.7811,-2.7811,-2.7811,-2.7811,-2.7811,-2.7679,-2.7425,-2.7691,-2.8101,-2.8596,-2.8318,-2.864,-2.9351,-2.909,-2.9791,-3.0998,-3.2029,-3.2408,-3.2502,-3.354,-3.3634,-3.3257,-3.3177,-3.3177,-3.3177,-3.2597,-3.2408,-3.2408,-3.2421,-3.2421,-3.2327,-3.1853,-3.1677,-3.1664,-3.1664,-3.145,-3.1156,-3.0862,-3.0568,-3.0274,-2.998,-2.9913,-2.9913,-2.9913,-2.9913,-2.9913,-2.9913,-2.9913,-2.9726,-2.9138,-2.9045,-2.8831,-2.8315,-2.8234,0.0,-2.7722,-2.7696,-2.7455,-2.6867,-2.6814,0.0,0.0,0.0,-2.6386,-2.6386,-2.6386,-2.6386,-2.6386,-2.6386,-2.6386,-2.6386,-2.6386,-2.6386,-2.6386,-2.6386,-2.6386,-2.6386,-2.6386,-2.6386,-2.6386,-2.6386,-2.6386,-2.6386,-2.6386,-2.6386,-2.6465,-2.6874,-2.7254,-2.7726,-2.8133,-2.8588,-2.8886,-2.5476,-2.5794,-2.604,-2.6219,-2.6827,-2.7329,-2.741,-2.7997,-2.8524,-2.8608,-2.862,-2.8584,-2.85,-2.8487,-2.8524,0.0,-2.862,-2.862,0.0,-2.8536,-2.8487,-2.8487,-2.8403,-2.8367,-2.8367,-2.8367,-2.8367,-2.8367,-2.8367,-2.8318,-2.8246,-2.8331,-2.8463,-2.862,-2.8524,-2.8632,-2.8812,-2.8715,-2.9205,-2.9949,-3.0604,-3.127,-3.1948,-3.2597,-3.2974,-3.3177,-3.28,-3.2691,-3.2611,-3.2043,-3.1948,-3.1948,-3.1948,-3.1948,-3.1853,-3.1758,-3.1664,-3.1664,-3.1664,-3.145,-3.1156,-3.0862,-3.0581,-3.0287,-2.998,-2.9913,-2.9913,-2.9913,-2.9913,-2.9913,-2.9913,-2.9913,-2.9793,-2.9406,-2.9179,-2.8898,-2.8511,-2.8355,-2.8114,-2.7736,-2.7696,-2.7549,-2.7161,-2.6692,0.0,0.0,0.0,0.0,-2.7162,-2.6702,-2.6544,-2.6795,-2.6544,-2.6386,-2.6386,-2.6386,-2.6386,-2.6386,-2.6386,-2.6386,-2.6386,-2.6386,-2.6386,-2.6386,-2.6386,-2.6386,-2.6386,-2.6386,-2.6386,-2.6465,-2.6874,-2.7254,-2.7633,-2.779,-2.8118,-2.8431,-2.526,-2.5281,-2.5335,-2.5486,-2.61,-2.6487,-2.6487,-2.7067,-2.755,-2.7947,-2.8031,-2.8139,-2.8524,-2.862,-2.862,-2.862,-2.862,-2.862,-2.862,-2.862,-2.862,-2.862,-2.862,-2.862,-2.862,-2.862,-2.862,-2.862,-2.862,-2.862,-2.862,-2.862,-2.862,-2.862,-2.862,-2.862,-2.862,-2.862,-2.8812,-2.9196,-2.9841,-3.0414,-3.0903,-3.1569,-3.1935,-3.2029,-3.1853,-3.1853,-3.1853,-3.1758,-3.1664,-3.1664,-3.1664,-3.1664,-3.1664,-3.1664,-3.1664,-3.1664,-3.1664,-3.153,-3.1316,-3.1022,-3.0742,-3.0421,-3.0007,-2.9913,-2.9913,-2.9913,-2.9913,-2.9913,-2.9913,-2.982,-2.9659,-2.9366,-2.9072,-2.8778,-2.847,-2.8355,-2.8154,-2.7883,-2.7869,-2.7749,-2.7455,-2.7009,-2.673,0.0,0.0,0.0,0.0,-2.6702,-2.6702,-2.6795,-2.6544,-2.6386,-2.6386,-2.6386,-2.6386,-2.6386,-2.6386,-2.6386,-2.6386,-2.6386,-2.6386,-2.6386,-2.6386,-2.6386,-2.6386,-2.6386,-2.6386,-2.6386,-2.6716,-2.7018,-2.7412,-2.7412,-2.7647,-2.7961,-2.5324,-2.5324,-2.5324,-2.5324,-2.5324,-2.5421,-2.5421,-2.5421,-2.5906,-2.6874,-2.6959,-2.7357,-2.8236,-2.8428,-2.8428,-2.8428,-2.8524,-2.862,-2.862,-2.862,-2.862,-2.862,-2.862,-2.862,-2.862,-2.862,-2.862,-2.862,-2.862,-2.862,-2.862,-2.862,-2.862,-2.862,-2.862,-2.862,-2.862,-2.862,-2.862,-2.8716,-2.965,-2.9758,-2.9471,-3.0427,-3.0522,-3.0128,-3.0713,-3.0808,-3.0916,-3.1379,-3.1569,-3.1569,-3.1664,-3.1664,-3.1664,-3.1664,-3.1664,-3.1664,-3.1664,-3.1664,-3.1597,-3.1303,-3.0996,-3.0621,-3.0074,-2.9927,-2.9913,-2.9913,-2.9913,-2.9913,-2.9913,-2.97,-2.9406,-2.9085,-2.8818,-2.8524,-2.8274,-2.8221,-2.8234,-2.815,-2.815,-2.803,-2.7762,-2.7709,-2.7304,-2.6355,0.0,0.0,0.0,-2.6558,-2.6795,-2.6386,-2.6386,-2.6386,-2.6386,-2.6386,-2.6386,-2.6386,-2.6386,-2.6386,-2.6386,-2.6386,-2.6386,-2.6386,-2.6386,-2.6386,-2.6386,-2.6386,-2.6386,-2.6386,-2.6386,-2.6623,-2.7032,-2.6953,-2.7175,-2.7555,-2.3072,-2.317,-2.317,-2.317,-2.3853,-2.4351,-2.4351,-2.5032,-2.5615,-2.5809,-2.5906,-2.6003,-2.6197,-2.6197,-2.6197,-2.6197,-2.7658,-2.862,-2.862,-2.862,-2.862,-2.862,-2.862,-2.862,-2.862,-2.862,-2.862,-2.862,-2.862,-2.862,-2.862,-2.862,-2.862,-2.862,-2.862,-2.862,-2.862,-2.862,-2.862,-2.862,-2.8908,-2.9088,-2.9471,-2.9663,-2.9949,-3.0128,-3.0223,-3.0319,-3.0319,-3.0414,-3.0509,-3.0509,-3.0998,-3.1107,-3.1202,-3.1582,-3.1664,-3.1664,-3.1664,-3.1664,-3.1597,-3.1303,-3.0835,-3.0421,-3.0287,-3.0074,-2.9913,-2.9913,-2.9913,-2.9913,-2.9913,-2.986,-2.9646,-2.9125,-2.8978,-2.8751,-2.8301,-2.8221,-2.8065,-2.7728,-2.7981,-2.8039,-2.7551,-2.7341,-2.7158,-2.6848,0.0,-2.664,-2.6105,-2.6679,-2.6795,-2.6386,-2.6386,-2.6386,-2.6386,-2.6386,-2.6386,-2.6386,-2.6386,-2.6386,-2.6386,-2.6386,-2.6386,-2.6386,-2.6386,-2.6386,-2.6386,-2.6386,-2.6386,-2.6386,-2.6386,-2.6623,-2.6953,-2.6623,-2.6781,-2.7097,-2.1603,-2.1701,-2.1701,-2.1995,-2.2485,-2.2974,-2.3268,-2.3756,-2.4243,-2.474,-2.4838,-2.5032,-2.5421,-2.5518,-2.5518,-2.5518,-2.6487,-2.7164,-2.7164,-2.7646,-2.7935,-2.7935,-2.7935,-2.7935,-2.7935,-2.7935,-2.8139,-2.862,-2.8139,-2.8139,-2.862,-2.8139,-2.8139,-2.862,-2.862,-2.862,-2.862,-2.862,-2.862,-2.862,-2.862,-2.8812,-2.9004,-2.9004,-2.9184,-2.9471,-2.9663,-2.9758,-2.9841,-3.0032,-3.0128,-3.0128,-3.0427,-3.0522,-3.0617,-3.0903,-3.1284,-3.1664,-3.1664,-3.1487,-3.1191,-3.0475,-3.0135,-2.9939,-2.9845,-2.975,-2.9644,-2.9824,-2.9913,-2.9913,-2.9913,-2.9806,-2.9477,-2.885,-2.8751,-2.8598,-2.7963,-2.8065,-2.815,-2.7812,-2.7897,-2.7897,-2.7812,-2.733,-2.6936,-2.6723,-2.6839,-2.6633,-2.5886,-2.652,-2.6772,-2.64,-2.6386,-2.6386,-2.6386,-2.6386,-2.6386,-2.6386,-2.6386,-2.6386,-2.6386,-2.6386,-2.6386,-2.6386,-2.6386,-2.6386,-2.6386,-2.6386,-2.6386,-2.6386,-2.6386,-2.6544,-2.6702,-2.6465,-2.6544,-2.6702,-2.0826,-2.0826,-2.0924,-2.1406,-2.1505,-2.1603,-2.2093,-2.2191,-2.2485,-2.3365,-2.3561,-2.3863,-2.4838,-2.4935,-2.4935,-2.5032,-2.5032,-2.5129,-2.5518,-2.639,-2.6874,-2.6874,-2.6874,-2.6874,-2.6874,-2.6874,-2.726,-2.8139,-2.726,-2.726,-2.8139,-2.726,-2.7357,-2.8139,-2.8139,-2.8236,-2.8332,-2.8332,-2.8428,-2.862,-2.862,-2.862,-2.862,-2.862,-2.862,-2.862,-2.91,-2.9292,-2.9375,-2.9746,-2.9841,-2.9841,-2.9937,-3.0032,-3.0032,-3.0128,-3.07,-3.1474,-3.1474,-3.1093,-3.0596,-2.9585,-2.9327,-2.9254,-2.9184,-2.9208,-2.9272,-2.9734,-2.9824,-2.9913,-2.9824,-2.9624,-2.9269,-2.8539,-2.8512,-2.8307,-2.7761,-2.7923,-2.8065,-2.7968,-2.7643,-2.7558,-2.7968,-2.7292,-2.6779,-2.6549,-2.6903,-2.6669,-2.5783,-2.6384,-2.6707,-2.6466,-2.6413,-2.6386,-2.6386,-2.6386,-2.6386,-2.6386,-2.6386,-2.6386,-2.6386,-2.6386,-2.6386,-2.6386,-2.6386,-2.6386,-2.6386,-2.6386,-2.6386,-2.6386,-2.6386,-2.6386,-2.6386,-2.6386,-2.6386,-2.6386,-2.0727,-2.0826,-2.0826,-2.0924,-2.0924,-2.0924,-2.1022,-2.1022,-2.1121,-2.1308,-2.1317,-2.1514,-2.2093,-2.2191,-2.2387,-2.2877,-2.2877,-2.3658,-2.5421,-2.5615,-2.5712,-2.5712,-2.5712,-2.5712,-2.5712,-2.5712,-2.5809,-2.6003,-2.5809,-2.5809,-2.6003,-2.5809,-2.5809,-2.6003,-2.6003,-2.6487,-2.7357,-2.7357,-2.7839,-2.862,-2.862,-2.862,-2.862,-2.862,-2.862,-2.862,-2.8716,-2.8716,-2.8716,-2.8812,-2.8812,-2.8908,-2.9375,-2.9471,-2.9567,-2.9937,-3.0223,-3.0319,-3.0319,-3.0319,-3.0147,-2.9733,-2.9479,-2.9225,-2.8986,-2.9093,-2.9182,-2.9272,-2.9644,-2.9824,-2.9362,-2.9233,-2.9115,-2.8827,-2.8539,-2.8338,-2.8406,-2.7984,-2.7474,-2.705,-2.6965,-2.6965,-2.705,-2.722,-2.7376,-2.7337,-2.7508,-2.7337,-2.683,-2.6769,-2.68,-2.676,-2.652,-2.6386,-2.6386,-2.6386,-2.6386,-2.6386,-2.6386,-2.6386,-2.6386,-2.6386,-2.6386,-2.6386,-2.6386,-2.6386,-2.6386,-2.6386,-2.6386,-2.6386,-2.6386,-2.6386,-2.6386,-2.6386,-2.6386,-2.6386,-1.9947,-1.9947,-2.0038,-2.0333,-2.0333,-2.0432,-2.0727,-2.0826,-2.0826,-2.0826,-2.0826,-2.0924,-2.1112,-2.1219,-2.1406,-2.1897,-2.1995,-2.2485,-2.3756,-2.4351,-2.4643,-2.4643,-2.4643,-2.4643,-2.4643,-2.4643,-2.4935,-2.5518,-2.4935,-2.4935,-2.5518,-2.4935,-2.4935,-2.5518,-2.5216,-2.5507,-2.6197,-2.5884,-2.6573,-2.7742,-2.7742,-2.8139,-2.862,-2.862,-2.862,-2.862,-2.862,-2.862,-2.862,-2.862,-2.862,-2.862,-2.8908,-2.9004,-2.9004,-2.9184,-2.965,-3.0032,-2.9746,-2.9758,-2.955,-2.8842,-2.8551,-2.8539,-2.8676,-2.8563,-2.8552,-2.9092,-2.9195,-2.9105,-2.8835,-2.8835,-2.8642,-2.8093,-2.8294,-2.8413,-2.7883,-2.7787,-2.7571,-2.7246,-2.6698,-2.6528,-2.6796,-2.6796,-2.6796,-2.6796,-2.7006,-2.6948,-2.6292,-2.6311,-2.6271,-2.6102,-2.6308,-2.6386,-2.6386,-2.6386,-2.6386,-2.6386,-2.6386,-2.6386,-2.6386,-2.6386,-2.6386,-2.6386,-2.6386,-2.6386,-2.6386,-2.6386,-2.6386,-2.6386,-2.6386,-2.6386,-2.6386,-2.6386,-2.6386,-2.6386,-1.9256,-1.9256,-1.9454,-1.9742,-1.9849,-1.9939,-2.0432,-2.0432,-2.0432,-2.0432,-2.0432,-2.053,-2.0629,-2.0629,-2.0826,-2.1415,-2.1415,-2.1603,-2.2191,-2.2877,-2.3375,-2.3668,-2.3658,-2.3658,-2.3658,-2.3658,-2.3961,-2.4633,-2.3853,-2.3756,-2.4341,-2.3658,-2.3658,-2.4341,-2.3941,-2.4136,-2.474,-2.433,-2.5205,-2.6863,-2.6863,-2.755,-2.862,-2.862,-2.862,-2.862,-2.862,-2.862,-2.862,-2.862,-2.862,-2.862,-2.862,-2.862,-2.862,-2.862,-2.9184,-2.965,-2.928,-2.9147,-2.8879,-2.8026,-2.7763,-2.7779,-2.8045,-2.792,-2.792,-2.8732,-2.8642,-2.8474,-2.8384,-2.8294,-2.8128,-2.7454,-2.8004,-2.823,-2.7541,-2.7512,-2.7543,-2.7343,-2.6541,-2.6103,-2.6613,-2.6443,-2.6273,-2.6443,-2.6783,-2.6779,-2.631,-2.6064,-2.5804,-2.546,-2.595,-2.6228,-2.6228,-2.6307,-2.6386,-2.6386,-2.6386,-2.6386,-2.6386,-2.6386,-2.6386,-2.6386,-2.6386,-2.6386,-2.6386,-2.6386,-2.6386,-2.6386,-2.6386,-2.6386,-2.6386,-2.6386,-2.6386,-2.6386,-1.9256,-1.9256,-1.9355,-1.9355,-1.9355,-1.9355,-1.9355,-1.9454,-1.9454,-1.9454,-1.9454,-1.9553,-2.0038,-2.0038,-2.0235,-2.0826,-2.0826,-2.1121,-2.1603,-2.1308,-2.1505,-2.2485,-2.2485,-2.2485,-2.2485,-2.2485,-2.2289,-2.1897,-2.1799,-2.1603,-2.1112,-2.1121,-2.1121,-2.1112,-2.1121,-2.1701,-2.2583,-2.2583,-2.4038,-2.6379,-2.6379,-2.7249,-2.862,-2.862,-2.862,-2.862,-2.862,-2.862,-2.862,-2.862,-2.862,-2.862,-2.862,-2.862,-2.862,-2.862,-2.862,-2.8716,-2.8716,-2.8523,-2.8162,-2.7884,-2.763,-2.7377,-2.719,-2.7377,-2.7727,-2.783,-2.8204,-2.8384,-2.783,-2.7739,-2.7727,-2.7702,-2.7491,-2.7586,-2.816,-2.7294,-2.6684,-2.6821,-2.603,-2.5604,-2.6103,-2.6528,-2.6965,-2.7389,-2.7389,-2.763,-2.8025,-2.6747,-2.5715,-2.5181,-2.5607,-2.5832,-2.5832,-2.6228,-2.6386,-2.6386,-2.6386,-2.6386,-2.6386,-2.6386,-2.6386,-2.6386,-2.6386,-2.6386,-2.6386,-2.6386,-2.6386,-2.6386,-2.6386,-2.6386,-2.6386,-2.6386,-2.6386,-2.6386,-1.9256,-1.9256,-1.9256,-1.9256,-1.9256,-1.9256,-1.9256,-1.9256,-1.9256,-1.9256,-1.9256,-1.9355,-1.9553,-1.9553,-1.975,-2.0235,-2.0333,-2.053,-2.1121,-2.0924,-2.1022,-2.1406,-2.1415,-2.1415,-2.1415,-2.1415,-2.1308,-2.1112,-2.1112,-2.1022,-2.0826,-2.0826,-2.0826,-2.0826,-2.0432,-2.0727,-2.1406,-2.1022,-2.2093,-2.3843,-2.3843,-2.5205,-2.7152,-2.7152,-2.7742,-2.862,-2.862,-2.862,-2.862,-2.862,-2.862,-2.862,-2.862,-2.862,-2.862,-2.862,-2.85,-2.8367,-2.8367,-2.8282,-2.8101,-2.7679,-2.7498,-2.7445,-2.7438,-2.7377,-2.7377,-2.7649,-2.7649,-2.748,-2.7299,-2.7299,-2.7299,-2.7299,-2.7247,-2.732,-2.741,-2.6959,-2.6512,-2.6396,-2.5775,-2.5433,-2.569,-2.6103,-2.6358,-2.6201,-2.6456,-2.6698,-2.6868,-2.6095,-2.5213,-2.4344,-2.497,-2.5527,-2.5832,-2.6228,-2.6386,-2.6386,-2.6386,-2.6386,-2.6386,-2.6386,-2.6386,-2.6386,-2.6386,-2.6386,-2.6386,-2.6386,-2.6386,-2.6386,-2.6386,-2.6386,-2.6386,-2.6386,-2.6386,-2.6386,-1.9256,-1.9256,-1.9256,-1.9256,-1.9256,-1.9256,-1.9256,-1.9256,-1.9256,-1.9256,-1.9256,-1.9256,-1.9256,-1.9256,-1.9454,-1.975,-1.9742,-2.0038,-2.053,-2.053,-2.0629,-2.0826,-2.0826,-2.0826,-2.0826,-2.0826,-2.0727,-2.053,-2.053,-2.0432,-2.0333,-2.0333,-2.0333,-2.0333,-1.9939,-1.9939,-2.0333,-1.9939,-2.0727,-2.2191,-2.2191,-2.3551,-2.5593,-2.5593,-2.6573,-2.7839,-2.7839,-2.8236,-2.862,-2.862,-2.862,-2.862,-2.862,-2.862,-2.8608,-2.8512,-2.8355,-2.8162,-2.8005,-2.7956,-2.7872,-2.751,-2.7365,-2.7336,-2.7426,-2.7208,-2.7118,-2.7377,-2.7208,-2.7027,-2.7027,-2.7027,-2.7003,-2.6918,-2.7018,-2.7041,-2.6772,-2.6562,-2.6253,-2.6128,-2.569,-2.5433,-2.5433,-2.5848,-2.5933,-2.5604,-2.5933,-2.5944,-2.5687,-2.5579,-2.505,-2.4024,-2.4891,-2.5435,-2.5832,-2.6228,-2.6386,-2.6386,-2.6386,-2.6386,-2.6386,-2.6386,-2.6386,-2.6386,-2.6386,-2.6386,-2.6386,-2.6386,-2.6386,-2.6386,-2.6386,-2.6386,-2.6386,-2.6386,-2.6386,-2.6386,-1.9256,-1.9256,-1.9256,-1.9256,-1.9256,-1.9256,-1.9256,-1.9256,-1.9256,-1.9256,-1.9256,-1.9256,-1.9256,-1.9256,-1.9256,-1.9256,-1.9256,-1.9454,-1.9939,-2.0038,-2.0235,-2.0727,-2.0826,-2.0826,-2.0826,-2.0826,-2.053,-2.0038,-2.0038,-1.975,-1.9256,-1.9256,-1.9256,-1.9256,-1.9256,-1.9256,-1.9256,-1.9256,-2.0128,-2.1585,-2.1585,-2.2466,-2.392,-2.392,-2.4903,-2.6271,-2.6271,-2.7249,-2.8524,-2.8524,-2.8524,-2.8524,-2.862,-2.8524,-2.8464,-2.8282,-2.8198,-2.8089,-2.7558,-2.7425,-2.7413,-2.7413,-2.722,-2.7027,-2.7027,-2.7027,-2.7027,-2.7027,-2.7027,-2.7027,-2.7027,-2.7027,-2.6942,-2.6677,-2.6641,-2.6536,-2.6525,-2.6092,-2.5896,-2.6043,-2.569,-2.5433,-2.5433,-2.5848,-2.6103,-2.6103,-2.6103,-2.5699,-2.4649,-2.5462,-2.5552,-2.4517,-2.5356,-2.5832,-2.5832,-2.6228,-2.6386,-2.6386,-2.6386,-2.6386,-2.6386,-2.6386,-2.6386,-2.6386,-2.6386,-2.6386,-2.6386,-2.6386,-2.6386,-2.6386,-2.6386,-2.6386,-2.6386,-2.6386,-2.6386,-2.6386,-1.9256,-1.9256,-1.9256,-1.9256,-1.9256,-1.9256,-1.9256,-1.9256,-1.9256,-1.9256,-1.9256,-1.9256,-1.9256,-1.9256,-1.9256,-1.9256,-1.9256,-1.9355,-1.9454,-1.9553,-1.9553,-1.975,-1.975,-1.975,-1.975,-1.975,-1.9651,-1.9553,-1.9553,-1.9454,-1.9256,-1.9256,-1.9256,-1.9256,-1.9256,-1.9256,-1.9256,-1.9256,-1.9553,-2.0038,-2.0038,-2.0906,-2.227,-2.227,-2.3248,-2.4612,-2.4612,-2.4903,-2.5292,-2.5292,-2.5292,-2.5486,-2.6669,-2.616,-2.543,-2.6808,-2.671,-2.6119,-2.6341,-2.673,-2.7148,-2.7148,-2.7087,-2.7027,-2.7027,-2.7027,-2.7027,-2.7027,-2.7027,-2.7027,-2.7027,-2.6882,-2.6725,-2.6653,-2.6315,-2.6013,-2.603,-2.5761,-2.553,-2.5616,-2.5519,-2.5433,-2.5433,-2.5519,-2.5604,-2.5604,-2.5933,-2.5699,-2.4649,-2.5215,-2.5213,-2.4504,-2.505,-2.5435,-2.5832,-2.6228,-2.6386,-2.6386,-2.6386,-2.6386,-2.6386,-2.6386,-2.6386,-2.6386,-2.6386,-2.6386,-2.6386,-2.6386,-2.6386,-2.6386,-2.6386,-2.6386,-2.6386,-2.6386,-2.6386,-2.6386,-1.9256,-1.9256,-1.9256,-1.9256,-1.9256,-1.9256,-1.9256,-1.9256,-1.9256,-1.9256,-1.9256,-1.9256,-1.9256,-1.9256,-1.9256,-1.9256,-1.9256,-1.9256,-1.9256,-1.9256,-1.9256,-1.9256,-1.9256,-1.9256,-1.9256,-1.9256,-1.9256,-1.9256,-1.9256,-1.9256,-1.9256,-1.9256,-1.9256,-1.9256,-1.9256,-1.9256,-1.9256,-1.9256,-1.9256,-1.9256,-1.9256,-1.984,-2.0718,-2.0718,-2.1683,-2.2955,-2.2955,-2.3346,-2.3931,-2.3931,-2.3931,-2.4105,-2.5002,-2.4586,-2.4056,-2.5694,-2.5698,-2.5347,-2.6179,-2.6691,-2.7027,-2.7027,-2.7027,-2.7027,-2.7027,-2.7027,-2.7027,-2.7027,-2.7027,-2.7027,-2.7027,-2.681,-2.6604,-2.6496,-2.6109,-2.5796,-2.5687,-2.5542,-2.5433,-2.5433,-2.5433,-2.5433,-2.5433,-2.5433,-2.5433,-2.5433,-2.569,-2.5446,-2.4649,-2.5215,-2.5295,-2.4744,-2.5289,-2.5753,-2.607,-2.6307,-2.6386,-2.6386,-2.6228,-2.6228,-2.6386,-2.6228,-2.6228,-2.6386,-2.6386,-2.6386,-2.6386,-2.6386,-2.6386,-2.6386,-2.6386,-2.6386,-2.6386,-2.6386,-2.6386,-2.6386,-1.9256,-1.9256,-1.9256,-1.9256,-1.9256,-1.9256,-1.9256,-1.9256,-1.9256,-1.9256,-1.9256,-1.9256,-1.9256,-1.9256,-1.9256,-1.9256,-1.9256,-1.9256,-1.9256,-1.9256,-1.9256,-1.9256,-1.9256,-1.9256,-1.9256,-1.9256,-1.9256,-1.9256,-1.9256,-1.9256,-1.9256,-1.9256,-1.9256,-1.9256,-1.9256,-1.9256,-1.9256,-1.9256,-1.9256,-1.9256,-1.9256,-1.9256,-1.9256,-1.9256,-2.0128,-2.1388,-2.1388,-2.227,-2.3443,-2.3443,-2.3521,-2.3471,-2.3485,-2.3395,-2.3476,-2.4746,-2.4884,-2.5095,-2.645,-2.6845,-2.6845,-2.6936,-2.7027,-2.7027,-2.7027,-2.7027,-2.7027,-2.7027,-2.7027,-2.7027,-2.7027,-2.6798,-2.652,-2.6266,-2.5977,-2.5711,-2.547,-2.5433,-2.5433,-2.5433,-2.5433,-2.5433,-2.5433,-2.5433,-2.5433,-2.5433,-2.5409,-2.518,-2.4661,-2.5355,-2.5514,-2.5075,-2.5845,-2.6307,-2.6307,-2.6386,-2.6386,-2.6307,-2.599,-2.599,-2.6307,-2.599,-2.599,-2.6386,-2.6386,-2.6386,-2.6386,-2.6386,-2.6386,-2.6386,-2.6386,-2.6386,-2.6386,-2.6386,-2.6386,-2.6386,-1.9256,-1.9256,-1.9256,-1.9256,-1.9256,-1.9256,-1.9256,-1.9256,-1.9256,-1.9256,-1.9256,-1.9256,-1.9256,-1.9256,-1.9256,-1.9256,-1.9256,-1.9256,-1.9256,-1.9256,-1.9256,-1.9256,-1.9256,-1.9256,-1.9256,-1.9256,-1.9256,-1.9256,-1.9256,-1.9256,-1.9256,-1.9256,-1.9256,-1.9256,-1.9256,-1.9256,-1.9256,-1.9256,-1.9256,-1.9256,-1.9256,-1.9256,-1.9256,-1.9256,-1.9553,-1.984,-1.984,-2.0038,-2.0333,-2.0333,-2.023,-2.0288,-2.1408,-2.0795,-2.0251,-2.3157,-2.2818,-2.2123,-2.5114,-2.556,-2.556,-2.6755,-2.7027,-2.7027,-2.7027,-2.7027,-2.7027,-2.7027,-2.7027,-2.7027,-2.7027,-2.6629,-2.6291,-2.623,-2.5832,-2.5506,-2.5446,-2.5433,-2.5433,-2.5433,-2.5433,-2.5433,-2.5433,-2.5433,-2.5433,-2.5433,-2.5252,-2.4987,-2.4649,-2.4596,-2.4584,-2.4664,-2.513,-2.5527,-2.5911,-2.6228,-2.6228,-2.5911,-2.5832,-2.5832,-2.5911,-2.5832,-2.599,-2.6386,-2.6386,-2.6386,-2.6386,-2.6386,-2.6386,-2.6386,-2.6386,-2.6386,-2.6386,-2.6386,-2.6386,-2.6386,-1.9256,-1.9256,-1.9256,-1.9256,-1.9256,-1.9256,-1.9256,-1.9256,-1.9256,-1.9256,-1.9256,-1.9256,-1.9256,-1.9256,-1.9256,-1.9256,-1.9256,-1.9256,-1.9256,-1.9256,-1.9256,-1.9256,-1.9256,-1.9256,-1.9256,-1.9256,-1.9256,-1.9256,-1.9256,-1.9256,-1.9256,-1.9256,-1.9256,-1.9256,-1.9256,-1.9256,-1.9256,-1.9256,-1.9256,-1.9256,-1.9256,-1.9256,-1.9256,-1.9256,-1.9256,-1.9256,-1.9256,-1.9256,-1.9248,-1.9159,-1.9061,-1.9142,-1.9739,-1.9266,-1.8995,-2.1422,-2.1318,-2.0955,-2.3444,-2.3994,-2.3903,-2.4727,-2.4909,-2.5286,-2.6664,-2.7027,-2.7027,-2.7027,-2.7027,-2.7027,-2.7027,-2.658,-2.6218,-2.6218,-2.5784,-2.5433,-2.5433,-2.5433,-2.5433,-2.5433,-2.5433,-2.5433,-2.5433,-2.5433,-2.5433,-2.5433,-2.5107,-2.4843,-2.4637,-2.4547,-2.4522,-2.4504,-2.4891,-2.5209,-2.5435,-2.5673,-2.5607,-2.5197,-2.5356,-2.5594,-2.5832,-2.5594,-2.5832,-2.6386,-2.6386,-2.6386,-2.6386,-2.6386,-2.6386,-2.6386,-2.6386,-2.6386,-2.6386,-2.6386,-2.6386,-2.6386,-1.9256,-1.9256,-1.9256,-1.9256,-1.9256,-1.9256,-1.9256,-1.9256,-1.9256,-1.9256,-1.9256,-1.9256,-1.9256,-1.9256,-1.9256,-1.9256,-1.9256,-1.9256,-1.9256,-1.9256,-1.9256,-1.9256,-1.9256,-1.9256,-1.9256,-1.9256,-1.9256,-1.9256,-1.9256,-1.9256,-1.9256,-1.9256,-1.9256,-1.9256,-1.9256,-1.9256,-1.9256,-1.9256,-1.9256,-1.9256,-1.9256,-1.9256,-1.9256,-1.9256,-1.9256,-1.9256,-1.9256,-1.924,-1.9191,-1.9037,-1.8939,-1.8842,-1.8541,-1.8522,-1.8748,-1.9989,-2.0223,-2.0408,-2.2156,-2.2432,-2.2248,-2.2524,-2.2616,-2.326,-2.5651,-2.63,-2.6379,-2.6482,-2.6446,-2.6411,-2.6411,-2.5973,-2.5706,-2.5882,-2.5488,-2.5263,-2.5348,-2.5433,-2.5433,-2.5433,-2.5433,-2.5433,-2.5433,-2.5433,-2.5433,-2.5433,-2.5156,-2.4866,-2.4637,-2.4662,-2.4634,-2.4424,-2.4811,-2.497,-2.497,-2.505,-2.4891,-2.4492,-2.4891,-2.5289,-2.5673,-2.5368,-2.5673,-2.6386,-2.6386,-2.6386,-2.6386,-2.6307,-2.6307,-2.6307,-2.6307,-2.6307,-2.6307,-2.6386,-2.6386,-2.6386,-1.9256,-1.9256,-1.9256,-1.9256,-1.9256,-1.9256,-1.9256,-1.9256,-1.9256,-1.9256,-1.9256,-1.9256,-1.9256,-1.9256,-1.9256,-1.9256,-1.9256,-1.9256,-1.9256,-1.9256,-1.9256,-1.9256,-1.9256,-1.9256,-1.9256,-1.9256,-1.9256,-1.9256,-1.9256,-1.9256,-1.9256,-1.9256,-1.9256,-1.9256,-1.9256,-1.9256,-1.9256,-1.9256,-1.9256,-1.9256,-1.9256,-1.9256,-1.9256,-1.9256,-1.9256,-1.9256,-1.9256,-1.9159,-1.9013,-1.8988,-1.8777,-1.8517,-1.8468,-1.8338,-1.8489,-1.9953,-1.948,-1.9099,-2.1879,-2.1694,-2.0955,-2.2248,-2.2616,-2.2708,-2.3076,-2.3536,-2.3903,-2.4361,-2.439,-2.4247,-2.4247,-2.3841,-2.3786,-2.4573,-2.4506,-2.4578,-2.5263,-2.5433,-2.5433,-2.5433,-2.5433,-2.5433,-2.5433,-2.5433,-2.5433,-2.5433,-2.4975,-2.4661,-2.4625,-2.4166,-2.3969,-2.3932,-2.4332,-2.4572,-2.4572,-2.4891,-2.4891,-2.4492,-2.4891,-2.513,-2.5209,-2.5514,-2.599,-2.6386,-2.6386,-2.6386,-2.6386,-2.599,-2.5911,-2.5911,-2.5911,-2.5911,-2.5911,-2.6307,-2.6386,-2.6386,-1.9256,-1.9256,-1.9256,-1.9256,-1.9256,-1.9256,-1.9256,-1.9256,-1.9256,-1.9256,-1.9256,-1.9256,-1.9256,-1.9256,-1.9256,-1.9256,-1.9256,-1.9256,-1.9256,-1.9256,-1.9256,-1.9256,-1.9256,-1.9256,-1.9256,-1.9256,-1.9256,-1.9256,-1.9256,-1.9256,-1.9256,-1.9256,-1.9256,-1.9256,-1.9256,-1.9256,-1.9256,-1.9256,-1.9256,-1.9256,-1.9256,-1.9256,-1.9256,-1.9256,-1.9256,-1.9248,-1.9142,-1.9053,-1.8956,-1.8753,-1.8582,-1.8436,-1.833,-1.8241,-1.8363,-1.9015,-1.8735,-1.8456,-1.975,-1.9657,-1.9294,-2.0028,-2.0112,-2.0187,-2.0345,-2.0602,-2.1144,-2.2789,-2.2966,-2.2809,-2.2809,-2.2538,-2.2669,-2.3905,-2.3866,-2.4138,-2.5263,-2.5433,-2.5433,-2.5433,-2.5433,-2.5433,-2.5433,-2.5433,-2.5373,-2.5228,-2.4854,-2.4564,-2.442,-2.4045,-2.376,-2.376,-2.4,-2.4092,-2.4092,-2.4332,-2.4412,-2.4492,-2.4891,-2.513,-2.513,-2.5289,-2.5673,-2.607,-2.5753,-2.5686,-2.5686,-2.5448,-2.5448,-2.5448,-2.5673,-2.5911,-2.6149,-2.6307,-2.6386,-2.6386]}]]